[[{"header":{"parameterUnit":"m.s-1","parameterCategory":1,"la1":30.6,"la2":29.2853,"lo1":-89.7004,"lo2":-87.6739,"dx":0.0162,"dy":0.0183,"nx":112,"ny":82,"refTime":"2023-01-07T06:00:00:Z","depth":0,"parameterNumber":2,"parameterNumberName":"U-component_of_WINDS"},"data":[0.0,0.0,0.0,0.0,0.0,0.0,0.0,0.0,0.0,0.0,0.0,0.0,0.0,0.0,0.0,0.0,0.0,0.0,0.0,0.0,0.0,0.0,0.0,0.0,0.0,0.0,0.0,0.0,0.0,0.0,0.0,0.0,0.0,0.0,0.0,0.0,0.0,0.0,0.0,0.0,0.0,0.0,0.0,0.0,0.0,0.0,0.0,0.0,0.0,0.0,0.0,0.0,0.0,0.0,0.0,0.0,0.0,0.0,0.0,0.0,0.0,0.0,0.0,0.0,0.0,0.0,0.0,0.0,0.0,0.0,0.0,0.0,0.0,0.0,0.0,0.0,0.0,0.0,0.0,0.0,0.0,0.0,0.0,0.0,0.0,0.0,0.0,0.0,0.0,0.0,-6.7905,-6.8489,-6.9941,-7.0871,-7.0777,-7.0777,-7.0314,-6.9251,0.0,0.0,0.0,0.0,0.0,0.0,0.0,0.0,0.0,0.0,0.0,0.0,0.0,0.0,0.0,0.0,0.0,0.0,0.0,0.0,0.0,0.0,0.0,0.0,0.0,0.0,0.0,0.0,0.0,0.0,0.0,0.0,0.0,0.0,0.0,0.0,0.0,0.0,0.0,0.0,0.0,0.0,0.0,0.0,0.0,0.0,0.0,0.0,0.0,0.0,0.0,0.0,0.0,0.0,0.0,0.0,0.0,0.0,0.0,0.0,0.0,0.0,0.0,0.0,0.0,0.0,0.0,0.0,0.0,0.0,0.0,0.0,0.0,0.0,0.0,0.0,0.0,0.0,0.0,0.0,0.0,0.0,0.0,0.0,0.0,0.0,0.0,0.0,0.0,0.0,0.0,0.0,0.0,0.0,0.0,0.0,0.0,0.0,0.0,0.0,0.0,0.0,0.0,0.0,-6.8673,-7.0286,-7.0714,-7.0734,-7.0266,-7.0211,-6.9757,-6.8682,0.0,0.0,0.0,0.0,0.0,0.0,0.0,0.0,0.0,0.0,0.0,0.0,0.0,0.0,0.0,0.0,0.0,0.0,0.0,0.0,0.0,0.0,0.0,0.0,0.0,0.0,0.0,0.0,0.0,0.0,0.0,0.0,0.0,0.0,0.0,0.0,0.0,0.0,0.0,0.0,0.0,0.0,0.0,0.0,0.0,0.0,0.0,0.0,0.0,0.0,0.0,0.0,0.0,0.0,0.0,0.0,0.0,0.0,0.0,0.0,0.0,0.0,0.0,0.0,0.0,0.0,0.0,0.0,0.0,0.0,0.0,0.0,0.0,0.0,0.0,0.0,0.0,0.0,0.0,0.0,0.0,0.0,0.0,0.0,0.0,0.0,0.0,0.0,0.0,0.0,0.0,0.0,0.0,0.0,0.0,0.0,0.0,0.0,0.0,0.0,0.0,0.0,0.0,-6.8641,-7.0137,-7.0843,-7.0637,-7.0362,-7.0129,-6.9829,-6.9353,-6.8521,-6.7239,0.0,0.0,0.0,0.0,0.0,0.0,0.0,0.0,0.0,0.0,0.0,0.0,0.0,0.0,0.0,0.0,0.0,0.0,0.0,0.0,0.0,0.0,0.0,0.0,0.0,0.0,0.0,0.0,0.0,0.0,0.0,0.0,0.0,0.0,0.0,0.0,0.0,0.0,0.0,0.0,0.0,0.0,0.0,0.0,0.0,0.0,0.0,0.0,0.0,0.0,0.0,0.0,0.0,0.0,0.0,0.0,0.0,0.0,0.0,0.0,0.0,0.0,0.0,0.0,0.0,0.0,0.0,0.0,0.0,0.0,0.0,0.0,0.0,0.0,0.0,0.0,0.0,0.0,0.0,0.0,0.0,0.0,0.0,0.0,0.0,0.0,0.0,0.0,0.0,0.0,0.0,0.0,0.0,0.0,0.0,0.0,0.0,0.0,0.0,0.0,0.0,0.0,-6.9815,-7.0992,-7.0743,-7.025,-6.9847,-6.9738,-6.9353,-6.8981,-6.8617,-6.6922,0.0,0.0,0.0,0.0,0.0,0.0,0.0,0.0,0.0,0.0,0.0,0.0,0.0,0.0,0.0,0.0,0.0,0.0,0.0,0.0,0.0,0.0,0.0,0.0,0.0,0.0,0.0,0.0,0.0,0.0,0.0,0.0,0.0,0.0,0.0,0.0,0.0,0.0,0.0,0.0,0.0,0.0,0.0,0.0,0.0,0.0,0.0,0.0,0.0,0.0,0.0,0.0,0.0,0.0,0.0,0.0,0.0,0.0,0.0,0.0,0.0,0.0,0.0,0.0,0.0,0.0,0.0,0.0,0.0,0.0,0.0,0.0,0.0,0.0,0.0,0.0,0.0,0.0,0.0,0.0,0.0,0.0,0.0,0.0,0.0,0.0,0.0,0.0,0.0,0.0,0.0,0.0,0.0,0.0,0.0,0.0,0.0,0.0,0.0,0.0,0.0,0.0,-6.9793,-7.0188,-7.0145,-6.9683,-6.9148,-6.866,-6.8567,-6.863,-6.886,-6.6665,0.0,0.0,0.0,0.0,0.0,0.0,0.0,0.0,0.0,0.0,0.0,0.0,0.0,0.0,0.0,0.0,0.0,0.0,0.0,0.0,0.0,0.0,0.0,0.0,0.0,0.0,0.0,0.0,0.0,0.0,0.0,0.0,0.0,0.0,0.0,0.0,0.0,0.0,0.0,0.0,0.0,0.0,0.0,0.0,0.0,0.0,0.0,0.0,0.0,0.0,0.0,0.0,0.0,0.0,0.0,0.0,0.0,0.0,0.0,0.0,0.0,0.0,0.0,0.0,0.0,0.0,0.0,0.0,0.0,0.0,0.0,0.0,0.0,0.0,0.0,0.0,0.0,0.0,0.0,0.0,0.0,0.0,0.0,0.0,0.0,0.0,0.0,0.0,0.0,0.0,0.0,0.0,0.0,0.0,0.0,0.0,0.0,0.0,0.0,0.0,0.0,0.0,-7.0198,-7.0744,-6.9721,-6.9127,-6.8728,-6.8535,-6.8185,-6.8273,-6.8862,0.0,0.0,0.0,0.0,0.0,0.0,0.0,0.0,0.0,0.0,0.0,0.0,0.0,0.0,0.0,0.0,0.0,0.0,0.0,0.0,0.0,0.0,0.0,0.0,0.0,0.0,0.0,0.0,0.0,0.0,0.0,0.0,0.0,0.0,0.0,0.0,0.0,0.0,0.0,0.0,0.0,0.0,0.0,0.0,0.0,0.0,0.0,0.0,0.0,0.0,0.0,0.0,0.0,0.0,0.0,0.0,0.0,0.0,0.0,0.0,0.0,0.0,0.0,0.0,0.0,0.0,0.0,0.0,0.0,0.0,0.0,0.0,0.0,0.0,0.0,0.0,0.0,0.0,0.0,0.0,0.0,0.0,0.0,0.0,0.0,0.0,0.0,0.0,0.0,0.0,0.0,0.0,0.0,0.0,0.0,0.0,0.0,0.0,0.0,0.0,0.0,0.0,-6.9293,-7.0338,-7.0718,-6.9568,-6.873,-6.8235,-6.8235,-6.7904,-6.8128,-6.9229,0.0,0.0,0.0,0.0,0.0,0.0,0.0,0.0,0.0,0.0,0.0,0.0,0.0,0.0,0.0,0.0,0.0,0.0,0.0,0.0,0.0,0.0,0.0,0.0,0.0,0.0,0.0,0.0,0.0,0.0,0.0,0.0,0.0,0.0,0.0,0.0,0.0,0.0,0.0,0.0,0.0,0.0,0.0,0.0,0.0,0.0,0.0,0.0,0.0,0.0,0.0,0.0,0.0,0.0,0.0,0.0,0.0,0.0,0.0,0.0,0.0,0.0,0.0,0.0,0.0,0.0,0.0,0.0,0.0,0.0,0.0,0.0,0.0,0.0,0.0,0.0,0.0,0.0,0.0,0.0,0.0,0.0,0.0,0.0,0.0,0.0,0.0,0.0,0.0,0.0,0.0,0.0,0.0,0.0,0.0,0.0,0.0,0.0,0.0,0.0,0.0,0.0,-7.0697,-7.0201,-6.9679,-6.9679,-6.8513,-6.7687,-6.7687,-6.7687,-6.8385,0.0,0.0,0.0,0.0,0.0,0.0,0.0,0.0,0.0,0.0,0.0,0.0,0.0,0.0,0.0,0.0,0.0,0.0,0.0,0.0,0.0,0.0,0.0,0.0,0.0,0.0,0.0,0.0,0.0,0.0,0.0,0.0,0.0,0.0,0.0,0.0,0.0,0.0,0.0,0.0,0.0,0.0,0.0,0.0,0.0,0.0,0.0,0.0,0.0,0.0,0.0,0.0,0.0,0.0,0.0,0.0,0.0,0.0,0.0,0.0,0.0,0.0,0.0,0.0,0.0,0.0,0.0,0.0,0.0,0.0,0.0,0.0,0.0,0.0,0.0,0.0,0.0,0.0,0.0,0.0,0.0,0.0,0.0,0.0,0.0,0.0,0.0,0.0,0.0,0.0,0.0,0.0,0.0,0.0,0.0,0.0,0.0,0.0,0.0,0.0,0.0,0.0,0.0,-7.1111,-7.0485,-6.9774,-6.9194,-6.8262,-6.7687,-6.7687,-6.7687,-6.8385,-7.0,0.0,0.0,0.0,0.0,0.0,0.0,0.0,0.0,0.0,0.0,0.0,0.0,0.0,0.0,0.0,0.0,0.0,0.0,0.0,0.0,0.0,0.0,0.0,0.0,0.0,0.0,0.0,0.0,0.0,0.0,0.0,0.0,0.0,0.0,0.0,0.0,0.0,0.0,0.0,0.0,0.0,0.0,0.0,0.0,0.0,0.0,0.0,0.0,0.0,0.0,0.0,0.0,0.0,0.0,0.0,0.0,0.0,0.0,0.0,0.0,0.0,0.0,0.0,0.0,0.0,0.0,0.0,0.0,0.0,0.0,0.0,0.0,0.0,0.0,0.0,0.0,0.0,0.0,0.0,0.0,0.0,0.0,0.0,0.0,0.0,0.0,0.0,0.0,0.0,0.0,0.0,0.0,0.0,0.0,0.0,0.0,0.0,0.0,0.0,0.0,0.0,0.0,-7.1762,-7.1101,-7.0403,-6.9926,-6.9155,-6.8641,-6.8641,-6.8348,-6.8715,-7.0,0.0,0.0,0.0,0.0,0.0,0.0,0.0,0.0,0.0,0.0,0.0,0.0,0.0,0.0,0.0,0.0,0.0,0.0,0.0,0.0,0.0,0.0,0.0,0.0,0.0,0.0,0.0,0.0,0.0,0.0,0.0,0.0,0.0,0.0,0.0,0.0,0.0,0.0,0.0,0.0,0.0,0.0,0.0,0.0,0.0,0.0,0.0,0.0,0.0,0.0,0.0,0.0,0.0,0.0,0.0,0.0,0.0,0.0,0.0,0.0,0.0,0.0,0.0,0.0,0.0,0.0,0.0,0.0,0.0,0.0,0.0,0.0,0.0,0.0,0.0,0.0,0.0,0.0,0.0,0.0,0.0,0.0,0.0,0.0,0.0,0.0,0.0,0.0,0.0,0.0,0.0,0.0,0.0,0.0,0.0,0.0,0.0,0.0,0.0,0.0,0.0,0.0,-7.2496,-7.1835,-7.1329,-7.1431,-7.0624,-7.011,-7.011,-6.9449,-6.9339,-7.0036,0.0,0.0,0.0,0.0,0.0,0.0,0.0,0.0,0.0,0.0,0.0,0.0,0.0,0.0,0.0,0.0,0.0,0.0,0.0,0.0,0.0,0.0,0.0,0.0,0.0,0.0,0.0,0.0,0.0,0.0,0.0,0.0,0.0,0.0,0.0,0.0,0.0,0.0,0.0,0.0,0.0,0.0,0.0,0.0,0.0,0.0,0.0,0.0,0.0,0.0,0.0,0.0,0.0,0.0,0.0,0.0,0.0,0.0,0.0,0.0,-4.738,-4.4089,0.0,0.0,0.0,0.0,0.0,0.0,0.0,0.0,0.0,0.0,0.0,0.0,0.0,0.0,0.0,0.0,0.0,0.0,0.0,0.0,0.0,0.0,0.0,0.0,0.0,0.0,0.0,0.0,0.0,0.0,0.0,0.0,0.0,0.0,0.0,0.0,0.0,0.0,0.0,0.0,-7.334,-7.2202,-7.1541,-7.2202,-7.0954,-7.011,-7.011,-6.9926,-6.9926,-7.0073,-7.011,0.0,0.0,0.0,0.0,0.0,0.0,0.0,0.0,0.0,0.0,0.0,0.0,0.0,0.0,0.0,0.0,0.0,0.0,0.0,0.0,0.0,0.0,0.0,0.0,0.0,0.0,0.0,0.0,0.0,0.0,0.0,0.0,0.0,0.0,0.0,0.0,0.0,0.0,0.0,0.0,0.0,0.0,0.0,0.0,0.0,0.0,0.0,0.0,0.0,0.0,0.0,0.0,0.0,0.0,0.0,0.0,0.0,0.0,0.0,-5.2917,-4.9748,0.0,0.0,0.0,0.0,0.0,0.0,0.0,0.0,0.0,0.0,0.0,0.0,0.0,0.0,0.0,0.0,0.0,0.0,0.0,0.0,0.0,0.0,0.0,0.0,0.0,0.0,0.0,0.0,0.0,0.0,0.0,0.0,0.0,0.0,0.0,0.0,0.0,0.0,0.0,0.0,-7.3634,-7.2973,-7.2606,-7.3046,-7.1982,-7.1248,-7.1248,-7.0917,-7.0697,-7.0697,-7.0697,0.0,0.0,0.0,0.0,0.0,0.0,0.0,0.0,0.0,0.0,0.0,0.0,0.0,0.0,0.0,0.0,0.0,0.0,0.0,0.0,0.0,0.0,0.0,0.0,0.0,0.0,0.0,0.0,0.0,0.0,0.0,0.0,0.0,0.0,0.0,0.0,0.0,0.0,0.0,0.0,0.0,0.0,0.0,0.0,0.0,0.0,0.0,0.0,0.0,0.0,0.0,0.0,0.0,-5.7557,-5.8076,-5.8137,-5.8682,-5.9224,-5.9685,-5.9685,-5.7144,-5.3002,-5.2459,0.0,0.0,0.0,0.0,0.0,0.0,0.0,0.0,0.0,0.0,0.0,0.0,0.0,0.0,0.0,0.0,0.0,0.0,0.0,0.0,0.0,0.0,-6.1606,-7.0403,-7.2496,-7.2129,-7.0807,0.0,0.0,0.0,0.0,0.0,0.0,0.0,0.0,0.0,0.0,0.0,-7.4111,-7.4001,-7.3964,-7.4111,-7.3413,-7.2936,-7.2936,-7.2202,-7.1688,-7.1541,-7.1366,-7.1027,0.0,0.0,0.0,0.0,0.0,0.0,0.0,0.0,0.0,0.0,0.0,0.0,0.0,0.0,0.0,0.0,0.0,0.0,0.0,0.0,0.0,0.0,0.0,0.0,0.0,0.0,0.0,0.0,0.0,0.0,0.0,0.0,-4.8009,-4.5964,0.0,0.0,0.0,0.0,0.0,0.0,0.0,0.0,0.0,0.0,0.0,0.0,0.0,-5.5838,-5.6339,-5.6848,-5.7315,-5.7786,-6.0677,-6.202,-6.2155,-6.4977,-6.6349,-6.6402,-6.6402,0.0,-5.6222,-5.3363,0.0,0.0,0.0,0.0,0.0,0.0,0.0,0.0,0.0,0.0,0.0,0.0,0.0,0.0,0.0,0.0,0.0,0.0,0.0,0.0,0.0,0.0,-6.2328,-7.055,-7.2496,-7.2459,-7.2239,-7.2165,-7.2165,-7.2165,-7.2165,-7.2239,0.0,0.0,0.0,0.0,0.0,0.0,-7.5689,-7.5175,-7.5028,-7.5726,-7.5065,-7.4588,-7.4588,-7.3854,-7.3083,-7.2386,-7.1688,-7.1219,-7.1174,-7.1358,0.0,0.0,0.0,0.0,0.0,0.0,0.0,0.0,0.0,0.0,0.0,0.0,0.0,0.0,0.0,0.0,0.0,0.0,0.0,0.0,0.0,0.0,0.0,0.0,0.0,0.0,0.0,0.0,0.0,-4.6233,-4.7807,-4.5021,-4.7192,-4.7734,0.0,0.0,0.0,0.0,0.0,0.0,0.0,0.0,0.0,-5.5064,-5.817,-6.0248,-6.1051,-6.284,-6.4103,-6.4824,-6.6219,-6.6916,-6.6953,-6.8385,-6.9045,-6.9082,-6.9522,-6.7955,-6.4702,-6.0076,-5.6744,-5.445,0.0,0.0,0.0,0.0,-5.3927,-5.4231,-5.4573,-5.4861,-5.5097,-5.5097,0.0,0.0,0.0,0.0,0.0,0.0,0.0,-5.2417,-5.8217,-6.1447,-6.464,-7.044,-7.2165,-7.2496,-7.2496,-7.2496,-7.2642,-7.3083,-7.3156,-7.345,-7.4368,-7.4441,0.0,0.0,0.0,-7.5873,-7.668,-7.6497,-7.6356,-7.6754,-7.6056,-7.5395,-7.4955,-7.4588,-7.4037,-7.323,-7.2826,-7.2239,-7.1329,-7.2165,-7.2386,0.0,0.0,0.0,0.0,0.0,0.0,0.0,0.0,0.0,0.0,0.0,0.0,0.0,0.0,0.0,0.0,0.0,0.0,0.0,0.0,0.0,0.0,0.0,0.0,0.0,0.0,0.0,0.0,-4.7212,-4.8792,-4.5291,-4.867,-5.0159,0.0,0.0,0.0,0.0,0.0,0.0,-5.3684,-5.7421,-5.9538,-5.9538,-6.2879,-6.4971,-6.5632,-6.7945,-6.9433,-7.0018,-7.0237,-7.031,-7.0347,-7.0612,-7.0697,-7.0734,-7.1358,-7.1615,-7.1211,-6.6145,-6.2358,-5.9776,-5.9532,-5.9128,-5.8844,-5.9947,-6.0358,-6.0409,-6.086,-6.1006,-6.1006,-6.1006,-6.086,-6.0676,-6.0456,0.0,0.0,0.0,0.0,-5.5978,-6.0015,-6.3356,-6.6623,-7.066,-7.2055,-7.2496,-7.2496,-7.2496,-7.2679,-7.3266,-7.356,-7.4074,-7.5285,-7.5322,0.0,-7.6019,-7.646,-7.6974,-7.7561,-7.7818,-7.7965,-7.7965,-7.7231,-7.6497,-7.5909,-7.5469,-7.4955,-7.4331,-7.4111,-7.3377,-7.1982,-7.3046,-7.312,-7.1945,0.0,0.0,0.0,0.0,0.0,0.0,0.0,0.0,0.0,0.0,0.0,0.0,0.0,0.0,0.0,0.0,0.0,0.0,0.0,0.0,0.0,0.0,0.0,0.0,0.0,0.0,0.0,0.0,0.0,-5.0033,-5.2929,0.0,0.0,0.0,0.0,-5.6416,-5.729,-5.7694,-5.7694,-6.1594,-6.3796,-6.3796,-6.765,-6.9743,-6.9779,-6.98,-6.9764,-6.9837,-7.059,-7.0951,-7.0983,-7.1961,-7.2386,-7.2386,-7.2422,-7.2459,-7.2165,-6.8825,-6.7357,-6.6853,-6.3782,-6.2547,-6.2522,-6.2608,-6.2645,-6.2645,-6.267,-6.2695,-6.2695,-6.2695,-6.2181,-6.141,-6.0639,-6.0272,0.0,0.0,-5.9905,-6.097,-6.5081,-6.6292,-6.7467,-7.1468,-7.2459,-7.2496,-7.2496,-7.2496,-7.2496,-7.2569,-7.3193,-7.3707,-7.3817,0.0,-7.6056,-7.6093,-7.7451,-7.8479,-7.8516,-7.9176,-7.9653,-7.9653,-7.8956,-7.8442,-7.8405,-7.6937,-7.6019,-7.5983,-7.5285,-7.4478,-7.3597,-7.367,-7.367,-7.356,-7.3597,0.0,0.0,0.0,0.0,0.0,0.0,0.0,0.0,0.0,0.0,0.0,0.0,0.0,0.0,0.0,0.0,0.0,0.0,0.0,0.0,0.0,0.0,0.0,0.0,0.0,0.0,0.0,0.0,-5.2525,-5.6497,0.0,-5.4785,-5.6031,-5.7427,-5.8397,-6.1092,-6.2695,-6.2695,-6.6549,-6.8752,-6.8752,-7.0624,-7.1872,-7.2386,-7.235,-7.2253,-7.2113,-7.2434,-7.2209,-7.1587,-7.2611,-7.3066,-7.3103,-7.3611,-7.3829,-7.376,-7.2485,-7.1499,-7.0734,-7.0073,-6.9816,-6.9889,-7.0403,-7.0587,-7.0587,-7.0587,-7.0587,-7.0513,-7.0,-6.9265,-6.8091,-6.5191,-6.4677,-6.453,-6.1887,-6.3062,-6.5411,-6.688,-6.9192,-7.1358,-7.2275,-7.2899,-7.3266,-7.3266,-7.3266,-7.3413,-7.3964,-7.3854,-7.4037,-7.5065,-7.5726,-7.6276,-7.679,-7.7378,-7.8148,-7.9213,-7.9617,-7.9984,-8.0534,-7.9837,-7.914,-7.8626,-7.7561,-7.6644,-7.613,-7.5836,-7.5322,-7.4515,-7.4955,-7.4992,-7.4478,-7.4992,-7.5249,0.0,0.0,0.0,0.0,0.0,0.0,0.0,0.0,0.0,0.0,0.0,0.0,0.0,0.0,0.0,0.0,0.0,0.0,0.0,0.0,0.0,0.0,0.0,0.0,0.0,-5.2529,-5.5261,-5.4419,-5.8619,-6.0626,-5.8274,-5.9963,-6.158,-6.235,-6.5217,-6.7063,-6.732,-7.011,-7.1725,-7.1725,-7.2197,-7.2552,-7.2808,-7.2432,-7.2171,-7.205,-7.2585,-7.2472,-7.1909,-7.3119,-7.3686,-7.3722,-7.451,-7.4869,-7.4905,-7.4997,-7.4583,-7.3873,-7.3905,-7.3905,-7.3978,-7.4486,-7.4704,-7.47,-7.4801,-7.5007,-7.5139,-7.4037,-7.3523,-7.2753,-6.9816,-6.9486,-6.9559,-6.6843,-6.8054,-7.011,-7.011,-7.2092,-7.3964,-7.345,-7.3707,-7.4037,-7.3744,-7.3707,-7.378,-7.4037,-7.4331,-7.4845,-7.5909,-7.635,-7.679,-7.7635,-7.7745,-7.8259,-7.9617,-7.98,-8.0094,-8.0901,-8.0021,-7.9286,-7.9029,-7.8736,-7.7965,-7.6607,-7.7304,-7.7011,-7.5395,-7.635,-7.668,-7.6166,-7.668,-7.679,-7.6497,0.0,0.0,0.0,0.0,0.0,0.0,0.0,0.0,0.0,0.0,0.0,0.0,0.0,0.0,0.0,0.0,0.0,0.0,0.0,0.0,0.0,0.0,0.0,-4.9286,-5.3751,-5.6753,-5.6098,-5.9366,-6.1989,-6.2724,-6.4421,-6.6409,-6.8631,-6.9683,-7.055,-7.1329,-7.2165,-7.2577,-7.2577,-7.2481,-7.2034,-7.1207,-7.0119,-6.954,-6.9501,-7.103,-7.1723,-7.1758,-7.3456,-7.4234,-7.427,-7.5012,-7.5327,-7.5398,-7.6101,-7.638,-7.6278,-7.4906,-7.4343,-7.4343,-7.4343,-7.4343,-7.4352,-7.4612,-7.5301,-7.5806,-7.4294,-7.4331,-7.4808,-7.4037,-7.4368,-7.5028,-7.5028,-7.5028,-7.5065,-7.5028,-7.5028,-7.5028,-7.4955,-7.4955,-7.4735,-7.3927,-7.3744,-7.3487,-7.2753,-7.4478,-7.6056,-7.6019,-7.6717,-7.7561,-7.8405,-7.8552,0.0,-7.9653,-7.9764,-8.0094,-8.0975,-7.9653,-7.9029,-7.98,-8.0571,-7.9947,-7.7457,-7.958,-7.947,-7.6276,-7.7708,-7.8552,-7.8589,-7.8662,-7.8259,-7.7384,0.0,0.0,0.0,0.0,0.0,0.0,0.0,0.0,0.0,0.0,0.0,0.0,0.0,0.0,0.0,0.0,0.0,0.0,0.0,0.0,0.0,-5.2063,-5.4873,-5.5436,-5.7856,-6.0278,-6.2238,-6.5062,-6.6943,-6.7084,-6.8633,-6.9888,-7.0529,-7.1903,-7.2789,-7.3046,-7.4368,-7.4793,-7.4055,-7.4552,-7.4397,-7.3403,-7.3098,-7.2586,-7.1896,-7.2277,-7.2138,-7.147,-7.2686,-7.3212,-7.3247,-7.3456,-7.3839,-7.428,-7.3714,-7.3856,-7.4434,-7.5479,-7.5896,-7.5896,-7.5896,-7.5543,-7.5208,-7.6228,-7.5903,-7.5168,-7.6026,-7.6093,-7.5836,-7.6203,-7.69,-7.7598,-7.7598,-7.8002,-7.8332,-7.7745,-7.7598,-7.7268,-7.6056,-7.5763,-7.5726,-7.5506,-7.4992,-7.4698,-7.5028,-7.5175,-7.5028,-7.4441,-7.5506,-7.6497,-7.6754,-7.7304,-7.7965,-7.8809,-7.8919,-7.991,-8.248,-8.1819,-8.1305,-8.1525,-8.1195,-7.9947,-7.7457,-7.7934,-7.7897,-7.698,-7.7414,-7.7965,-7.8589,-7.9764,-7.9947,0.0,0.0,0.0,0.0,0.0,0.0,0.0,0.0,0.0,0.0,0.0,0.0,0.0,0.0,0.0,0.0,0.0,0.0,0.0,0.0,0.0,0.0,-5.4735,-5.8334,-6.0069,-6.0912,-6.2369,-6.5058,-6.7393,-6.878,-6.8669,-7.0568,-7.1655,-7.1258,-7.309,-7.4368,-7.4698,-7.5499,-7.5705,-7.5137,-7.444,-7.3859,-7.3354,-7.2547,-7.2065,-7.1862,-7.1752,-7.1395,-7.0872,-7.2088,-7.2631,-7.2665,-7.3283,-7.3832,-7.4155,-7.3889,-7.4018,-7.4462,0.0,0.0,0.0,0.0,-7.4793,-7.4831,-7.5225,-7.5257,-7.5277,-7.6283,-7.6555,-7.6583,-7.7547,-7.8117,-7.8512,-7.8972,-7.9433,-7.958,-7.8809,-7.8589,-7.8259,-7.6937,-7.6607,-7.6533,-7.6166,-7.5469,-7.4955,-7.5065,-7.4735,0.0,-7.378,-7.5028,-7.6203,-7.657,-7.698,-7.7745,-7.8956,-7.8809,-7.9433,-8.1672,-8.1158,-8.0681,-8.0681,-8.0865,0.0,0.0,0.0,-7.8222,-7.7855,-7.7494,0.0,0.0,0.0,-7.8883,-7.7745,-7.8075,0.0,0.0,-7.646,-7.624,0.0,0.0,0.0,0.0,0.0,0.0,0.0,0.0,0.0,0.0,0.0,0.0,0.0,0.0,0.0,0.0,-5.6934,-6.052,-6.3362,-6.3193,-6.3626,-6.5937,-6.7729,-6.8818,-6.8926,-7.1158,-7.2283,-7.1412,-7.3732,-7.5409,-7.6014,-7.597,0.0,0.0,0.0,-7.1882,-7.192,-7.0237,-6.98,-7.0661,-7.0447,-7.0364,-7.0466,-7.1785,-7.2462,-7.2597,-7.3916,-7.4525,-7.4661,-7.5236,-7.5439,-7.5337,-7.4086,-7.3544,-7.3455,-7.2869,-7.3157,-7.3806,-7.3324,0.0,0.0,-7.587,-7.6408,-7.7232,-7.83,-7.8472,-7.8493,-7.9596,-7.9893,-7.9709,-7.8925,-7.8736,-7.8479,-7.753,-7.7273,-7.7053,-7.6276,-7.5469,-7.4698,-7.3964,-7.3817,-7.3854,-7.3927,-7.5139,-7.6387,-7.7163,-7.7384,-7.8038,-7.958,-7.9176,-7.9066,-7.9947,-7.9433,0.0,-7.8883,-8.0167,-7.9653,-7.646,-7.8295,-7.914,-7.8332,-7.7671,-7.7635,-7.8295,-7.7671,-7.6576,-7.5175,-7.5909,-7.624,-7.624,-7.6974,-7.654,0.0,0.0,0.0,0.0,0.0,0.0,0.0,0.0,0.0,0.0,0.0,0.0,0.0,0.0,0.0,-5.4194,-5.9032,-6.326,-6.5019,-6.5155,-6.5818,-6.7834,-6.9013,-7.0152,-7.1378,-7.2698,-7.3343,-7.2969,-7.5374,-7.6554,-7.5807,-7.6431,-7.6014,-7.4286,-7.3142,-7.2222,-7.1464,-7.106,-7.0961,-7.1148,-7.1096,0.0,-7.1988,-7.2259,-7.2732,-7.3274,-7.3578,-7.4052,-7.4559,-7.4119,-7.3916,-7.395,-7.4255,-7.4018,-7.3581,-7.4243,-7.4086,-7.3809,-7.5265,-7.5514,-7.5376,-7.6891,-7.7483,-7.777,-7.8642,-7.8889,0.0,-8.0154,-8.0476,-8.0291,-7.9751,-7.9543,-7.9176,-7.764,-7.7273,-7.7053,-7.6276,-7.5469,-7.4845,-7.4698,-7.4661,-7.4882,-7.5506,-7.5873,-7.6387,-7.7163,-7.7892,-7.8699,-7.9653,-7.9653,-8.0094,-8.1562,-8.1599,-8.1232,-8.0608,-8.0828,-7.9874,-7.72,-7.7524,-7.7414,-7.6607,-7.7047,-7.7053,-7.6607,-7.7084,-7.7127,-7.6833,-7.698,-7.7053,-7.7053,-7.7237,-7.7127,0.0,0.0,0.0,0.0,0.0,0.0,0.0,0.0,0.0,0.0,0.0,-4.9154,-4.9526,0.0,-5.6494,-5.7239,-6.1434,-6.485,-6.5595,-6.6339,-6.7025,-6.7623,-6.8847,-7.0133,-7.1404,-7.2778,-7.3647,-7.3949,-7.5904,-7.664,-7.5584,-7.5887,-7.5398,-7.399,-7.2699,-7.2056,-7.2056,-7.1546,-7.1546,-7.2056,-7.1546,-7.1515,-7.1887,-7.2597,-7.3138,-7.351,-7.4255,-7.4796,-7.51,-7.4356,-7.3612,-7.2969,-7.3375,-7.351,-7.3535,-7.3683,-7.3367,-7.3085,-7.4102,-7.4695,-7.5273,-7.6552,-7.7243,-7.7754,-7.8716,-7.8618,-7.837,-7.9497,-7.9804,-7.956,-7.8495,-7.859,-7.8711,-7.7437,-7.7541,-7.7965,-7.7928,-7.7304,-7.6754,-7.6754,-7.6423,-7.624,-7.6644,-7.7047,-7.7488,-7.7892,-7.8662,-7.947,-8.0277,-8.0388,-8.0718,-8.1525,-8.1232,-8.0681,-7.9874,-7.9029,-7.8038,-7.679,-7.635,-7.6093,-7.6093,-7.6093,-7.6093,-7.6093,-7.6093,-7.5909,-7.5506,-7.5909,-7.6099,-7.6099,-7.6533,-7.6717,0.0,0.0,0.0,0.0,0.0,0.0,0.0,-4.9357,-5.0574,-5.301,-5.3619,-5.389,-5.4465,-5.7137,-5.9471,-6.0216,-6.3328,-6.5797,-6.6068,-6.7151,-6.7726,-6.732,-6.8819,-7.019,-7.0936,-7.2759,-7.3996,-7.4369,-7.5908,-7.6406,-7.538,-7.5066,-7.4522,-7.3722,-7.2151,-7.1688,-7.2498,-7.1688,-7.1732,-7.2498,-7.1688,-7.1379,-7.1548,-7.2732,-7.3443,-7.3781,-7.4965,-7.5405,-7.5202,-7.4492,-7.3409,-7.2191,-7.2191,-7.2563,-7.3003,-7.2563,-7.2394,-7.2428,-7.2563,-7.358,-7.4887,-7.5473,-7.6154,-7.6952,-7.7867,-7.7588,-7.7204,-7.837,-7.8764,-7.8634,-7.7346,-7.7943,-7.8674,-7.788,-7.8247,-7.8949,-7.9658,-7.8976,-7.8363,-7.8558,-7.8185,-7.7824,-7.7971,-7.8736,-7.9176,-7.8883,-7.9507,-8.0314,-8.1122,-8.1232,-8.1122,-8.0791,-8.0167,-7.9396,-7.8442,-7.7121,-7.635,-7.635,-7.5726,-7.5616,-7.6093,-7.5469,-7.5359,-7.5873,-7.5249,-7.4588,-7.3927,-7.4735,-7.5212,-7.5395,-7.6203,-7.6497,-3.9139,-4.1917,-4.5787,-4.6477,-4.9187,-5.1725,0.0,-5.2435,-5.3078,-5.345,-5.4025,-5.4499,-5.4566,-5.7543,-6.025,-6.1028,-6.37,-6.6136,-6.7455,-6.7793,-6.8132,-6.8774,-7.057,-7.1628,-7.1543,-7.3899,-7.5012,-7.4014,-7.5622,-7.6155,-7.508,-7.4441,-7.3662,-7.2632,-7.1729,-7.1356,-7.1457,-7.1356,-7.1356,-7.1457,-7.1356,-7.165,-7.2293,-7.2462,-7.324,-7.4492,-7.4661,-7.4356,-7.368,-7.2935,-7.2157,-7.1447,-7.1447,-7.1481,-7.1616,-7.2191,-7.2394,-7.2496,-7.3138,-7.3501,-7.3707,-7.3775,-7.4318,-7.4929,-7.5068,-7.5463,-7.6114,-7.7204,-7.7997,-7.8563,-7.8623,-7.9941,-8.1091,-8.0297,-7.9684,-7.9422,-7.9714,-7.838,-7.7391,-7.8395,-7.9103,-7.9727,-8.0461,-8.1269,-8.1305,-7.9874,-8.0351,-8.1158,-8.1966,-8.2076,-8.1525,-8.0094,-7.9837,-7.914,-7.7567,-7.7273,-7.7163,-7.7163,-7.7053,-7.6754,-7.613,-7.6019,-7.5689,-7.5065,-7.4955,-7.4882,-7.4771,-7.5579,-7.635,-7.7053,-7.7928,-7.7928,-4.5714,-4.7084,-4.8696,-5.1326,-5.3145,-5.4499,-5.5344,-5.6156,-5.7205,-5.8964,-5.9911,-6.0554,-6.096,-6.2313,-6.3599,-6.4377,-6.5899,-6.7184,-6.7793,-6.8673,-6.935,-6.9688,-7.1332,-7.2275,-7.1688,-7.3462,-7.4637,-7.4572,-7.58,-7.5814,-7.4237,-7.4016,-7.3258,-7.183,-7.1481,-7.1312,-7.1312,-7.1312,-7.1312,-7.1312,-7.1312,-7.1481,-7.1785,-7.2665,-7.3849,-7.5202,-7.4322,-7.3781,-7.3409,-7.2225,-7.1582,-7.1312,-7.1312,-7.1312,-7.1345,-7.165,-7.1751,-7.1819,-7.2124,-7.2496,-7.2868,-7.2868,-7.3341,-7.395,-7.395,-7.4762,-7.5771,-7.6219,-7.7293,-7.8139,-7.7857,-7.8763,-7.9569,-7.8835,-7.8895,-7.9158,-7.9321,-7.9179,-7.8999,-7.8855,-8.0133,-8.1106,-8.0824,-8.1563,-8.1966,-8.1305,-8.1489,-8.1819,-8.215,-8.2186,-8.1562,-7.9947,-7.936,-7.8626,-7.7384,-7.7273,-7.7273,-7.7273,-7.7273,-7.7127,-7.6827,-7.6827,-7.6644,-7.6283,-7.6283,-7.6093,-7.5616,-7.6423,-7.6974,-7.731,-7.8185,-7.8662,-4.9143,-5.02,-5.0841,-5.4998,-5.663,-5.7577,-5.8829,-5.9708,-6.0926,-6.3328,-6.441,-6.5053,-6.5595,-6.5865,-6.6237,-6.6981,-6.7557,-6.803,-6.847,-6.9485,-7.0263,-7.0466,-7.1789,-7.2475,-7.1958,-7.328,-7.429,-7.4575,-7.5269,-7.4945,-7.3264,-7.3167,-7.2604,-7.1312,-7.1312,-7.1312,-7.1312,-7.1312,-7.1312,-7.1312,-7.1312,-7.1312,-7.1379,-7.2834,-7.3849,-7.4458,-7.3781,-7.324,-7.28,-7.1751,-7.1312,-7.1312,-7.1312,-7.1312,-7.1312,-7.1312,-7.1312,-7.1312,-7.1312,-7.165,-7.209,-7.209,-7.2597,-7.3206,-7.3443,-7.4525,-7.5743,-7.598,-7.713,-7.8179,-7.7638,-7.8276,-7.8954,-7.841,-7.8535,-7.8894,-7.9261,-7.9522,-7.9536,-7.9103,-8.0256,-8.1053,-8.0292,-8.0804,-8.1439,-8.1715,-8.1748,-8.1885,-8.2154,-8.1819,-8.1085,-7.991,-7.8846,-7.8002,-7.7347,-7.7273,-7.7273,-7.7273,-7.7273,-7.7273,-7.7273,-7.7273,-7.7273,-7.7273,-7.7019,-7.6726,-7.6423,-7.6726,-7.7239,-7.8002,-7.8626,-7.947,-4.6318,-4.8805,-5.0949,-5.5595,-5.8964,-6.1332,-6.2076,-6.2821,-6.3599,-6.441,-6.5155,-6.5662,-6.5696,-6.6271,-6.7015,-6.776,-6.7895,-6.8402,-6.9891,-7.0161,-7.0466,-7.1176,-7.1966,-7.2406,-7.2372,-7.3944,-7.4566,-7.3615,-7.3569,-7.3264,-7.2462,-7.1763,-7.1356,-7.1312,-7.1312,-7.1312,-7.1312,-7.1312,-7.1312,-7.1312,-7.1312,-7.1312,-7.1379,-7.2834,-7.2732,-7.1515,-7.2902,-7.2699,-7.1379,-7.1345,-7.1312,-7.1312,-7.1312,-7.1312,-7.1312,-7.1312,-7.1312,-7.1312,-7.1312,-7.1312,-7.1345,-7.1345,-7.1853,-7.2563,-7.3274,-7.4525,-7.5845,-7.6657,-7.7942,-7.9058,-7.9058,-7.9898,-8.0697,-8.0708,-7.9644,-7.8886,-7.9911,-7.8729,-7.7736,-7.8781,-7.9063,-7.9103,-7.9063,-7.9063,-7.9458,-8.0477,-8.0659,-8.1018,-8.2088,-8.0828,-7.9837,-7.98,-7.8332,-7.731,-7.7273,-7.7273,-7.7273,-7.7273,-7.7273,-7.7273,-7.7273,-7.7273,-7.7273,-7.7273,-7.633,-7.633,-7.7237,-7.633,-7.7162,-7.969,-7.9727,-8.0608,-4.8185,-5.1726,-5.5409,-5.9494,-6.1264,-6.2347,-6.3565,-6.441,-6.5019,-6.5256,-6.4343,-6.3666,-6.414,-6.4038,-6.4275,-6.5493,-6.7387,-6.9045,-7.006,-7.0635,-7.121,-7.1954,-7.2259,-7.28,-7.3781,-7.3946,-7.3867,-7.3523,-7.3659,-7.3382,-7.244,-7.2336,-7.1969,-7.1312,-7.1312,-7.1548,-7.2022,-7.2022,-7.2293,-7.2766,-7.2766,-7.3037,-7.351,-7.4018,-7.368,-7.2766,-7.2766,-7.2225,-7.1278,-7.077,-7.0872,-7.1312,-7.1312,-7.1312,-7.1312,-7.1312,-7.1312,-7.1312,-7.1312,-7.1312,-7.1379,-7.1887,-7.2191,-7.2529,-7.3274,-7.4897,-7.6555,-7.6826,-7.8314,-7.9837,-7.9837,-8.0118,-8.019,-7.9166,-7.8552,-7.8045,-7.7354,-7.7278,-7.7204,-7.6882,-7.7992,-7.8781,-7.7992,-7.8494,-7.9341,-8.044,-8.1195,-8.1782,-8.2154,-8.0791,-7.98,-7.98,-7.8295,-7.7273,-7.7273,-7.7273,-7.7273,-7.7273,-7.7273,-7.7273,-7.7273,-7.7273,-7.6988,-7.633,-7.5993,-7.5614,-7.5299,-7.5512,-7.6661,-7.8727,-7.9342,-8.0521,-5.142,-5.4825,-5.8089,-6.2167,-6.3193,-6.3497,-6.4715,-6.5358,-6.5764,-6.6034,-6.4106,-6.2618,-6.3362,-6.2245,-6.167,-6.3193,-6.5053,-6.6948,-6.8741,-6.962,-7.0669,-7.2225,-7.2868,-7.3443,0.0,-7.3781,-7.3477,-7.3477,-7.342,-7.2961,-7.2067,-7.2156,-7.2106,-7.1684,-7.1684,-7.2056,-7.28,-7.28,-7.3003,-7.3477,-7.3477,-7.3883,-7.4593,-7.4322,-7.3815,-7.3071,-7.2326,-7.1582,-7.0872,-7.0398,-7.0635,-7.1312,-7.1312,-7.1312,-7.1312,-7.1312,-7.1312,-7.1312,-7.1312,-7.1481,-7.1785,-7.2259,-7.2563,-7.2935,-7.368,-7.5303,-7.6961,-7.7198,-7.8686,-8.0209,-8.0209,-8.0006,-7.9498,-7.828,-7.7773,-7.7266,-7.598,-7.6219,-7.6508,-7.5818,-7.6837,-7.7598,-7.6837,-7.765,-7.8659,-7.9341,-8.033,-8.1334,-8.2121,-8.0791,-7.98,-7.98,-7.8295,-7.7273,-7.7273,-7.7273,-7.7273,-7.7273,-7.7273,-7.715,-7.6793,-7.6761,-7.6297,-7.5299,-7.4903,-7.4757,-7.483,-7.4995,-7.6371,-7.8797,-7.9376,-8.0555,-5.5534,-5.7891,-5.9118,-6.3573,-6.4647,-6.485,-6.5561,-6.5764,-6.5899,-6.6474,-6.4241,-6.2347,0.0,0.0,-5.9573,-6.1129,-6.1637,-6.3125,-6.6677,-6.776,-6.9248,0.0,0.0,0.0,0.0,0.0,-7.3477,-7.3443,-7.2766,-7.2056,-7.1345,-7.1345,-7.1684,-7.2394,-7.2428,-7.28,-7.3544,-7.3578,-7.3612,-7.3612,-7.3612,-7.3984,-7.4627,-7.3883,-7.3105,-7.236,-7.1718,-7.0973,-7.0263,-7.0297,-7.0737,-7.1379,-7.1312,-7.1312,-7.1312,-7.1345,-7.1379,-7.1379,-7.1413,-7.1853,-7.2428,-7.2496,-7.2969,-7.368,-7.4424,-7.5743,-7.7096,-7.7773,-7.9058,-8.0209,-8.0209,-7.9701,-7.8957,-7.8179,-7.7468,-7.6724,-7.5879,-7.5709,-7.5709,-7.5709,-7.5709,-7.5709,-7.5709,-7.6554,-7.7248,-7.7292,-7.8245,-7.9691,-8.1815,-8.0695,-7.9705,-7.97,-7.8207,-7.7217,-7.7212,-7.7212,-7.7212,-7.7212,-7.7212,-7.6761,-7.5753,-7.5718,-7.5263,-7.4234,-7.3292,-7.3733,-7.5649,-7.4719,-7.6123,-7.9658,-7.9769,-8.0612,-5.6869,-6.0217,-6.3256,-6.4978,-6.5425,-6.5595,-6.6339,-6.6542,-6.5967,-6.3937,-6.1129,-5.8592,-5.7137,-5.849,-6.0317,-6.1873,-6.6305,0.0,-7.1582,-7.1954,0.0,-7.3883,0.0,-7.4525,-7.4356,-7.3815,0.0,-7.2732,-7.1988,-7.1515,-7.1312,-7.1819,-7.2225,-7.2394,-7.2935,-7.3578,-7.4322,-7.4864,-7.5134,-7.5134,-7.5134,-7.5236,-7.5405,-7.4661,-7.3612,-7.2428,-7.2766,-7.2225,-7.1075,-7.1616,-7.1954,-7.2056,-7.1515,-7.1312,-7.1379,-7.1921,-7.2124,-7.2191,-7.2732,-7.2699,-7.2597,-7.368,-7.4187,-7.4458,-7.5202,-7.6487,-7.7739,-7.7942,-7.9058,-8.0209,-8.0209,-8.0073,-7.96,-7.828,-7.7841,-7.7333,-7.598,-7.5709,-7.5709,-7.5709,-7.5709,-7.5709,-7.5709,-7.596,-7.6404,-7.716,-7.752,-7.85,-8.0732,-7.9429,-7.8383,-7.8591,-7.6984,-7.5944,-7.6167,-7.6161,-7.6161,-7.6161,-7.6161,-7.5718,-7.472,-7.4684,-7.4196,-7.3212,-7.2921,-7.305,-7.3536,-7.3891,-7.5334,-7.7717,-7.8985,-8.0198,-6.0237,-6.3107,-6.5256,-6.6,-6.617,-6.5967,-6.5087,-6.4884,-6.4005,-6.1028,-5.8051,-5.5683,-5.4769,-5.6562,-5.866,0.0,0.0,0.0,-7.1278,-7.1819,-7.2699,0.0,-7.4627,0.0,-7.4153,-7.3443,-7.2699,-7.1988,-7.1548,-7.1447,-7.1785,-7.2191,-7.2699,-7.3341,-7.3781,-7.4356,-7.51,-7.5506,-7.5709,-7.5709,-7.5709,-7.5879,-7.6183,-7.4762,-7.3849,-7.3308,-7.2428,-7.1954,-7.1785,-7.1887,-7.2293,-7.2834,-7.2428,-7.2259,-7.2326,-7.2732,-7.2868,-7.2969,-7.3713,-7.3713,-7.351,-7.4356,-7.483,-7.5168,-7.5574,-7.6758,-7.7976,-7.7976,-7.9058,-8.0209,-8.0209,-8.0209,-7.9904,-7.8754,-7.8483,-7.8077,-7.6555,-7.6217,-7.6115,-7.5777,-7.5709,-7.5709,-7.5709,-7.5709,-7.5913,-7.6508,-7.6599,-7.7204,-7.8908,-7.8071,-7.7302,-7.7481,-7.5962,-7.4959,-7.512,-7.512,-7.512,-7.512,-7.512,-7.4684,-7.3655,-7.365,-7.3206,-7.2185,-7.2582,-7.3044,-7.3452,-7.4702,-7.6333,-7.8277,-7.9587,-8.0625,-6.4052,-6.5764,-6.6,-6.6643,-6.6812,-6.6034,-6.3057,-6.2381,-6.1434,-5.8017,-5.5277,-5.3585,-5.3788,-5.4871,-5.6292,-5.8051,0.0,-6.5392,-6.9147,-7.0229,-7.1582,-7.4153,-7.4458,-7.4153,-7.3409,-7.2766,-7.209,-7.1379,-7.1413,-7.1751,-7.236,-7.2597,-7.3308,-7.4695,-7.4762,-7.5067,-7.5676,-7.5709,-7.5709,-7.5709,-7.5709,-7.6082,-7.6657,-7.4492,-7.3849,-7.4322,-7.1751,-7.1345,-7.2496,-7.1954,-7.2496,-7.3612,-7.351,-7.3477,-7.351,-7.3612,-7.3646,-7.3747,-7.4492,-7.4762,-7.4762,-7.4762,-7.5202,-7.5709,-7.5709,-7.6758,-7.7976,-7.7976,-7.9058,-8.0209,-8.0209,-8.0209,-8.0006,-7.9295,-7.9126,-7.872,-7.7333,-7.6961,-7.669,-7.598,-7.5777,-7.5709,-7.5709,-7.5709,-7.5709,-7.5709,-7.5709,-7.602,-7.6972,-7.672,-7.6468,-7.6415,-7.5059,-7.4174,-7.4117,-7.4082,-7.4082,-7.4082,-7.4082,-7.3685,-7.2804,-7.2658,-7.2262,-7.1447,-7.2322,-7.3305,-7.4487,-7.623,-7.8044,-7.98,-8.0718,-8.1489,-6.4807,-6.6136,-6.6643,-6.6779,-6.6812,-6.6034,-6.3057,-6.2381,0.0,0.0,-5.3856,-5.2773,-5.0405,-5.3112,-5.6799,-6.0148,-6.4343,-6.8436,-7.2191,-7.2834,-7.3105,0.0,-7.368,-7.3409,-7.2665,-7.2462,0.0,-7.1379,-7.1853,-7.2259,-7.2394,-7.3578,-7.4627,-7.5473,-7.5506,-7.5574,-7.5709,-7.5709,-7.5709,-7.5709,-7.5709,-7.5777,-7.5845,-7.4221,-7.3544,-7.3646,-7.3138,-7.3071,-7.3341,-7.3849,-7.4187,-7.4356,-7.3713,-7.3477,-7.3544,-7.4187,-7.4424,-7.4525,-7.5236,-7.5506,-7.5506,-7.5506,-7.5608,-7.5709,-7.5709,-7.6758,-7.7976,-7.7976,-7.9058,-8.0209,-8.0209,-8.0209,-8.0006,-7.9295,-7.9126,-7.8855,-7.7976,-7.7333,-7.686,-7.6724,-7.6149,-7.5709,-7.5709,-7.5709,-7.5709,-7.5709,-7.5709,-7.5771,-7.5926,-7.5922,-7.5708,-7.54,-7.4316,-7.3489,-7.3107,-7.305,-7.305,-7.305,-7.305,-7.29,-7.2484,-7.1896,-7.1773,-7.2191,-7.2372,-7.3387,-7.5304,-7.6876,-7.8423,-7.9869,-8.1305,-8.1709,-6.4883,-6.6009,-6.6812,-6.6812,-6.6812,-6.5628,-6.1095,0.0,0.0,-5.2401,-5.115,-5.071,-4.9255,-5.2367,0.0,-5.8051,-6.3734,-6.8538,-7.0331,-7.2597,-7.3916,-7.3544,-7.3138,-7.28,-7.2428,-7.2056,-7.1684,-7.1345,-7.2326,-7.2969,-7.2969,-7.4356,-7.5337,-7.5676,-7.5709,-7.5709,-7.5709,-7.5709,-7.5709,-7.5709,-7.5709,-7.5506,-7.51,-7.3984,-7.3477,-7.3477,-7.3071,-7.3341,-7.4086,-7.4458,-7.483,-7.5134,-7.4762,-7.4627,-7.4695,-7.5033,-7.5168,-7.5236,-7.5574,-7.5709,-7.5709,-7.5709,-7.5709,-7.5709,-7.5709,-7.6758,-7.7976,-7.7976,-7.9058,-8.0209,-8.0209,-8.0209,-8.0107,-7.9769,-7.9397,-7.9025,-7.8653,-7.7705,-7.6893,-7.6893,-7.6251,-7.5709,-7.5709,-7.5709,-7.5709,-7.5709,-7.5709,-7.5709,-7.5709,-7.5709,-7.5472,-7.4911,-7.4048,-7.3402,-7.3167,-7.3176,-7.3176,-7.3176,-7.3176,-7.2911,-7.2394,-7.2056,-7.2056,-7.2394,-7.2922,-7.3851,-7.5248,-7.6971,-7.8409,-7.9624,-8.0788,-8.1462,-6.4527,-6.5855,-6.6812,-6.6812,-6.6812,-6.5256,-5.9235,-5.7881,0.0,-5.0236,-4.9018,-4.9018,-4.9018,-5.142,-5.3856,0.0,-6.0994,-6.5831,-6.7455,-7.0838,-7.3206,0.0,-7.2732,0.0,-7.2191,-7.165,0.0,-7.1312,-7.2665,-7.3612,-7.395,-7.5067,-7.5709,-7.5709,-7.5709,-7.5709,-7.5709,-7.5709,-7.5709,-7.5709,-7.5709,-7.5303,-7.4593,-7.3984,-7.3646,-7.3477,-7.3037,-7.3544,-7.4627,-7.4796,-7.5168,-7.5709,-7.5709,-7.5709,-7.5709,-7.5709,-7.5709,-7.5709,-7.5709,-7.5709,-7.5709,-7.5709,-7.5709,-7.5709,-7.5709,-7.6758,-7.7976,-7.7976,-7.9058,-8.0209,-8.0209,-8.0209,-8.0209,-8.0209,-7.9769,-7.9363,-7.9363,-7.8314,-7.7367,-7.7367,-7.6623,-7.5946,-7.5946,-7.5811,-7.5709,-7.5709,-7.5709,-7.5709,-7.5709,-7.5709,-7.5473,-7.4897,-7.4187,-7.3646,-7.351,-7.3477,-7.3477,-7.3477,-7.3477,-7.3308,-7.2902,-7.2732,-7.2699,-7.2868,-7.3631,-7.4481,-7.5249,-7.69,-7.8338,-7.9684,-8.0298,-8.116,-6.392,-6.5855,-6.6812,-6.6812,-6.6812,-6.5256,-5.9235,0.0,-5.619,-5.0236,-4.9018,-4.9018,-4.9018,-4.9289,-5.0642,0.0,-5.5886,-5.9201,-6.5967,-6.7827,-6.9519,-7.2191,0.0,0.0,-7.1481,-7.1345,-7.1312,-7.1312,-7.2665,-7.4086,-7.5439,-7.5642,-7.5709,-7.5709,-7.5709,-7.5709,-7.5709,-7.5709,-7.5709,-7.5709,-7.5709,-7.5303,-7.4627,-7.4559,-7.4119,-7.351,-7.4153,-7.4492,-7.4661,-7.5337,-7.5642,-7.5709,-7.5709,-7.5709,-7.5709,-7.5709,-7.5709,-7.5709,-7.5709,-7.5709,-7.5709,-7.5709,-7.5709,-7.5709,-7.5709,-7.6758,-7.7976,-7.7976,-7.9058,-8.0209,-8.0209,-8.0209,-8.0209,-8.0209,-8.0141,-8.0107,-8.0107,-7.9464,-7.8923,-7.8923,-7.7773,-7.6792,-7.6792,-7.6183,-7.5709,-7.5709,-7.5709,-7.5709,-7.5709,-7.5709,-7.5676,-7.5608,-7.4931,-7.4221,-7.3544,-7.3477,-7.3477,-7.3477,-7.3477,-7.3747,-7.439,-7.3747,-7.3713,-7.439,-7.4484,-7.506,-7.6054,-7.6938,-7.8436,-8.0478,-8.0587,-8.116,-6.2125,-6.4059,-6.5646,-6.5646,-6.4271,-6.2073,-5.868,0.0,-5.4059,-4.9864,-4.9018,-4.9018,-4.9018,-4.9018,-4.9492,-5.098,-5.3754,-5.6729,-5.9708,-6.2719,-6.5696,-6.8673,-6.9045,0.0,0.0,0.0,-7.1684,-7.2563,-7.3578,-7.4627,-7.5642,-7.5709,-7.5709,-7.5709,-7.5709,-7.5709,-7.5709,-7.5709,-7.5709,-7.5709,-7.6183,-7.554,-7.395,-7.4864,-7.4627,-7.3544,-7.4289,-7.4864,-7.527,-7.5574,-7.5709,-7.5709,-7.5709,-7.5709,-7.5709,-7.5709,-7.5709,-7.5709,-7.5709,-7.5709,-7.5709,-7.5709,-7.5709,-7.5709,-7.5709,-7.6758,-7.7976,-7.7976,-7.9058,-8.0209,-8.0209,-8.0209,-8.0209,-8.0209,-8.0209,-8.0209,-8.0209,-7.9634,-7.9126,-7.9126,-7.828,-7.7401,-7.6961,-7.6623,-7.6251,-7.5777,-7.5709,-7.5709,-7.5709,-7.5709,-7.5709,-7.5709,-7.5439,-7.5134,-7.483,-7.4796,-7.4796,-7.4796,-7.4796,-7.4762,-7.4627,-7.4322,-7.4289,-7.4593,-7.4627,-7.503,-7.5914,-7.6844,-7.8119,-7.9652,-8.0292,-8.116,-5.9624,-6.2013,-6.446,-6.4778,-6.2651,-5.9961,0.0,0.0,-5.2638,-4.9627,-4.9018,-4.9018,-4.9018,-4.9018,-4.9018,-4.9018,-5.186,-5.4532,-5.5852,-5.893,-6.2245,-6.5459,0.0,-6.6948,-6.9722,-7.0973,-7.2157,-7.3409,-7.4187,-7.4931,-7.5676,-7.5709,-7.5709,-7.5709,-7.5709,-7.5709,-7.5709,-7.5709,-7.5709,-7.5709,-7.6521,-7.5811,-7.3883,-7.5371,-7.5236,-7.3849,-7.4627,-7.5236,-7.5709,-7.5709,-7.5709,-7.5709,-7.5709,-7.5709,-7.5709,-7.5709,-7.5709,-7.5709,-7.5709,-7.5709,-7.5709,-7.5709,-7.5709,-7.5743,-7.598,-7.6961,-7.8044,-7.8247,-7.9228,-8.0209,-8.0209,-8.0209,-8.0209,-8.0209,-8.0209,-8.0209,-8.0209,-7.9803,-7.9431,-7.9431,-7.8822,-7.8145,-7.7638,-7.7198,-7.6724,-7.6149,-7.5845,-7.5709,-7.5709,-7.5709,-7.5709,-7.5709,-7.5709,-7.5709,-7.5709,-7.5709,-7.5709,-7.5709,-7.5709,-7.5473,-7.4965,-7.4931,-7.4931,-7.4931,-7.4931,-7.5202,-7.5709,-7.6792,-7.7907,-7.9023,-8.0107,-8.116,-5.6435,-6.0012,-6.3307,-6.4597,-6.2651,-5.9961,0.0,0.0,-5.2638,-4.9627,-4.9018,-4.9018,-4.9018,-4.9018,-4.9018,-4.9018,-4.9661,-5.1691,-5.6156,-5.7442,-5.9336,0.0,-6.3531,-6.441,-6.6643,-7.0229,-7.2699,-7.3443,-7.4187,-7.4931,-7.5676,-7.5709,-7.5709,-7.5709,-7.5709,-7.5709,-7.5709,-7.5709,-7.5709,-7.5709,-7.6521,-7.6082,-7.4661,-7.6183,-7.6048,-7.4661,-7.5371,-7.5676,-7.5709,-7.5709,-7.5709,-7.5709,-7.5709,-7.5709,-7.5709,-7.5709,-7.5709,-7.5709,-7.5709,-7.5709,-7.5709,-7.5709,-7.5709,-7.5845,-7.6657,-7.7401,-7.8145,-7.8889,-7.9634,-8.0209,-8.0209,-8.0209,-8.0209,-8.0209,-8.0209,-8.0209,-8.0209,-8.0175,-8.0175,-8.0175,-7.96,-7.9092,-7.9092,-7.7874,-7.6893,-7.6893,-7.6217,-7.5709,-7.5709,-7.5709,-7.5709,-7.5709,-7.5709,-7.5709,-7.5709,-7.5709,-7.5709,-7.5709,-7.5709,-7.5709,-7.5676,-7.5676,-7.5676,-7.5676,-7.5676,-7.5676,-7.5709,-7.6792,-7.7907,-7.9023,-8.0107,-8.116,-5.2581,-5.4638,-5.6536,-5.7592,-5.5601,-5.363,-5.4655,0.0,-5.0168,-4.9187,-4.9018,-4.9018,-4.9018,-4.9018,-4.9018,-4.9018,-4.9627,-5.0777,0.0,0.0,0.0,-6.3057,-6.7117,-6.9654,-6.9857,-7.1853,-7.324,-7.3477,-7.4661,-7.5439,-7.5676,-7.5709,-7.5709,-7.5709,-7.5709,-7.5709,-7.5709,-7.5709,-7.598,-7.6521,-7.7299,-7.6826,-7.5405,-7.6927,-7.6521,-7.4661,-7.5371,-7.5709,-7.5709,-7.5709,-7.5709,-7.5709,-7.5709,-7.5709,-7.5709,-7.5709,-7.5709,-7.5709,-7.5709,-7.5709,-7.5709,-7.5709,-7.6082,-7.6657,-7.7401,-7.7807,-7.8247,-7.9498,-8.0006,-8.0209,-8.0209,-8.0209,-8.0209,-8.0209,-8.0209,-8.0209,-8.0209,-8.0209,-8.0209,-8.0209,-8.0006,-7.9701,-7.9194,-7.872,-7.8077,-7.7063,-7.669,-7.6318,-7.5777,-7.5709,-7.5709,-7.5709,-7.5709,-7.5709,-7.5709,-7.5709,-7.5709,-7.5709,-7.5709,-7.5709,-7.5709,-7.5709,-7.5709,-7.5709,-7.5709,-7.5709,-7.5709,-7.6792,-7.8252,-8.0107,-8.044,-8.116,-4.9208,-5.1061,-5.2767,-5.4253,-5.2324,-5.0709,-5.2973,-5.1183,-4.9018,-4.9018,-4.9018,-4.9018,-4.9018,-4.9018,-4.9086,-4.9357,-4.9796,-5.0947,-5.3382,0.0,0.0,-6.3057,-6.776,-7.0398,-6.9688,-7.1954,-7.3477,-7.3477,-7.4864,-7.5709,-7.5709,-7.5709,-7.5709,-7.5709,-7.5709,-7.5709,-7.5709,-7.5709,-7.6115,-7.6893,-7.7638,-7.7333,-7.6183,-7.7435,-7.6893,-7.5033,-7.5506,-7.5709,0.0,-7.5709,-7.5709,-7.5709,-7.5709,-7.5709,-7.5709,-7.5709,-7.5709,-7.5709,-7.5709,-7.5709,-7.5709,-7.5709,-7.642,-7.7435,-7.8179,-7.8619,-7.9025,-7.9938,-8.0209,-8.0209,-8.0209,-8.0209,-8.0209,-8.0209,-8.0209,-8.0209,-8.0209,-8.0209,-8.0209,-8.0209,-8.0209,-8.004,-7.96,-7.9295,-7.8788,-7.7874,-7.7266,-7.6724,-7.6217,-7.5879,-7.5709,-7.5709,-7.5709,-7.5709,-7.5709,-7.5709,-7.5709,-7.5709,-7.5709,-7.5709,-7.5709,-7.5709,-7.5709,-7.5709,-7.5709,-7.5709,-7.5709,-7.6792,-7.821,-7.9994,-7.9994,-8.055,0.0,-4.8805,-5.1152,-5.3439,-5.1877,-5.0419,-5.2671,-5.1014,0.0,-4.9018,-4.9018,-4.9018,-4.9018,-4.9052,-4.9289,-4.9965,-5.0168,-5.2029,-5.7171,-5.8389,-6.0148,-6.3869,-6.6677,-6.7996,-6.7286,-7.1007,-7.3477,-7.3477,-7.4864,-7.5709,-7.5709,-7.5709,-7.5709,-7.5709,-7.5709,-7.5709,-7.5709,-7.5709,-7.6115,-7.6995,-7.7671,-7.7638,-7.6995,-7.7671,-7.7164,-7.5709,-7.5709,-7.5709,-7.5709,-7.5709,-7.5709,-7.5709,-7.5709,-7.5709,-7.5709,-7.5709,-7.5709,-7.5709,-7.5709,-7.5709,-7.5709,-7.5811,-7.6826,-7.8145,-7.8957,-7.9667,-8.0209,-8.0209,-8.0209,-8.0209,-8.0209,-8.0209,-8.0209,-8.0209,-8.0209,-8.0209,-8.0209,-8.0209,-8.0209,-8.0209,-8.0209,-8.0209,-8.0209,-7.9634,-7.916,-7.9126,-7.7942,-7.7029,-7.6995,-7.6284,-7.5777,-7.5777,-7.5743,-7.5709,-7.5709,-7.5709,-7.5709,-7.5709,-7.5709,-7.5709,-7.5709,-7.5709,-7.5709,-7.5709,-7.5709,-7.5709,-7.5709,-7.6701,-7.7779,-7.8903,-7.8943,-7.9536,-4.4067,0.0,-4.5616,-4.7674,-4.7645,-4.7629,0.0,-4.9526,-4.9018,-4.9018,-4.9018,-4.9018,-4.9018,-4.9458,-4.9898,-5.0067,-5.1048,-5.3213,-5.7306,-6.3328,-6.847,-7.1616,-7.2124,-7.1887,-7.1176,-7.2529,-7.3477,-7.3477,-7.4864,-7.5709,-7.5709,-7.5709,-7.5709,-7.5709,-7.5709,-7.5709,-7.5709,-7.5709,-7.6386,-7.7739,-7.7908,-7.7908,-7.7739,-7.7908,-7.7164,-7.5709,-7.5709,-7.5709,-7.5709,-7.5709,-7.5709,-7.5709,-7.5709,-7.5709,-7.5709,-7.5709,-7.5709,-7.5709,-7.5709,-7.5709,-7.5879,-7.7063,-7.7671,-7.8247,-7.9532,-8.0073,-8.0209,-8.0209,-8.0209,-8.0209,-8.0209,-8.0209,-8.0209,-8.0209,-8.0209,-8.0209,-8.0209,-8.0209,-8.0209,-8.0209,-8.0209,-8.0209,-8.0209,-8.0073,-7.9769,-7.9194,-7.8822,-7.8382,-7.7807,-7.7063,-7.6623,-7.6623,-7.6082,-7.5709,-7.5709,-7.5709,-7.5709,-7.5709,-7.5709,-7.5709,-7.5709,-7.5709,-7.5709,-7.5709,-7.5709,-7.5709,-7.5709,-7.5926,-7.6645,-7.7736,-7.8618,-7.9215,-4.329,-4.3615,-4.4358,-4.5818,-4.6523,-4.7239,-4.8671,-4.9018,-4.9018,-4.9018,-4.9018,-4.912,-4.9424,-4.983,-5.0304,-5.098,-5.3213,-5.6292,0.0,0.0,-6.8605,-7.121,-7.1176,-7.1312,-7.2293,-7.3071,-7.3612,-7.3984,-7.5067,-7.5709,-7.5709,-7.5709,-7.5709,-7.5709,-7.5709,-7.5709,-7.5709,-7.6082,-7.6826,-7.7976,-7.8348,-7.8314,-7.7976,-7.7976,-7.7164,-7.5709,-7.5709,-7.5709,-7.5709,-7.5709,-7.5709,-7.5709,-7.5709,-7.5709,-7.5709,-7.5709,-7.5709,-7.5709,-7.5709,-7.5946,-7.6454,-7.7604,-7.8213,-7.872,-7.987,-8.0209,-8.0209,-8.0209,-8.0209,-8.0209,-8.0209,-8.0209,-8.0209,-8.0209,-8.0209,-8.0209,-8.0209,-8.0209,-8.0209,-8.0209,-8.0209,-8.0209,-8.0209,-8.0209,-8.0073,-7.9667,-7.9329,-7.8957,-7.8551,-7.7841,-7.7401,-7.7401,-7.669,-7.6251,-7.6251,-7.5912,-7.5709,-7.5709,-7.5709,-7.5709,-7.5709,-7.5709,-7.5709,-7.5709,-7.5709,-7.5709,-7.5709,-7.5709,-7.6266,-7.7336,-7.7523,-7.8284,-4.329,-4.4347,-4.5497,-4.5873,-4.6558,-4.7473,-4.8545,-4.8798,-4.8863,-4.9123,-4.9187,-4.939,-5.0135,-5.0338,-5.0845,-5.2097,-5.6021,-6.0452,-6.485,-6.5831,-6.6812,-6.8707,-6.8707,-6.962,-7.2293,-7.3105,-7.3815,-7.4559,-7.527,-7.5709,-7.5709,-7.5709,-7.5709,-7.5709,-7.5811,-7.5879,-7.5879,-7.6555,-7.7333,-7.8179,-7.8822,-7.872,-7.7976,-7.7976,-7.7164,-7.5709,-7.5709,-7.5709,-7.5709,-7.5709,-7.5709,-7.5709,-7.5709,-7.5709,-7.5709,-7.5709,-7.5709,-7.5709,-7.5845,-7.6318,-7.7029,-7.7874,-7.8585,-7.9261,-7.9972,-8.0209,-8.0209,-8.0209,-8.0209,-8.0209,-8.0209,-8.0209,-8.0209,-8.0209,-8.0209,-8.0209,-8.0209,-8.0209,-8.0209,-8.0209,-8.0107,-8.0073,-8.0175,-8.0107,-8.0073,-8.0175,-7.9667,-7.9295,-7.9295,-7.8619,-7.8145,-7.8145,-7.7502,-7.7063,-7.7063,-7.6352,-7.5879,-7.5879,-7.5777,-7.5709,-7.5709,-7.5709,-7.5709,-7.5709,-7.5574,-7.554,-7.554,-7.5405,-7.5832,-7.6726,-7.634,-7.7092,-4.329,-4.5647,-4.7614,-4.5521,-4.5116,-4.567,-4.7406,-4.7803,-4.823,-4.9637,-4.9932,-5.0168,-5.0913,-5.1555,-5.2029,-5.2266,-5.8626,-6.4918,-6.8774,-7.1481,-7.3206,-7.3544,-7.2462,-7.2124,-7.3206,-7.3409,-7.3815,-7.4559,-7.527,-7.5709,-7.5709,-7.5709,-7.5709,-7.5709,-7.6352,-7.6724,-7.6724,-7.6826,-7.757,-7.8923,-7.9058,-7.872,-7.7976,-7.7976,-7.7164,-7.5709,-7.5709,-7.5709,-7.5709,-7.5709,-7.5709,-7.5709,-7.5709,-7.5709,-7.5709,-7.5709,-7.5709,-7.5811,-7.6487,-7.6792,-7.713,-7.8483,-7.9025,-7.9261,-7.9972,-8.0209,-8.0209,-8.0209,-8.0209,-8.0209,-8.0209,-8.0209,-8.0209,-8.0209,-8.0209,-8.0209,-8.0209,-8.0209,-8.0209,-8.0209,-7.9701,-7.9464,-8.0073,-7.9701,-7.9498,-8.0107,-8.0107,-8.004,-8.004,-7.9397,-7.8923,-7.8923,-7.828,-7.7807,-7.7807,-7.713,-7.6724,-7.6724,-7.6082,-7.5709,-7.5709,-7.5709,-7.5709,-7.5709,-7.51,-7.4796,-7.4796,-7.4119,-7.3908,-7.415,-7.577,-7.6356,-4.329,-4.4519,-4.6032,-4.6974,-4.9671,-5.2165,-5.2613,-5.4243,-5.512,-5.3484,-5.345,-5.3315,-5.2029,-5.3721,-5.6765,-6.1231,-6.3463,-6.5899,-6.9654,-6.9282,-6.9214,-7.0804,-7.0398,-7.0906,-7.324,-7.3849,-7.439,-7.5134,-7.5506,-7.5709,-7.5709,-7.5709,-7.5912,-7.6318,-7.6724,-7.7299,-7.8077,-7.8111,-7.845,-7.9126,-7.9498,-7.9092,-7.7976,-7.7976,-7.7164,-7.5709,-7.5709,-7.5709,-7.5709,-7.5709,-7.5709,-7.5709,-7.5709,-7.5709,-7.5709,-7.5709,-7.5709,-7.5811,-7.6623,-7.7164,-7.7671,-7.8754,-7.9397,-7.9769,-8.0107,-8.0209,-8.0276,-8.0682,-8.0513,-8.0209,-8.0209,-8.0209,-8.0209,-8.0209,-8.0209,-8.0209,-8.0209,-8.0209,-8.0209,-8.0209,-7.9938,-7.9667,-7.9634,-7.9329,-7.9228,-7.9566,-7.9634,-7.9769,-8.0141,-7.9566,-7.9126,-7.9126,-7.8077,-7.7401,-7.7401,-7.669,-7.6251,-7.6251,-7.5912,-7.5506,-7.5134,-7.51,-7.4931,-7.4525,-7.4187,-7.4018,-7.3984,-7.3646,-7.381,-7.4381,-7.5434,-7.6065,-4.329,-4.3738,-4.5076,-4.8558,-5.2376,-5.5718,-5.7184,-5.9186,-6.0155,-5.798,-5.7692,-5.6969,-5.4051,-5.5582,-5.9761,-6.7315,-6.6767,-6.6742,-7.0658,-6.8132,-6.6677,-6.8944,-6.9045,-7.0297,-7.368,-7.4356,-7.5067,-7.6149,-7.6082,-7.6048,-7.6217,-7.6217,-7.6521,-7.713,-7.7333,-7.7976,-7.9092,-7.9295,-7.9363,-7.9363,-7.9938,-7.9431,-7.7976,-7.7976,-7.7164,-7.5709,-7.5709,-7.5709,-7.5709,-7.5709,-7.5709,-7.5709,-7.5709,-7.5709,-7.5709,-7.5912,-7.598,-7.6115,-7.7096,-7.7773,-7.8382,-7.9126,-7.987,-8.0445,-8.0445,-8.0581,-8.0818,-8.1393,-8.1021,-8.0445,-8.0445,-8.0445,-8.0412,-8.0242,-8.0209,-8.0209,-8.0209,-8.0209,-8.0209,-8.0209,-8.0073,-7.9837,-7.9431,-7.9092,-7.8923,-7.9092,-7.8957,-7.9058,-7.96,-7.9194,-7.8855,-7.8855,-7.7841,-7.7096,-7.6927,-7.6352,-7.5912,-7.5709,-7.5709,-7.5439,-7.4897,-7.4695,-7.4322,-7.3747,-7.3409,-7.324,-7.324,-7.3071,-7.3401,-7.4223,-7.4612,-7.5385,-4.329,-4.5125,-4.7478,-4.9289,-4.8239,-4.8891,-5.6869,-5.724,-5.7248,-6.1987,-6.1883,-6.0163,-5.7622,-5.6222,-5.727,-6.2746,-6.594,-6.9296,-7.3662,-7.3409,-7.2834,-7.3071,-7.2496,-7.3003,-7.5303,-7.4965,-7.5506,-7.7671,-7.7198,-7.7096,-7.7773,-7.7807,-7.7841,-7.7908,-7.8585,-7.8991,-7.9126,-7.9769,-8.0107,-8.0107,-8.0175,-7.9431,-7.7976,-7.7976,-7.7164,-7.5709,-7.5709,-7.5709,-7.5709,-7.5709,-7.5709,-7.5709,-7.5709,-7.5709,-7.5777,-7.6555,-7.6826,-7.7029,-7.845,-7.8991,-7.916,-7.987,-8.0615,-8.119,-8.119,-8.1697,-8.2272,-8.2306,-8.1799,-8.119,-8.119,-8.119,-8.1021,-8.0344,-8.0209,-8.0209,-8.0209,-8.0209,-8.0209,-8.0209,-7.9667,-7.9397,-8.0006,-7.8991,-7.8314,-7.9025,-7.8517,-7.8077,-7.8145,-7.8111,-7.8077,-7.8077,-7.7976,-7.7638,-7.6961,-7.686,-7.6487,-7.5743,-7.5709,-7.5676,-7.5608,-7.4965,-7.4593,-7.4525,-7.3172,-7.2462,-7.2462,-7.1785,-7.1526,-7.1582,-7.2552,-7.3522,-4.329,-4.5873,-4.8819,-4.9821,-5.01,-5.2363,-6.07,-6.3637,-6.4807,-6.5459,-6.5532,-6.4407,-6.0874,-6.186,-6.4224,-6.7308,-7.107,-7.409,-7.5783,-7.5371,-7.4864,-7.4864,-7.4627,-7.4965,-7.6318,-7.6589,-7.7063,-7.7908,-7.7739,-7.7705,-7.7976,-7.7976,-7.8213,-7.8686,-7.8957,-7.9329,-7.9769,-8.0073,-8.0209,-8.0209,-8.0209,-7.9431,-7.7976,-7.7976,-7.7164,-7.5709,-7.5709,-7.5709,-7.5709,-7.5709,-7.5709,-7.5709,-7.5709,-7.6014,-7.6487,-7.6792,-7.7198,-7.7739,-7.8754,-7.9126,-7.9295,-8.0479,-8.1054,-8.1359,-8.1832,-8.2171,-8.2408,-8.2408,-8.2205,-8.1866,-8.1393,-8.0953,-8.0547,-8.0276,-8.0209,-8.0209,-8.0209,-8.0209,-8.0209,-8.0209,-7.9972,-7.9735,-7.9566,-7.9058,-7.8788,-7.9058,-7.8483,-7.8145,-7.8619,-7.7874,-7.7299,-7.7299,-7.686,-7.6454,-7.6183,-7.6149,-7.6014,-7.5709,-7.5709,-7.5506,-7.5033,-7.4762,-7.4187,-7.324,-7.2699,-7.2191,-7.1718,-7.1447,-7.1312,-7.1312,-7.2321,-7.3332,-4.329,-4.5454,-4.8205,-5.0246,-5.1756,-5.4934,-6.3279,-6.6232,-6.7438,-6.8144,-6.7653,-6.6103,-6.2871,-6.514,-6.8059,-6.9714,-7.3508,-7.6138,-7.5903,-7.5198,-7.4567,-7.4323,-7.4736,-7.5518,-7.6759,-7.7561,-7.8179,-7.8653,-7.8483,-7.845,-7.8653,-7.8686,-7.8923,-7.9431,-7.9464,-7.9701,-8.0209,-8.0209,-8.0209,-8.0209,-8.0209,-7.9431,-7.7976,-7.7976,-7.7164,-7.5709,-7.5709,-7.5709,-7.5709,-7.5709,-7.5709,-7.5709,-7.598,-7.642,-7.6961,-7.7435,-7.7908,-7.845,-7.9194,-7.9464,-7.9634,-8.0615,-8.1257,-8.1697,-8.1968,-8.2374,-8.2712,-8.2475,-8.2238,-8.1934,-8.1426,-8.0919,-8.0378,-7.9614,-7.9443,-7.9632,-8.0074,-7.9785,-7.9632,-8.0074,-8.0209,-8.004,-7.9532,-7.9261,-7.9126,-7.9126,-7.8483,-7.8077,-7.8382,-7.7536,-7.6792,-7.6555,-7.6014,-7.5709,-7.5709,-7.5709,-7.5709,-7.5709,-7.5709,-7.5473,-7.4965,-7.4728,-7.4153,-7.3105,-7.2631,-7.2157,-7.165,-7.1413,-7.1312,-7.1312,-7.2013,-7.3044,-4.329,-4.3828,-4.5582,-5.0562,-5.2365,-5.516,-6.3816,-6.3258,-6.294,-6.998,-6.8107,-6.4789,-6.3367,-6.4958,-6.6901,-6.8272,-7.1994,-7.4423,-7.3665,-7.294,-7.2097,-7.1292,-7.2632,-7.4437,-7.6577,-7.7547,-7.8619,-8.0073,-7.9532,-7.9431,-8.0175,-8.0209,-8.0209,-8.0209,-8.0209,-8.0209,-8.0209,-8.0209,-8.0209,-8.0209,-8.0209,-7.9431,-7.7976,-7.7976,-7.7164,-7.5709,-7.5709,-7.5709,-7.5709,-7.5709,-7.5709,-7.5777,-7.6589,-7.6927,-7.7096,-7.8585,-7.9126,-7.9228,-7.9938,-8.0209,-8.0209,-8.0209,-8.119,-8.2272,-8.1528,-8.2306,-8.3321,-8.2611,-8.1866,-8.1291,-8.1257,-8.1257,-8.0695,-7.8457,-7.7882,-7.8291,-7.9836,-7.8993,-7.8345,-7.9836,-8.0158,-8.0158,-8.0209,-7.955,-7.9076,-7.9126,-7.8483,-7.7739,-7.6995,-7.6893,-7.6589,-7.5777,-7.5709,-7.5709,-7.5709,-7.5709,-7.5709,-7.5709,-7.5709,-7.5709,-7.5709,-7.4999,-7.4627,-7.4627,-7.3172,-7.2428,-7.2394,-7.1684,-7.1312,-7.1312,-7.1312,-7.2406,-4.3898,-4.7908,-5.1892,-5.1498,-5.5379,-6.0046,-6.2604,-6.4162,-6.6234,-7.038,-6.9448,-6.7155,-6.4844,-6.738,-6.9463,-6.8531,-7.1479,-7.3747,-7.3553,-7.3327,-7.3099,-7.2883,-7.3642,-7.5135,-7.7346,-7.7762,-7.8578,-8.0124,-8.0006,-7.9972,-8.0175,-8.0209,-8.0209,-8.0209,-8.0209,-8.0209,-8.0209,-8.0209,-8.0209,-8.0209,-8.0209,-7.9431,-7.7976,-7.7976,-7.7164,-7.5709,-7.5709,-7.5709,-7.5709,-7.5709,-7.6014,-7.6555,-7.6826,-7.7536,-7.8517,-7.8957,-7.9431,-7.9904,-8.0107,-8.0209,-8.0276,-8.0784,-8.1257,-8.1509,-8.0675,-8.1484,-8.2334,-8.0542,-8.0632,-8.0677,-7.7982,-7.8102,-7.8717,-7.8056,-7.7082,-7.6379,-7.686,-7.6636,-7.6379,-7.686,-7.6971,-7.7303,-7.8398,-7.8392,-7.8607,-7.9719,-7.9261,-7.8314,-7.7063,-7.6893,-7.6589,-7.5777,-7.5709,-7.5709,-7.5709,-7.5709,-7.5709,-7.5709,-7.5709,-7.5709,-7.5709,-7.5506,-7.5134,-7.4627,-7.4187,-7.3443,-7.2394,-7.2191,-7.1819,-7.1312,-7.2013,-7.3044,-4.5424,-4.9494,-5.3473,-5.4491,-5.8441,-6.257,-6.4425,-6.6101,-6.7874,-6.9883,-6.9814,-6.8884,-6.7298,-6.9732,-7.1619,-7.0438,-7.2116,-7.3395,-7.3053,-7.2527,-7.2139,-7.2151,-7.2971,-7.4525,-7.6795,-7.7555,-7.8538,-8.0074,-8.0209,-8.0209,-8.0209,-8.0209,-8.0209,-8.0209,-8.0209,-8.0209,-8.0209,-8.0209,-8.0209,-8.0209,-7.9904,-7.9126,-7.7976,-7.7976,-7.7164,-7.5709,-7.5709,-7.5709,-7.5709,-7.6048,-7.6454,-7.6961,-7.7536,-7.8314,-7.916,-7.9431,-7.9837,-8.0209,-8.0209,-8.0209,-8.0141,-7.9998,-8.0177,-8.0148,-7.8714,-7.9143,-7.9826,-7.8154,-7.8344,-7.8496,-7.6224,-7.581,-7.6006,-7.6095,-7.5348,-7.4821,-7.5464,-7.5115,-7.4821,-7.5464,-7.5579,-7.5867,-7.686,-7.6971,-7.7501,-7.9046,-7.9179,-7.8788,-7.7908,-7.7266,-7.6724,-7.6217,-7.5879,-7.5709,-7.5709,-7.5709,-7.5709,-7.5709,-7.5709,-7.5709,-7.5709,-7.5709,-7.5506,-7.5067,-7.4762,-7.4153,-7.3274,-7.2969,-7.2597,-7.2157,-7.2463,-7.3413,-4.7549,-4.9733,-5.2528,-5.865,-6.1373,-6.3677,-6.8016,-6.8525,-6.8286,-6.9004,-6.9662,-7.0051,-7.0051,-7.1713,-7.3077,-7.2922,-7.3034,-7.2837,-7.2083,-7.0884,-7.0066,-7.0003,-7.1289,-7.3002,-7.5168,-7.6804,-7.8345,-7.9836,-8.0124,-8.0209,-8.0209,-8.0209,-8.0209,-8.0209,-8.0209,-8.0209,-8.0209,-8.0209,-8.0209,-8.0175,-7.9464,-7.872,-7.7976,-7.7908,-7.7096,-7.5709,-7.5709,-7.5743,-7.5879,-7.6589,-7.6995,-7.7232,-7.8585,-7.916,-7.9295,-7.9938,-8.0209,-8.0209,-8.0209,-8.0074,-7.9734,-7.8345,-7.8256,-7.8265,-7.606,-7.5969,-7.6411,-7.5597,-7.5464,-7.5579,-7.5406,-7.4288,-7.3169,-7.3077,-7.3108,-7.3445,-7.488,-7.4048,-7.3382,-7.488,-7.5173,-7.5231,-7.5348,-7.5406,-7.5981,-7.7665,-7.853,-7.901,-7.9076,-7.7942,-7.7063,-7.6927,-7.6251,-7.5777,-7.5709,-7.5709,-7.5709,-7.5709,-7.5709,-7.5709,-7.5709,-7.5709,-7.5709,-7.5709,-7.5033,-7.4695,-7.4627,-7.3916,-7.3544,-7.3477,-7.2937,-7.362,-4.876,-5.3414,-5.8441,-6.0416,-6.3438,-6.646,-6.8525,-6.8884,-6.9093,-7.026,-7.062,-7.0709,-7.0709,-7.1122,-7.1288,-7.0776,-7.0242,-6.9881,-6.9752,-6.9478,-6.9411,-6.9935,-7.0701,-7.1863,-7.3596,-7.5173,-7.6716,-7.8291,-7.9495,-8.0209,-8.0209,-8.0209,-8.0209,-8.0209,-8.0209,-8.0209,-8.0209,-8.0209,-8.0209,-8.0175,-7.9464,-7.872,-7.7976,-7.7401,-7.6623,-7.5709,-7.5709,-7.6048,-7.6657,-7.6826,-7.757,-7.8686,-7.8991,-7.9464,-7.9972,-8.0141,-8.0209,-8.0209,-8.0209,-7.9392,-7.8345,-7.799,-7.718,-7.6002,-7.4291,-7.4771,-7.5539,-7.414,-7.4644,-7.529,-7.4048,-7.3475,-7.2984,-7.1728,-7.1439,-7.1503,-7.1855,-7.1665,-7.1473,-7.1825,-7.1889,-7.233,-7.3567,-7.3809,-7.4735,-7.7468,-7.8052,-7.8369,-7.901,-7.8822,-7.8179,-7.7029,-7.6758,-7.6386,-7.5743,-7.5709,-7.5709,-7.5709,-7.5709,-7.5709,-7.5709,-7.5709,-7.5709,-7.5709,-7.554,-7.5202,-7.4627,-7.4458,-7.4052,-7.3523,-7.4155,-7.4754,-5.0138,-5.4371,-5.874,-6.2899,-6.5473,-6.7358,-6.8704,-6.9004,-6.9363,-7.0649,-7.0889,-7.0889,-7.0889,-7.0889,-7.0709,-7.0081,-6.9692,-6.9482,-6.9482,-6.9482,-6.9722,-7.035,-7.0709,-7.1473,-7.3077,-7.4644,-7.6209,-7.7773,-7.934,-8.0209,-8.0209,-8.0209,-8.0209,-8.0209,-8.0209,-8.0209,-8.0209,-8.0209,-8.0209,-8.0175,-7.9092,-7.7976,-7.6893,-7.6487,-7.6082,-7.5709,-7.6115,-7.6521,-7.6961,-7.7671,-7.8416,-7.916,-7.9498,-7.987,-8.0209,-8.0209,-8.0209,-8.0074,-7.934,-7.8558,-7.7665,-7.6152,-7.5173,-7.42,-7.2612,-7.2736,-7.3169,-7.2362,-7.2706,-7.3138,-7.2299,-7.2141,-7.1919,-7.1083,-7.0889,-7.0889,-7.0889,-7.0889,-7.0889,-7.0889,-7.0889,-7.1148,-7.2046,-7.2798,-7.408,-7.6435,-7.7413,-7.8319,-7.9466,-7.9329,-7.8822,-7.8044,-7.7333,-7.6724,-7.6318,-7.5912,-7.5709,-7.5709,-7.5709,-7.5709,-7.5709,-7.5709,-7.5709,-7.5709,-7.5709,-7.5506,-7.5134,-7.5134,-7.4931,-7.4572,-7.4764,-7.5137,-5.069,-5.4162,-5.7782,-6.5024,-6.6909,-6.7298,-6.8555,-6.8914,-6.9333,-7.05,-7.0829,-7.0889,-7.0889,-7.0799,-7.059,-7.0051,-6.9871,-6.9842,-6.9961,-6.9991,-7.0201,-7.0829,-7.0889,-7.1439,-7.2706,-7.4228,-7.5867,-7.7358,-7.8941,-7.9921,-8.0209,-8.0209,-8.0209,-8.0209,-8.0209,-8.0209,-8.0209,-8.0209,-8.0209,-8.0175,-7.8686,-7.7164,-7.5709,-7.5709,-7.5777,-7.5946,-7.6623,-7.7029,-7.7367,-7.8619,-7.9194,-7.9363,-7.9972,-8.0209,-8.0158,-7.9921,-7.9785,-7.958,-7.8044,-7.7303,-7.6692,-7.414,-7.3108,-7.2612,-7.1311,-7.0889,-7.0889,-7.0889,-7.0889,-7.0889,-7.0889,-7.0889,-7.0889,-7.0889,-7.0889,-7.0889,-7.0889,-7.0889,-7.0889,-7.0889,-7.0889,-7.0889,-7.0889,-7.2046,-7.3384,-7.4939,-7.6524,-7.8044,-7.9598,-7.9516,-7.9261,-7.9126,-7.801,-7.7232,-7.7096,-7.6352,-7.5912,-7.5912,-7.5777,-7.5709,-7.5709,-7.5709,-7.5709,-7.5709,-7.5709,-7.5709,-7.5709,-7.5709,-7.5709,-7.5676,-7.5067,-7.5276,-4.8506,-5.4072,-6.0505,-6.5024,-6.658,-6.7178,-6.7926,-6.8555,-6.9213,-6.9961,-7.053,-7.0889,-7.0889,-7.047,-7.0081,-6.9991,-6.9512,-6.9333,-6.9901,-6.9991,-7.0201,-7.0829,-7.0889,-7.0954,-7.1182,-7.2674,-7.4259,-7.581,-7.7303,-7.8802,-8.0124,-8.0209,-8.0209,-8.0209,-8.0209,-8.0209,-8.0209,-8.0209,-8.0209,-8.0175,-7.8686,-7.7164,-7.5709,-7.5709,-7.6082,-7.6758,-7.686,-7.7638,-7.8822,-7.9025,-7.9498,-8.0073,-8.0175,-8.0209,-8.0023,-7.8697,-7.8238,-7.799,-7.6435,-7.4998,-7.387,-7.3445,-7.233,-7.1212,-7.0954,-7.0889,-7.0889,-7.0889,-7.0889,-7.0889,-7.0889,-7.0889,-7.0889,-7.0889,-7.0889,-7.0889,-7.0889,-7.0889,-7.0889,-7.0889,-7.0889,-7.0889,-7.0889,-7.1083,-7.1728,-7.3384,-7.488,-7.6435,-7.799,-7.9291,-7.9803,-7.9194,-7.8923,-7.8551,-7.7908,-7.7164,-7.6758,-7.6758,-7.6082,-7.5709,-7.5709,-7.5709,-7.5709,-7.5709,-7.5709,-7.5709,-7.5709,-7.5709,-7.5709,-7.5709,-7.5608,-7.5754,-5.0212,-5.5478,-6.0565,-6.4934,-6.6221,-6.67,-6.7747,-6.8196,-6.8734,-6.9752,-7.0201,-7.038,-7.038,-7.044,-7.026,-6.9542,-6.9782,-7.0051,-6.9961,-7.026,-7.059,-7.0859,-7.0889,-7.0889,-7.0889,-7.233,-7.3567,-7.4228,-7.6548,-7.8184,-7.8855,-7.9734,-8.0209,-8.0209,-8.0209,-8.0209,-8.0209,-8.0209,-7.9769,-7.8957,-7.828,-7.7435,-7.6352,-7.6352,-7.6555,-7.6927,-7.7333,-7.8111,-7.916,-7.9566,-7.9904,-8.0209,-8.0209,-7.9683,-7.8802,-7.8184,-7.7358,-7.6379,-7.4821,-7.387,-7.3169,-7.2267,-7.1503,-7.0889,-7.0889,-7.0889,-7.0889,-7.0889,-7.0889,-7.0889,-7.0889,-7.0889,-7.0889,-7.0889,-7.0889,-7.0889,-7.0889,-7.0889,-7.0889,-7.0889,-7.0889,-7.0889,-7.0889,-7.0889,-7.1728,-7.42,-7.5173,-7.6435,-7.8855,-7.9785,-8.0073,-7.9769,-7.9363,-7.8991,-7.8653,-7.7942,-7.7333,-7.6927,-7.6555,-7.6183,-7.5709,-7.5709,-7.5709,-7.5709,-7.5709,-7.5709,-7.5709,-7.5709,-7.5709,-7.5709,-7.5709,-7.5756,-5.0451,-5.4371,-5.7633,-6.2929,-6.4515,-6.5233,0.0,0.0,-6.8256,0.0,-6.9602,-6.9662,-6.9512,-7.0141,-7.041,-6.9602,-7.0141,-7.056,-7.0231,-7.059,-7.0889,-7.0889,-7.0889,-7.0889,-7.0889,-7.1982,-7.286,-7.3169,-7.581,-7.7468,-7.7882,-7.9392,-8.0209,-8.0209,-8.0209,-8.0209,-8.0209,-8.0209,-7.9464,-7.7976,-7.7976,-7.7604,-7.6893,-7.6893,-7.7096,-7.7502,-7.8044,-7.8686,-7.9431,-7.9972,-8.0209,-8.0158,-7.9785,-7.8908,-7.7828,-7.7027,-7.5981,-7.4762,-7.32,-7.2674,-7.2518,-7.1311,-7.0889,-7.0889,-7.0889,-7.1009,-7.1128,-7.0949,-7.1158,-7.1368,-7.1188,-7.1278,-7.1427,-7.1427,-7.1278,-7.1098,-7.0949,-7.0889,-7.0889,-7.0889,-7.0889,-7.0889,-7.0889,-7.0889,-7.1728,-7.4048,-7.5115,-7.6435,-7.875,-7.9734,-8.0209,-8.0209,-7.9701,-7.9397,-7.9397,-7.8686,-7.8044,-7.7502,-7.7266,-7.6826,-7.6048,-7.6014,-7.5912,-7.5709,-7.5709,-7.5709,-7.5709,-7.5709,-7.5709,-7.5709,-7.5709,-7.5709,-4.6531,-4.8237,0.0,-5.7693,-6.0416,-6.2211,0.0,0.0,-6.7986,-6.8076,-6.8585,-6.8854,-6.8196,-6.9153,-7.0201,-7.0709,-7.038,-7.0231,-7.0769,-7.0889,-7.0889,-7.0889,-7.0889,-7.0889,-7.0889,-7.0954,-7.1695,-7.3169,-7.4762,-7.6322,-7.7828,-7.9392,-8.0209,-8.0209,-8.0209,-8.0209,-8.0209,-8.0209,-7.9464,-7.7976,-7.7976,-7.7604,-7.6893,-7.6893,-7.7671,-7.8991,-7.9025,-7.9464,-8.0141,-8.0175,-8.0209,-8.0023,-7.8591,-7.7936,-7.7555,-7.4617,-7.3506,-7.32,-7.1567,-7.1018,-7.1018,-7.0889,-7.0889,-7.0889,-7.0889,-7.1338,-7.1697,-7.1068,-7.1816,-7.2654,-7.1996,-7.2325,-7.2804,-7.2804,-7.2295,-7.1667,-7.1038,-7.0889,-7.0889,-7.0889,-7.0889,-7.0889,-7.0889,-7.0889,-7.0954,-7.1148,-7.3718,-7.5637,-7.581,-7.8398,-8.0209,-8.0209,-8.0175,-8.0141,-8.0141,-7.9464,-7.9025,-7.8991,-7.8314,-7.7604,-7.686,-7.6826,-7.6487,-7.5709,-7.5709,-7.5709,-7.5709,-7.5709,-7.5709,-7.5709,-7.5709,-7.5709,0.0,0.0,0.0,-5.4581,-5.8231,-6.0984,-6.3019,-6.5802,-6.8106,-6.8525,-6.8824,-6.8914,-6.8675,-6.9363,-6.9901,-6.9722,-7.0201,-7.0649,-7.0859,-7.0889,-7.0889,-7.0889,-7.0889,-7.0889,-7.0889,-7.0889,-7.1148,-7.1728,-7.32,-7.4762,-7.6322,-7.7882,-7.915,-8.0209,-8.0209,-8.0209,-8.0209,-8.0209,-7.9464,-7.7976,-7.7976,-7.7841,-7.7604,-7.7604,-7.8416,-7.9803,-7.9803,-7.9972,-8.0209,-8.0209,-8.0209,-8.0023,-7.8505,-7.7303,-7.6152,-7.408,-7.2643,-7.1665,-7.1083,-7.0889,-7.0889,-7.0889,-7.0889,-7.0979,-7.1398,-7.1697,-7.1936,-7.2146,-7.2535,-7.2864,-7.2595,-7.2744,-7.2924,-7.2924,-7.2714,-7.2355,-7.1697,-7.1188,-7.0889,-7.0889,-7.0889,-7.0889,-7.0889,-7.0889,-7.1601,-7.3596,-7.488,-7.6322,-7.8291,-7.9495,-8.0209,-8.0209,-8.0209,-8.0209,-8.0209,-7.9972,-7.96,-7.916,-7.8855,-7.8382,-7.7638,-7.7164,-7.6758,-7.6487,-7.5946,-7.5709,-7.5709,-7.5709,-7.5709,-7.5709,-7.5709,-7.6067,-4.4077,0.0,0.0,0.0,0.0,-5.7334,-6.0655,0.0,-6.643,-6.8016,-6.8495,-6.8585,-6.8375,-6.8854,-6.9243,-6.9034,-6.9722,-7.026,-7.026,-7.047,-7.059,-7.059,-7.0769,-7.0889,-7.0889,-7.0889,-7.0889,-7.0889,-7.2362,0.0,-7.4762,-7.6772,-7.8591,-8.0124,-8.0209,-8.0209,-8.0209,-8.0209,-7.9566,-7.8348,-7.8348,-7.8348,-7.8348,-7.8348,-7.9025,-8.0209,-8.0209,-8.0209,-8.0209,-8.0209,-7.9887,-7.9254,-7.7719,-7.6152,-7.4676,-7.3077,-7.1792,-7.0889,-7.0889,-7.0889,-7.0889,-7.0889,-7.0889,-7.1038,-7.1697,-7.2056,-7.2325,-7.2774,-7.3223,-7.3522,-7.3313,-7.3402,-7.3522,-7.3283,-7.3253,-7.3043,-7.2385,-7.1697,-7.1158,-7.0949,-7.0889,-7.0889,-7.0889,-7.0889,-7.1601,-7.3718,-7.4939,-7.6322,-7.8398,-7.9546,-8.0209,-8.0209,-8.0209,-8.0209,-8.0209,-8.0209,-8.0006,-7.9498,-7.9464,-7.916,-7.8382,-7.7908,-7.7536,-7.7266,-7.6487,-7.6082,-7.6082,-7.5845,-7.5709,-7.5709,-7.5709,-7.6462,0.0,0.0,0.0,0.0,0.0,0.0,-5.8141,0.0,-6.2839,-6.6131,-6.7328,-6.7597,-6.7059,-6.7478,-6.8136,-6.8824,-6.8974,-6.9004,-6.9004,-6.9542,-6.9961,-6.9961,-7.05,-7.0889,-7.0889,-7.0889,-7.0889,-7.0889,-7.2299,-7.3169,-7.323,-7.6177,-7.8591,-8.0124,-8.0209,-8.0209,-8.0209,-8.0209,-7.9837,-7.9126,-7.9126,-7.9126,-7.9126,-7.9126,-7.9498,-8.0209,-8.0209,-8.0209,-8.0124,-8.0124,-7.9254,-7.7719,-7.6152,-7.4617,-7.3108,-7.1503,-7.0889,-7.0889,-7.0889,-7.0889,-7.0889,-7.0919,-7.0919,-7.1068,-7.1727,-7.2415,-7.2954,-7.2954,-7.3881,-7.4719,-7.4091,-7.439,-7.4719,-7.4061,-7.3911,-7.3762,-7.3073,-7.2415,-7.1757,-7.1098,-7.0949,-7.0919,-7.0919,-7.0919,-7.0919,-7.0954,-7.3596,-7.5637,-7.5637,-7.8291,-8.0209,-8.0209,-8.0209,-8.0209,-8.0209,-8.0209,-8.0209,-8.0209,-8.0209,-7.987,-7.916,-7.9126,-7.8754,-7.8044,-7.7299,-7.6927,-7.6893,-7.6082,-7.5709,-7.5709,-7.5723,-7.6927,-4.0217,0.0,0.0,0.0,0.0,0.0,0.0,0.0,-5.874,-6.2061,-6.2869,-6.3677,-6.5862,-6.643,-6.6759,-6.7448,-6.8375,-6.9004,-6.9004,-6.9153,-6.9273,-6.9273,-6.9842,-7.0231,-7.0231,-7.0649,-7.0889,0.0,-7.1311,-7.2015,-7.32,-7.6209,-7.8591,-8.0124,-8.0209,-8.0209,-8.0209,-8.0209,-7.9837,-7.9126,-7.9126,-7.9126,-7.9126,-7.9126,-7.9498,-8.0209,-8.0209,-7.958,-7.8538,-7.8538,-7.8291,-7.7665,-7.4939,-7.3657,-7.3046,-7.1503,-7.0889,-7.0889,-7.0889,-7.0889,-7.0979,-7.1457,-7.1607,-7.1816,-7.2984,-7.3462,-7.3732,-7.421,-7.4599,-7.4839,-7.4659,-7.4749,-7.4839,-7.4659,-7.4599,-7.442,-7.3762,-7.3462,-7.3133,-7.2475,-7.1966,-7.1607,-7.1607,-7.1218,-7.1341,-7.2455,-7.4319,-7.5981,-7.7138,-7.8993,-8.0209,-8.0209,-8.0209,-8.0209,-8.0209,-8.0209,-8.0209,-8.0209,-8.0209,-8.0107,-7.9904,-7.9397,-7.9025,-7.8822,-7.8077,-7.7435,-7.6893,-7.6082,-7.5709,-7.5757,-7.6508,-7.7641,0.0,0.0,0.0,0.0,0.0,0.0,-5.0108,-5.3204,0.0,0.0,-6.2959,-6.3647,-6.5293,-6.5592,-6.5802,-6.646,-6.7238,-6.7867,-6.8136,-6.8405,-6.8555,-6.8555,-6.9153,-6.9572,-6.9572,-7.0141,-7.053,-7.053,-7.0769,-7.1919,-7.414,-7.5981,-7.7936,-8.0124,-8.0209,-8.0209,-8.0209,-8.0209,-7.9972,-7.9566,-7.9566,-7.9566,-7.9566,-7.9566,-7.9432,-7.9202,-7.9202,-7.8345,-7.6916,-7.6266,-7.5981,-7.581,-7.402,-7.286,-7.2111,-7.1247,-7.0889,-7.0889,-7.0889,-7.1068,-7.1368,-7.1757,-7.2086,-7.2505,-7.3582,-7.3881,-7.4031,-7.4689,-7.4869,-7.4869,-7.4869,-7.4869,-7.4869,-7.4869,-7.4869,-7.4779,-7.439,-7.43,-7.4031,-7.3103,-7.2595,-7.2325,-7.2325,-7.1757,-7.1603,-7.2568,-7.4388,-7.5924,-7.686,-7.8855,-8.0209,-8.0209,-8.0209,-8.0209,-8.0209,-8.0209,-8.0209,-8.0209,-8.0209,-8.0209,-8.0209,-7.9803,-7.9566,-7.9566,-7.8822,-7.7942,-7.6893,-7.642,-7.6014,-7.5757,-7.6792,-7.7907,0.0,0.0,0.0,0.0,0.0,0.0,-5.0152,-5.2306,-5.473,0.0,-6.3468,-6.3887,-6.3737,-6.3767,-6.4036,-6.4695,-6.5114,-6.5742,-6.6819,-6.7478,-6.7867,-6.7867,-6.8465,-6.8884,-6.8884,-6.9482,-6.9901,-6.9961,-7.056,-7.2204,-7.5173,-7.5522,-7.6971,-7.9836,-8.0074,-8.0209,-8.0209,-8.0209,-8.0209,-8.0209,-8.0209,-8.0209,-8.0209,-8.0023,-7.9202,-7.7882,-7.7719,-7.6804,-7.5231,-7.387,-7.3292,-7.3261,-7.3108,-7.2141,-7.0889,-7.0889,-7.0889,-7.0889,-7.0889,-7.1338,-7.1906,-7.1966,-7.2445,-7.3163,-7.3821,-7.4001,-7.4121,-7.4719,-7.4869,-7.4869,-7.4869,-7.4869,-7.4869,-7.4869,-7.4869,-7.4869,-7.4869,-7.4869,-7.454,-7.3343,-7.3073,-7.3013,-7.3013,-7.2445,-7.1966,-7.1906,-7.4095,-7.5675,-7.5579,-7.8291,-8.0209,-8.0209,-8.0209,-8.0209,-8.0209,-8.0209,-8.0209,-8.0209,-8.0209,-8.0209,-8.0209,-8.0209,-8.0209,-8.0209,-7.9498,-7.8416,-7.7029,-7.6927,-7.6487,-7.5757,-7.6792,-7.7907,0.0,0.0,0.0,0.0,0.0,0.0,-4.2551,-4.3419,-4.5035,0.0,-5.0481,-5.1887,-5.494,-5.5957,-5.6526,-5.7184,-5.9518,-6.26,-6.646,-6.7089,0.0,0.0,0.0,0.0,-6.8166,-6.8794,-6.9423,-6.9931,-7.056,-7.1728,-7.3565,-7.488,-7.6435,-7.8291,-7.9546,-8.0209,-8.0209,-8.0209,-8.0209,-8.0209,-8.0209,-8.0209,-8.0158,-7.8908,-7.8184,-7.7828,-7.6548,-7.5173,-7.3749,-7.3384,-7.3261,-7.3107,-7.1825,-7.1212,-7.0889,-7.0889,-7.0889,-7.0889,-7.0889,-7.1338,-7.1966,-7.2535,-7.3163,-7.3821,-7.448,-7.4689,-7.4719,-7.4839,-7.4869,-7.4869,-7.4869,-7.4869,-7.4869,-7.4869,-7.4869,-7.4869,-7.4869,-7.4869,-7.4809,-7.454,-7.4061,-7.3702,-7.3702,-7.3163,-7.2535,-7.1966,-7.4407,-7.6129,-7.5643,-7.8291,-8.0209,-8.0209,-8.0209,-8.0209,-8.0209,-8.0209,-8.0209,-8.0209,-8.0209,-8.0209,-8.0209,-8.0209,-8.0209,-8.0209,-7.9498,-7.8686,-7.7773,-7.7198,-7.6487,-7.5757,-7.6792,-7.7907,0.0,0.0,0.0,-3.9373,0.0,0.0,0.0,0.0,-4.4377,-4.8027,-4.9015,-4.9853,-5.1828,-5.2755,-5.3414,-5.4072,-5.7244,-5.9967,0.0,0.0,0.0,0.0,0.0,0.0,-6.7478,-6.8106,-6.8914,-6.9901,-7.026,-7.1268,-7.3076,-7.4762,-7.6322,-7.7828,-7.9392,-8.0209,-8.0209,-8.0209,-8.0209,-8.0209,-8.0209,-7.9785,-7.9046,-7.8238,-7.7082,-7.5579,-7.4762,-7.3567,-7.2078,-7.2078,-7.2078,-7.2015,-7.1182,-7.0889,-7.0889,-7.0889,-7.0889,-7.0889,-7.0889,-7.1547,-7.2445,-7.2804,-7.3582,-7.445,-7.4779,-7.4869,-7.4869,-7.4869,-7.4869,-7.4869,-7.4869,-7.4869,-7.4869,-7.4869,-7.4869,-7.4869,-7.4869,-7.4869,-7.4869,-7.4869,-7.4599,-7.439,-7.439,-7.3821,-7.3587,-7.3989,-7.5804,-7.7184,-7.7277,-7.9335,-8.0615,-8.0242,-8.0209,-8.0209,-8.0209,-8.0209,-8.0209,-8.0209,-8.0209,-8.0209,-8.0209,-8.0209,-8.0209,-8.0209,-7.9837,-7.9295,-7.8551,-7.7807,-7.6826,-7.5757,-7.6792,-7.7907,0.0,0.0,0.0,0.0,0.0,-4.0247,0.0,0.0,0.0,0.0,0.0,0.0,0.0,0.0,0.0,0.0,0.0,0.0,0.0,0.0,0.0,0.0,0.0,0.0,-6.5922,-6.658,-6.7747,-6.9453,-6.9243,-7.0084,-7.246,-7.4225,-7.5867,-7.7413,-7.8941,-7.9921,-8.0209,-7.9921,-7.9921,-8.0209,-7.9632,-7.8802,-7.7882,-7.7248,-7.5637,-7.3261,-7.2984,-7.2078,-7.0889,-7.0889,-7.0889,-7.0889,-7.0889,-7.0889,-7.0889,-7.0889,-7.0889,-7.0889,-7.0889,-7.1787,-7.2924,-7.2924,-7.3821,-7.4869,-7.4869,-7.4869,-7.4869,-7.4869,-7.4869,-7.4869,-7.4869,-7.4869,-7.4869,-7.4869,-7.4869,-7.4869,-7.4869,-7.4869,-7.4869,-7.4869,-7.4869,-7.4869,-7.4869,-7.442,-7.4473,-7.5652,-7.6991,-7.8099,-7.8644,-8.0268,-8.1054,-8.0479,-8.0276,-8.0209,-8.0209,-8.0209,-8.0209,-8.0209,-8.0209,-8.0209,-8.0209,-8.0209,-8.0209,-8.0209,-8.0209,-7.9837,-7.9126,-7.8348,-7.7266,-7.596,-7.713,-7.8119,0.0,0.0,0.0,0.0,-3.9373,0.0,0.0,0.0,-4.0217,-4.0629,0.0,0.0,0.0,0.0,0.0,0.0,0.0,0.0,0.0,0.0,0.0,0.0,0.0,0.0,0.0,-6.2899,-6.4904,-6.7956,-6.658,-6.697,-7.022,-7.2367,-7.4259,-7.581,-7.7358,-7.8802,-8.0209,-7.8855,-7.8855,-8.0158,-7.7413,-7.6748,-7.7828,-7.5024,-7.3596,-7.3231,-7.1792,-7.1083,-7.0889,-7.0889,-7.0889,-7.0889,-7.0889,-7.0889,-7.0889,-7.0889,-7.0889,-7.0889,-7.0889,-7.1787,-7.2924,-7.2924,-7.3821,-7.4869,-7.4869,-7.4869,-7.4869,-7.4869,-7.4869,-7.4869,-7.4869,-7.4869,-7.4869,-7.4869,-7.4869,-7.4869,-7.4869,-7.4869,-7.4869,-7.4869,-7.4869,-7.4869,-7.4869,-7.4809,-7.4638,-7.4211,-7.6649,-7.8331,-7.7896,-7.989,-8.1257,-8.1156,-8.0581,-8.0209,-8.0209,-8.0209,-8.0209,-8.0209,-8.0209,-8.0209,-8.0209,-8.0209,-8.0209,-8.0209,-8.0209,-7.9837,-7.9126,-7.8348,-7.757,-7.6806,-7.817,-7.8862,0.0,0.0,0.0,0.0,0.0,0.0,-3.9948,0.0,-3.9373,0.0,0.0,0.0,0.0,0.0,0.0,0.0,0.0,0.0,0.0,0.0,0.0,0.0,0.0,0.0,0.0,0.0,0.0,0.0,-6.5772,-6.6041,-6.9782,-7.2118,-7.3567,-7.4168,-7.5752,-7.686,-7.7523,-7.6916,-7.6916,-7.7555,-7.6209,-7.5464,-7.5173,-7.3839,-7.2798,-7.1855,-7.1212,-7.0889,-7.0889,-7.0889,-7.0889,-7.0889,-7.0889,-7.0889,-7.0889,-7.0889,-7.0889,-7.0949,-7.1338,-7.2116,-7.3043,-7.3821,-7.442,-7.4869,-7.4869,-7.4869,-7.4869,-7.4869,-7.4869,-7.4869,-7.4869,-7.4869,-7.4869,-7.4869,-7.4869,-7.4869,-7.4869,-7.4869,-7.4869,-7.4869,-7.4869,-7.4869,-7.4869,-7.4869,-7.5158,-7.577,-7.7811,-7.9368,-7.9632,-8.1388,-8.2408,-8.1968,-8.1257,-8.0818,-8.0818,-8.0445,-8.0209,-8.0209,-8.0209,-8.0209,-8.0209,-8.0209,-8.0209,-8.0209,-8.0209,-8.004,-7.9735,-7.8551,-7.7841,-7.7551,-7.8543,-7.8983,-4.4855,0.0,0.0,0.0,0.0,0.0,0.0,0.0,0.0,0.0,0.0,0.0,0.0,0.0,0.0,0.0,0.0,0.0,0.0,0.0,0.0,0.0,0.0,0.0,0.0,0.0,0.0,0.0,0.0,-6.4545,-6.9453,-7.1437,-7.2676,-7.323,-7.4347,-7.5173,-7.5579,-7.5173,-7.5173,-7.5579,-7.4893,-7.4147,-7.3292,-7.3045,-7.2198,-7.0889,-7.0889,-7.0889,-7.0889,-7.0889,-7.0889,-7.0889,-7.0889,-7.0889,-7.0889,-7.0889,-7.1009,-7.1248,-7.1727,-7.2445,-7.3373,-7.451,-7.4869,-7.4869,-7.4869,-7.4869,-7.4869,-7.4869,-7.4869,-7.4869,-7.4869,-7.4869,-7.4929,-7.5108,-7.5168,-7.5198,-7.5377,-7.5407,-7.5407,-7.5407,-7.5407,-7.5407,-7.5407,-7.5108,-7.5316,-7.6467,-7.8059,-7.955,-8.058,-8.1946,-8.2831,-8.2694,-8.2035,-8.1494,-8.1291,-8.0784,-8.0412,-8.0209,-8.0209,-8.0209,-8.0209,-8.0209,-8.0209,-8.0209,-8.0209,-8.0209,-8.0209,-7.872,-7.7976,-7.7991,-7.8372,-7.87,0.0,0.0,0.0,-4.1384,0.0,0.0,0.0,0.0,-3.9373,0.0,0.0,0.0,0.0,0.0,0.0,0.0,0.0,0.0,0.0,0.0,0.0,0.0,0.0,0.0,0.0,0.0,0.0,0.0,0.0,0.0,-6.8645,-6.9726,-7.1122,-7.3261,-7.3291,-7.4048,-7.5579,-7.4048,-7.4048,-7.5579,-7.3161,-7.2493,-7.3231,-7.2331,-7.1553,-7.0889,-7.0889,-7.0889,-7.0889,-7.0889,-7.0889,-7.0889,-7.0889,-7.0889,-7.0889,-7.0889,-7.1308,-7.1846,-7.1876,-7.2744,-7.3971,-7.4659,-7.4869,-7.4869,-7.4869,-7.4869,-7.4869,-7.4869,-7.4869,-7.4869,-7.4869,-7.4869,-7.5048,-7.5707,-7.5886,-7.6036,-7.6634,-7.6754,-7.6754,-7.6754,-7.6754,-7.6754,-7.6754,-7.5707,-7.4937,-7.4937,-7.6335,-7.7965,-7.9617,-8.0645,-8.1758,-8.3298,-8.2813,-8.2069,-8.1359,-8.1257,-8.0953,-8.0242,-8.0209,-8.0209,-8.0209,-8.0209,-8.0209,-8.0209,-8.0209,-8.0209,-8.0209,-7.872,-7.7976,-7.7991,-7.7559,-7.7949,0.0,0.0,-5.3204,-4.6621,0.0,0.0,0.0,0.0,0.0,0.0,0.0,0.0,0.0,0.0,0.0,0.0,0.0,0.0,0.0,0.0,0.0,0.0,0.0,0.0,0.0,0.0,0.0,0.0,0.0,0.0,0.0,-6.9632,-7.0487,-7.1665,-7.1665,-7.1952,-7.2487,-7.1952,-7.1952,-7.2487,-7.2103,-7.1844,-7.1695,-7.1808,-7.1517,-7.0889,-7.0889,-7.0889,-7.0889,-7.0889,-7.0889,-7.0889,-7.0889,-7.0889,-7.0889,-7.0889,-7.1308,-7.2026,-7.2894,-7.3791,-7.4569,-7.4809,-7.4869,-7.4869,-7.4869,-7.4869,-7.4869,-7.4869,-7.4869,-7.4988,-7.5437,-7.5557,-7.5707,-7.6365,-7.6514,-7.6574,-7.6784,-7.6814,-7.6814,-7.6814,-7.6814,-7.6814,-7.6814,-7.6455,-7.6185,-7.6185,-7.7179,-7.8555,-8.0197,-8.1245,-8.2432,-8.4075,-8.3558,-8.3016,-8.278,-8.1832,-8.0987,-8.0242,-8.0209,-8.0209,-8.0209,-8.0209,-8.0209,-8.0209,-8.0209,-8.0209,-8.0209,-7.9228,-7.8483,-7.7942,-7.7326,-7.7723,-5.6855,-5.7663,0.0,-5.1319,-5.1349,0.0,-4.4945,0.0,0.0,0.0,0.0,0.0,0.0,0.0,0.0,0.0,0.0,0.0,0.0,0.0,0.0,0.0,0.0,0.0,0.0,0.0,0.0,0.0,0.0,0.0,0.0,0.0,-6.9931,-7.056,-7.0799,-7.0889,-7.0889,-7.0889,-7.0889,-7.0919,-7.1816,-7.1787,-7.0949,-7.1846,-7.1757,-7.0889,-7.0889,-7.0889,-7.0889,-7.0889,-7.0889,-7.0889,-7.0889,-7.0889,-7.0889,-7.0889,-7.1487,-7.2445,-7.3791,-7.451,-7.4869,-7.4869,-7.4869,-7.4869,-7.4869,-7.4869,-7.4839,-7.4599,-7.4869,-7.5288,-7.5497,-7.5886,-7.6395,-7.7023,-7.7173,-7.7233,-7.7472,-7.7532,-7.7532,-7.7532,-7.7532,-7.7532,-7.7532,-7.7532,-7.7382,-7.6904,-7.7365,-7.8583,-8.0868,-8.1423,-8.2535,-8.4797,-8.437,-8.3795,-8.3524,-8.2137,-8.1088,-8.0615,-8.0344,-8.0209,-8.0209,-8.0209,-8.0073,-7.9803,-8.0073,-8.0073,-7.9803,-7.9329,-7.872,-7.7976,-7.7232,-7.7628]},{"header":{"parameterUnit":"m.s-1","parameterCategory":1,"la1":30.6,"la2":29.2853,"lo1":-89.7004,"lo2":-87.6739,"dx":0.0162,"dy":0.0183,"nx":112,"ny":82,"refTime":"2023-01-07T06:00:00:Z","depth":0,"parameterNumber":3,"parameterNumberName":"V-component_of_WINDS"},"data":[0.0,0.0,0.0,0.0,0.0,0.0,0.0,0.0,0.0,0.0,0.0,0.0,0.0,0.0,0.0,0.0,0.0,0.0,0.0,0.0,0.0,0.0,0.0,0.0,0.0,0.0,0.0,0.0,0.0,0.0,0.0,0.0,0.0,0.0,0.0,0.0,0.0,0.0,0.0,0.0,0.0,0.0,0.0,0.0,0.0,0.0,0.0,0.0,0.0,0.0,0.0,0.0,0.0,0.0,0.0,0.0,0.0,0.0,0.0,0.0,0.0,0.0,0.0,0.0,0.0,0.0,0.0,0.0,0.0,0.0,0.0,0.0,0.0,0.0,0.0,0.0,0.0,0.0,0.0,0.0,0.0,0.0,0.0,0.0,0.0,0.0,0.0,0.0,0.0,0.0,-1.5833,-1.7076,-1.4389,-1.2656,-1.2958,-1.2958,-1.4705,-1.8799,0.0,0.0,0.0,0.0,0.0,0.0,0.0,0.0,0.0,0.0,0.0,0.0,0.0,0.0,0.0,0.0,0.0,0.0,0.0,0.0,0.0,0.0,0.0,0.0,0.0,0.0,0.0,0.0,0.0,0.0,0.0,0.0,0.0,0.0,0.0,0.0,0.0,0.0,0.0,0.0,0.0,0.0,0.0,0.0,0.0,0.0,0.0,0.0,0.0,0.0,0.0,0.0,0.0,0.0,0.0,0.0,0.0,0.0,0.0,0.0,0.0,0.0,0.0,0.0,0.0,0.0,0.0,0.0,0.0,0.0,0.0,0.0,0.0,0.0,0.0,0.0,0.0,0.0,0.0,0.0,0.0,0.0,0.0,0.0,0.0,0.0,0.0,0.0,0.0,0.0,0.0,0.0,0.0,0.0,0.0,0.0,0.0,0.0,0.0,0.0,0.0,0.0,0.0,0.0,-1.6487,-1.3662,-1.2867,-1.319,-1.4935,-1.5004,-1.6828,-2.0916,0.0,0.0,0.0,0.0,0.0,0.0,0.0,0.0,0.0,0.0,0.0,0.0,0.0,0.0,0.0,0.0,0.0,0.0,0.0,0.0,0.0,0.0,0.0,0.0,0.0,0.0,0.0,0.0,0.0,0.0,0.0,0.0,0.0,0.0,0.0,0.0,0.0,0.0,0.0,0.0,0.0,0.0,0.0,0.0,0.0,0.0,0.0,0.0,0.0,0.0,0.0,0.0,0.0,0.0,0.0,0.0,0.0,0.0,0.0,0.0,0.0,0.0,0.0,0.0,0.0,0.0,0.0,0.0,0.0,0.0,0.0,0.0,0.0,0.0,0.0,0.0,0.0,0.0,0.0,0.0,0.0,0.0,0.0,0.0,0.0,0.0,0.0,0.0,0.0,0.0,0.0,0.0,0.0,0.0,0.0,0.0,0.0,0.0,0.0,0.0,0.0,0.0,0.0,-1.7114,-1.571,-1.2811,-1.3491,-1.4475,-1.5387,-1.6523,-1.8421,-2.144,-2.0157,0.0,0.0,0.0,0.0,0.0,0.0,0.0,0.0,0.0,0.0,0.0,0.0,0.0,0.0,0.0,0.0,0.0,0.0,0.0,0.0,0.0,0.0,0.0,0.0,0.0,0.0,0.0,0.0,0.0,0.0,0.0,0.0,0.0,0.0,0.0,0.0,0.0,0.0,0.0,0.0,0.0,0.0,0.0,0.0,0.0,0.0,0.0,0.0,0.0,0.0,0.0,0.0,0.0,0.0,0.0,0.0,0.0,0.0,0.0,0.0,0.0,0.0,0.0,0.0,0.0,0.0,0.0,0.0,0.0,0.0,0.0,0.0,0.0,0.0,0.0,0.0,0.0,0.0,0.0,0.0,0.0,0.0,0.0,0.0,0.0,0.0,0.0,0.0,0.0,0.0,0.0,0.0,0.0,0.0,0.0,0.0,0.0,0.0,0.0,0.0,0.0,0.0,-1.5717,-1.509,-1.3351,-1.5012,-1.6447,-1.6904,-1.8421,-2.0188,-2.2295,-2.1825,0.0,0.0,0.0,0.0,0.0,0.0,0.0,0.0,0.0,0.0,0.0,0.0,0.0,0.0,0.0,0.0,0.0,0.0,0.0,0.0,0.0,0.0,0.0,0.0,0.0,0.0,0.0,0.0,0.0,0.0,0.0,0.0,0.0,0.0,0.0,0.0,0.0,0.0,0.0,0.0,0.0,0.0,0.0,0.0,0.0,0.0,0.0,0.0,0.0,0.0,0.0,0.0,0.0,0.0,0.0,0.0,0.0,0.0,0.0,0.0,0.0,0.0,0.0,0.0,0.0,0.0,0.0,0.0,0.0,0.0,0.0,0.0,0.0,0.0,0.0,0.0,0.0,0.0,0.0,0.0,0.0,0.0,0.0,0.0,0.0,0.0,0.0,0.0,0.0,0.0,0.0,0.0,0.0,0.0,0.0,0.0,0.0,0.0,0.0,0.0,0.0,0.0,-1.6675,-1.548,-1.531,-1.7132,-1.9176,-2.0991,-2.1291,-2.2382,-2.4723,-2.4017,0.0,0.0,0.0,0.0,0.0,0.0,0.0,0.0,0.0,0.0,0.0,0.0,0.0,0.0,0.0,0.0,0.0,0.0,0.0,0.0,0.0,0.0,0.0,0.0,0.0,0.0,0.0,0.0,0.0,0.0,0.0,0.0,0.0,0.0,0.0,0.0,0.0,0.0,0.0,0.0,0.0,0.0,0.0,0.0,0.0,0.0,0.0,0.0,0.0,0.0,0.0,0.0,0.0,0.0,0.0,0.0,0.0,0.0,0.0,0.0,0.0,0.0,0.0,0.0,0.0,0.0,0.0,0.0,0.0,0.0,0.0,0.0,0.0,0.0,0.0,0.0,0.0,0.0,0.0,0.0,0.0,0.0,0.0,0.0,0.0,0.0,0.0,0.0,0.0,0.0,0.0,0.0,0.0,0.0,0.0,0.0,0.0,0.0,0.0,0.0,0.0,0.0,-1.8891,-1.772,-1.7464,-1.9252,-2.0767,-2.1527,-2.2732,-2.3925,-2.5064,0.0,0.0,0.0,0.0,0.0,0.0,0.0,0.0,0.0,0.0,0.0,0.0,0.0,0.0,0.0,0.0,0.0,0.0,0.0,0.0,0.0,0.0,0.0,0.0,0.0,0.0,0.0,0.0,0.0,0.0,0.0,0.0,0.0,0.0,0.0,0.0,0.0,0.0,0.0,0.0,0.0,0.0,0.0,0.0,0.0,0.0,0.0,0.0,0.0,0.0,0.0,0.0,0.0,0.0,0.0,0.0,0.0,0.0,0.0,0.0,0.0,0.0,0.0,0.0,0.0,0.0,0.0,0.0,0.0,0.0,0.0,0.0,0.0,0.0,0.0,0.0,0.0,0.0,0.0,0.0,0.0,0.0,0.0,0.0,0.0,0.0,0.0,0.0,0.0,0.0,0.0,0.0,0.0,0.0,0.0,0.0,0.0,0.0,0.0,0.0,0.0,0.0,-2.1848,-2.0835,-1.9944,-1.9702,-2.1424,-2.2583,-2.2583,-2.3796,-2.4796,-2.5197,0.0,0.0,0.0,0.0,0.0,0.0,0.0,0.0,0.0,0.0,0.0,0.0,0.0,0.0,0.0,0.0,0.0,0.0,0.0,0.0,0.0,0.0,0.0,0.0,0.0,0.0,0.0,0.0,0.0,0.0,0.0,0.0,0.0,0.0,0.0,0.0,0.0,0.0,0.0,0.0,0.0,0.0,0.0,0.0,0.0,0.0,0.0,0.0,0.0,0.0,0.0,0.0,0.0,0.0,0.0,0.0,0.0,0.0,0.0,0.0,0.0,0.0,0.0,0.0,0.0,0.0,0.0,0.0,0.0,0.0,0.0,0.0,0.0,0.0,0.0,0.0,0.0,0.0,0.0,0.0,0.0,0.0,0.0,0.0,0.0,0.0,0.0,0.0,0.0,0.0,0.0,0.0,0.0,0.0,0.0,0.0,0.0,0.0,0.0,0.0,0.0,0.0,-2.2461,-2.2218,-2.2053,-2.2053,-2.3591,-2.4636,-2.4636,-2.4636,-2.489,0.0,0.0,0.0,0.0,0.0,0.0,0.0,0.0,0.0,0.0,0.0,0.0,0.0,0.0,0.0,0.0,0.0,0.0,0.0,0.0,0.0,0.0,0.0,0.0,0.0,0.0,0.0,0.0,0.0,0.0,0.0,0.0,0.0,0.0,0.0,0.0,0.0,0.0,0.0,0.0,0.0,0.0,0.0,0.0,0.0,0.0,0.0,0.0,0.0,0.0,0.0,0.0,0.0,0.0,0.0,0.0,0.0,0.0,0.0,0.0,0.0,0.0,0.0,0.0,0.0,0.0,0.0,0.0,0.0,0.0,0.0,0.0,0.0,0.0,0.0,0.0,0.0,0.0,0.0,0.0,0.0,0.0,0.0,0.0,0.0,0.0,0.0,0.0,0.0,0.0,0.0,0.0,0.0,0.0,0.0,0.0,0.0,0.0,0.0,0.0,0.0,0.0,0.0,-2.492,-2.4701,-2.4366,-2.4248,-2.4424,-2.4636,-2.4636,-2.4636,-2.489,-2.5478,0.0,0.0,0.0,0.0,0.0,0.0,0.0,0.0,0.0,0.0,0.0,0.0,0.0,0.0,0.0,0.0,0.0,0.0,0.0,0.0,0.0,0.0,0.0,0.0,0.0,0.0,0.0,0.0,0.0,0.0,0.0,0.0,0.0,0.0,0.0,0.0,0.0,0.0,0.0,0.0,0.0,0.0,0.0,0.0,0.0,0.0,0.0,0.0,0.0,0.0,0.0,0.0,0.0,0.0,0.0,0.0,0.0,0.0,0.0,0.0,0.0,0.0,0.0,0.0,0.0,0.0,0.0,0.0,0.0,0.0,0.0,0.0,0.0,0.0,0.0,0.0,0.0,0.0,0.0,0.0,0.0,0.0,0.0,0.0,0.0,0.0,0.0,0.0,0.0,0.0,0.0,0.0,0.0,0.0,0.0,0.0,0.0,0.0,0.0,0.0,0.0,0.0,-2.6119,-2.5879,-2.5625,-2.5451,-2.517,-2.4983,-2.4983,-2.4877,-2.501,-2.5478,0.0,0.0,0.0,0.0,0.0,0.0,0.0,0.0,0.0,0.0,0.0,0.0,0.0,0.0,0.0,0.0,0.0,0.0,0.0,0.0,0.0,0.0,0.0,0.0,0.0,0.0,0.0,0.0,0.0,0.0,0.0,0.0,0.0,0.0,0.0,0.0,0.0,0.0,0.0,0.0,0.0,0.0,0.0,0.0,0.0,0.0,0.0,0.0,0.0,0.0,0.0,0.0,0.0,0.0,0.0,0.0,0.0,0.0,0.0,0.0,0.0,0.0,0.0,0.0,0.0,0.0,0.0,0.0,0.0,0.0,0.0,0.0,0.0,0.0,0.0,0.0,0.0,0.0,0.0,0.0,0.0,0.0,0.0,0.0,0.0,0.0,0.0,0.0,0.0,0.0,0.0,0.0,0.0,0.0,0.0,0.0,0.0,0.0,0.0,0.0,0.0,0.0,-2.6386,-2.6146,-2.605,-2.5999,-2.5705,-2.5518,-2.5518,-2.5277,-2.5237,-2.5491,0.0,0.0,0.0,0.0,0.0,0.0,0.0,0.0,0.0,0.0,0.0,0.0,0.0,0.0,0.0,0.0,0.0,0.0,0.0,0.0,0.0,0.0,0.0,0.0,0.0,0.0,0.0,0.0,0.0,0.0,0.0,0.0,0.0,0.0,0.0,0.0,0.0,0.0,0.0,0.0,0.0,0.0,0.0,0.0,0.0,0.0,0.0,0.0,0.0,0.0,0.0,0.0,0.0,0.0,0.0,0.0,0.0,0.0,0.0,0.0,-2.054,-2.0618,0.0,0.0,0.0,0.0,0.0,0.0,0.0,0.0,0.0,0.0,0.0,0.0,0.0,0.0,0.0,0.0,0.0,0.0,0.0,0.0,0.0,0.0,0.0,0.0,0.0,0.0,0.0,0.0,0.0,0.0,0.0,0.0,0.0,0.0,0.0,0.0,0.0,0.0,0.0,0.0,-2.6694,-2.6279,-2.6039,-2.6279,-2.5825,-2.5518,-2.5518,-2.5451,-2.5451,-2.5504,-2.5518,0.0,0.0,0.0,0.0,0.0,0.0,0.0,0.0,0.0,0.0,0.0,0.0,0.0,0.0,0.0,0.0,0.0,0.0,0.0,0.0,0.0,0.0,0.0,0.0,0.0,0.0,0.0,0.0,0.0,0.0,0.0,0.0,0.0,0.0,0.0,0.0,0.0,0.0,0.0,0.0,0.0,0.0,0.0,0.0,0.0,0.0,0.0,0.0,0.0,0.0,0.0,0.0,0.0,0.0,0.0,0.0,0.0,0.0,0.0,-2.0845,-2.0861,0.0,0.0,0.0,0.0,0.0,0.0,0.0,0.0,0.0,0.0,0.0,0.0,0.0,0.0,0.0,0.0,0.0,0.0,0.0,0.0,0.0,0.0,0.0,0.0,0.0,0.0,0.0,0.0,0.0,0.0,0.0,0.0,0.0,0.0,0.0,0.0,0.0,0.0,0.0,0.0,-2.68,-2.656,-2.6426,-2.6587,-2.6199,-2.5932,-2.5932,-2.5812,-2.5732,-2.5732,-2.5732,0.0,0.0,0.0,0.0,0.0,0.0,0.0,0.0,0.0,0.0,0.0,0.0,0.0,0.0,0.0,0.0,0.0,0.0,0.0,0.0,0.0,0.0,0.0,0.0,0.0,0.0,0.0,0.0,0.0,0.0,0.0,0.0,0.0,0.0,0.0,0.0,0.0,0.0,0.0,0.0,0.0,0.0,0.0,0.0,0.0,0.0,0.0,0.0,0.0,0.0,0.0,0.0,0.0,-2.3547,-2.3096,-2.3047,-2.3263,-2.2734,-2.1724,-2.1724,-2.1721,-2.1683,-2.1462,0.0,0.0,0.0,0.0,0.0,0.0,0.0,0.0,0.0,0.0,0.0,0.0,0.0,0.0,0.0,0.0,0.0,0.0,0.0,0.0,0.0,0.0,-2.2499,-2.5625,-2.6386,-2.6253,-2.5772,0.0,0.0,0.0,0.0,0.0,0.0,0.0,0.0,0.0,0.0,0.0,-2.6974,-2.6934,-2.6921,-2.6974,-2.672,-2.6547,-2.6547,-2.6279,-2.6092,-2.6039,-2.6063,-2.5852,0.0,0.0,0.0,0.0,0.0,0.0,0.0,0.0,0.0,0.0,0.0,0.0,0.0,0.0,0.0,0.0,0.0,0.0,0.0,0.0,0.0,0.0,0.0,0.0,0.0,0.0,0.0,0.0,0.0,0.0,0.0,0.0,-2.2006,-2.1311,0.0,0.0,0.0,0.0,0.0,0.0,0.0,0.0,0.0,0.0,0.0,0.0,0.0,-2.4207,-2.3121,-2.3113,-2.2577,-2.1677,-2.2535,-2.2957,-2.293,-2.3971,-2.4313,-2.4168,-2.4168,0.0,-2.2786,-2.1831,0.0,0.0,0.0,0.0,0.0,0.0,0.0,0.0,0.0,0.0,0.0,0.0,0.0,0.0,0.0,0.0,0.0,0.0,0.0,0.0,0.0,0.0,-2.2686,-2.5678,-2.6386,-2.6373,-2.6293,-2.6266,-2.6266,-2.6266,-2.6266,-2.6293,0.0,0.0,0.0,0.0,0.0,0.0,-2.7549,-2.7362,-2.7308,-2.7562,-2.7321,-2.7148,-2.7148,-2.6881,-2.66,-2.6346,-2.6092,-2.601,-2.5905,-2.5972,0.0,0.0,0.0,0.0,0.0,0.0,0.0,0.0,0.0,0.0,0.0,0.0,0.0,0.0,0.0,0.0,0.0,0.0,0.0,0.0,0.0,0.0,0.0,0.0,0.0,0.0,0.0,0.0,0.0,-2.2114,-2.2166,-2.2019,-2.1444,-2.119,0.0,0.0,0.0,0.0,0.0,0.0,0.0,0.0,0.0,-2.2108,-2.3281,-2.3657,-2.3206,-2.3886,-2.3967,-2.3594,-2.4102,-2.4356,-2.4369,-2.489,-2.513,-2.5144,-2.5304,-2.5154,-2.4594,-2.2911,-2.2639,-2.3183,0.0,0.0,0.0,0.0,-2.2613,-2.1979,-2.1222,-2.058,-2.0054,-2.0054,0.0,0.0,0.0,0.0,0.0,0.0,0.0,-1.9078,-2.1189,-2.2365,-2.3527,-2.5638,-2.6266,-2.6386,-2.6386,-2.6386,-2.644,-2.66,-2.6627,-2.6734,-2.7068,-2.7094,0.0,0.0,0.0,-2.7615,-2.7909,-2.7843,-2.7886,-2.7936,-2.7682,-2.7442,-2.7281,-2.7148,-2.6947,-2.6653,-2.6507,-2.6293,-2.605,-2.6266,-2.6346,0.0,0.0,0.0,0.0,0.0,0.0,0.0,0.0,0.0,0.0,0.0,0.0,0.0,0.0,0.0,0.0,0.0,0.0,0.0,0.0,0.0,0.0,0.0,0.0,0.0,0.0,0.0,0.0,-2.233,-2.2172,-2.209,-2.1099,-2.0585,0.0,0.0,0.0,0.0,0.0,0.0,-2.135,-2.154,-2.167,-2.167,-2.2886,-2.3647,-2.3888,-2.5404,-2.6219,-2.644,-2.6523,-2.655,-2.6564,-2.5963,-2.5732,-2.5745,-2.5972,-2.6066,-2.5919,-2.4075,-2.3392,-2.3471,-2.345,-2.4039,-2.4827,-2.3992,-2.3699,-2.3568,-2.2603,-2.2205,-2.2205,-2.2205,-2.2151,-2.2084,-2.2004,0.0,0.0,0.0,0.0,-2.0374,-2.1844,-2.306,-2.4249,-2.5718,-2.6226,-2.6386,-2.6386,-2.6386,-2.6453,-2.6667,-2.6774,-2.6961,-2.7402,-2.7415,0.0,-2.7669,-2.7829,-2.8016,-2.823,-2.8323,-2.8377,-2.8377,-2.811,-2.7843,-2.7629,-2.7468,-2.7281,-2.7054,-2.6974,-2.6707,-2.6199,-2.6587,-2.6613,-2.6186,0.0,0.0,0.0,0.0,0.0,0.0,0.0,0.0,0.0,0.0,0.0,0.0,0.0,0.0,0.0,0.0,0.0,0.0,0.0,0.0,0.0,0.0,0.0,0.0,0.0,0.0,0.0,0.0,0.0,-2.0788,-2.0384,0.0,0.0,0.0,0.0,-2.2722,-2.1777,-2.1141,-2.1141,-2.2418,-2.322,-2.322,-2.4623,-2.5384,-2.5398,-2.7759,-2.8987,-2.9017,-2.9239,-2.9389,-2.9311,-2.7264,-2.6346,-2.6346,-2.636,-2.6373,-2.6266,-2.505,-2.4516,-2.4415,-2.3372,-2.2997,-2.3065,-2.2942,-2.2956,-2.2956,-2.2887,-2.2819,-2.2819,-2.2819,-2.2632,-2.2352,-2.2071,-2.1937,0.0,0.0,-2.1804,-2.2191,-2.3688,-2.4128,-2.4556,-2.6012,-2.6373,-2.6386,-2.6386,-2.6386,-2.6386,-2.6413,-2.664,-2.6827,-2.6867,0.0,-2.7682,-2.7696,-2.819,-2.8564,-2.8577,-2.8818,-2.8991,-2.8991,-2.8738,-2.8551,-2.8537,-2.8003,-2.7669,-2.7655,-2.7402,-2.7108,-2.6787,-2.6814,-2.6814,-2.6774,-2.6787,0.0,0.0,0.0,0.0,0.0,0.0,0.0,0.0,0.0,0.0,0.0,0.0,0.0,0.0,0.0,0.0,0.0,0.0,0.0,0.0,0.0,0.0,0.0,0.0,0.0,0.0,0.0,0.0,-2.4983,-2.3042,0.0,-2.4177,-2.2213,-2.1186,-2.2052,-2.2538,-2.2819,-2.2819,-2.4222,-2.5024,-2.5024,-2.5705,-2.6159,-2.6346,-2.7231,-2.8461,-3.0054,-3.0096,-3.093,-3.2248,-3.0076,-2.9058,-2.9073,-2.9275,-2.9361,-2.9427,-3.0581,-2.8978,-2.5745,-2.5504,-2.5411,-2.5438,-2.5625,-2.5692,-2.5692,-2.5692,-2.5692,-2.5665,-2.5478,-2.5211,-2.4783,-2.3728,-2.3541,-2.3487,-2.2525,-2.2953,-2.3808,-2.4342,-2.5184,-2.5972,-2.6306,-2.6533,-2.6667,-2.6667,-2.6667,-2.672,-2.6921,-2.6881,-2.6947,-2.7321,-2.7562,-2.7762,-2.7949,-2.8163,-2.8444,-2.8831,-2.8978,-2.9112,-2.9312,-2.9058,-2.8804,-2.8617,-2.823,-2.7896,-2.7709,-2.7602,-2.7415,-2.7121,-2.7281,-2.7295,-2.7108,-2.7295,-2.7388,0.0,0.0,0.0,0.0,0.0,0.0,0.0,0.0,0.0,0.0,0.0,0.0,0.0,0.0,0.0,0.0,0.0,0.0,0.0,0.0,0.0,0.0,0.0,0.0,0.0,-2.6047,-2.6506,-2.6984,-2.4958,-2.4188,-2.5945,-2.3847,-2.2795,-2.3856,-2.4222,-2.4409,-2.4502,-2.5518,-2.6106,-2.6106,-2.7083,-2.7578,-2.7675,-2.9172,-3.0821,-3.2456,-3.2697,-3.3602,-3.4879,-3.2842,-3.1944,-3.196,-3.2301,-3.2457,-3.257,-3.4376,-3.2915,-2.9566,-2.9485,-2.9485,-2.9514,-2.9717,-2.9804,-2.9708,-2.8807,-2.8044,-2.7348,-2.6947,-2.676,-2.648,-2.5411,-2.5291,-2.5317,-2.4329,-2.477,-2.5518,-2.5518,-2.6239,-2.6921,-2.6734,-2.6827,-2.6947,-2.6841,-2.6827,-2.6854,-2.6947,-2.7054,-2.7241,-2.7629,-2.7789,-2.7949,-2.8257,-2.8297,-2.8484,-2.8978,-2.9045,-2.9152,-2.9446,-2.9125,-2.8858,-2.8764,-2.8657,-2.8377,-2.7883,-2.8136,-2.803,-2.7442,-2.7789,-2.7909,-2.7722,-2.7909,-2.7949,-2.7843,0.0,0.0,0.0,0.0,0.0,0.0,0.0,0.0,0.0,0.0,0.0,0.0,0.0,0.0,0.0,0.0,0.0,0.0,0.0,0.0,0.0,0.0,0.0,-2.8384,-2.8957,-2.8606,-2.6383,-2.589,-2.5914,-2.6383,-2.489,-2.516,-2.8253,-2.6662,-2.5678,-2.605,-2.6266,-2.6506,-2.6506,-2.8734,-2.9837,-2.9586,-3.3916,-3.62,-3.6276,-3.6976,-3.7337,-3.7355,-3.5629,-3.4813,-3.483,-3.5178,-3.5426,-3.546,-3.5892,-3.6125,-3.5975,-3.5128,-3.4765,-3.4765,-3.4765,-3.4765,-3.4375,-3.1767,-2.9567,-2.7685,-2.7041,-2.7054,-2.7228,-2.6947,-2.7068,-2.7308,-2.7308,-2.7308,-2.7321,-2.7308,-2.7308,-2.7308,-2.7281,-2.7281,-2.7201,-2.6907,-2.6841,-2.6747,-2.648,-2.7108,-2.7682,-2.7669,-2.7923,-2.823,-2.8537,-2.8591,0.0,-2.8991,-2.9032,-2.9152,-2.9472,-2.8991,-2.8764,-2.9045,-2.9325,-2.9098,-2.8288,-2.8965,-2.8925,-2.7762,-2.8283,-2.8591,-2.8604,-2.8631,-2.8484,-2.8261,0.0,0.0,0.0,0.0,0.0,0.0,0.0,0.0,0.0,0.0,0.0,0.0,0.0,0.0,0.0,0.0,0.0,0.0,0.0,0.0,0.0,-3.0059,-3.1125,-2.9865,-2.8846,-2.8509,-2.9022,-2.6866,-2.5949,-2.7701,-2.6346,-2.5783,-2.6633,-2.6527,-2.6493,-2.6587,-2.7068,-2.8057,-2.9638,-3.0595,-3.1675,-3.3258,-3.4475,-3.5894,-3.7427,-3.7625,-3.8559,-4.0025,-3.7939,-3.7002,-3.702,-3.7125,-3.7319,-3.7746,-3.9505,-4.031,-4.0309,-3.6916,-3.5593,-3.5593,-3.5593,-3.5427,-3.4572,-3.0412,-2.9422,-2.9799,-2.833,-2.7696,-2.7602,-2.7736,-2.7989,-2.8243,-2.8243,-2.839,-2.8511,-2.8297,-2.8243,-2.8123,-2.7682,-2.7575,-2.7562,-2.7482,-2.7295,-2.7188,-2.7308,-2.7362,-2.7308,-2.7094,-2.7482,-2.7843,-2.7936,-2.8136,-2.8377,-2.8684,-2.8724,-2.9085,-3.002,-2.978,-2.9593,-2.9673,-2.9553,-2.9098,-2.8288,-2.8462,-2.8449,-2.8114,-2.8177,-2.8377,-2.8604,-2.9032,-2.9098,0.0,0.0,0.0,0.0,0.0,0.0,0.0,0.0,0.0,0.0,0.0,0.0,0.0,0.0,0.0,0.0,0.0,0.0,0.0,0.0,0.0,0.0,-3.1601,-3.3256,-3.2955,-3.1963,-3.1436,-3.1995,-2.9566,-2.8402,-2.9769,-2.762,-2.6524,-2.7353,-2.7146,-2.7068,-2.7188,-2.851,-2.9821,-3.1123,-3.2949,-3.3952,-3.4206,-3.5973,-3.7016,-3.7409,-3.8453,-3.9677,-4.0918,-3.9959,-3.9538,-3.9557,-3.9893,-4.0192,-4.0578,-4.2017,-4.2734,-4.2667,0.0,0.0,0.0,0.0,-3.7597,-3.6195,-3.3394,-3.1848,-3.0989,-2.9953,-2.9578,-2.9397,-2.8609,-2.9207,-3.004,-2.9036,-2.8911,-2.8965,-2.8684,-2.8604,-2.8484,-2.8003,-2.7883,-2.7856,-2.7722,-2.7468,-2.7281,-2.7321,-2.7201,0.0,-2.6854,-2.7308,-2.7736,-2.7869,-2.8114,-2.8297,-2.8738,-2.8684,-2.8911,-2.9726,-2.9539,-2.9366,-2.9366,-2.9432,0.0,0.0,0.0,-2.847,-2.8337,-2.8301,0.0,0.0,0.0,-2.8711,-2.8297,-2.8417,0.0,0.0,-2.7829,-2.7749,0.0,0.0,0.0,0.0,0.0,0.0,0.0,0.0,0.0,0.0,0.0,0.0,0.0,0.0,0.0,0.0,-3.2871,-3.4941,-3.6582,-3.6484,-3.5723,-3.4324,-3.2577,-3.1544,-3.1776,-2.8569,-2.7296,-2.9398,-2.8211,-2.7633,-2.8137,-3.0213,0.0,0.0,0.0,-3.6428,-3.4497,-3.8135,-3.909,-3.7176,-3.9452,-4.0625,-4.0684,-4.1445,-4.1836,-4.1914,-4.2676,-4.3027,-4.3105,-4.3437,-4.3555,-4.3496,-4.2773,-4.2461,-4.2303,-4.1754,-4.0447,-3.8831,-3.8068,0.0,0.0,-3.2205,-3.2335,-3.2089,-3.0155,-3.1109,-3.2513,-3.0156,-2.9474,-2.9406,-2.8824,-2.8657,-2.8564,-2.8315,-2.8221,-2.814,-2.7762,-2.7468,-2.7188,-2.6921,-2.6867,-2.6881,-2.6907,-2.7348,-2.7802,-2.8181,-2.8261,-2.8404,-2.8965,-2.8818,-2.8778,-2.9098,-2.8911,0.0,-2.8711,-2.9179,-2.8991,-2.7829,-2.8497,-2.8804,-2.8511,-2.827,-2.8257,-2.8497,-2.827,-2.7966,-2.7362,-2.7629,-2.7749,-2.7749,-2.8016,-2.7953,0.0,0.0,0.0,0.0,0.0,0.0,0.0,0.0,0.0,0.0,0.0,0.0,0.0,0.0,0.0,-3.1289,-3.4082,-3.6523,-3.7539,-3.7617,-3.6202,-3.2719,-3.0636,-2.9778,-3.039,-2.8179,-2.7696,-3.0131,-2.8839,-2.8813,-3.0724,-3.1366,-3.3348,-3.7038,-3.757,-3.8401,-3.9715,-4.0511,-4.0763,-4.0356,-4.0841,0.0,-4.1562,-4.1719,-4.1992,-4.2305,-4.248,-4.2754,-4.3047,-4.2793,-4.2676,-4.2695,-4.2871,-4.2734,-4.2162,-4.0416,-4.054,-4.1124,-3.7526,-3.6933,-3.7479,-3.5957,-3.5515,-3.5544,-3.5323,-3.5537,0.0,-3.3201,-3.2515,-3.2033,-2.952,-2.8951,-2.8818,-2.8355,-2.8221,-2.814,-2.7762,-2.7468,-2.7241,-2.7188,-2.7175,-2.7255,-2.7482,-2.7615,-2.7802,-2.8181,-2.835,-2.8644,-2.8991,-2.8991,-2.9152,-2.9686,-2.97,-2.9566,-2.9339,-2.9419,-2.9072,-2.8194,-2.8217,-2.8177,-2.7883,-2.8043,-2.814,-2.7883,-2.8056,-2.8167,-2.806,-2.8114,-2.814,-2.814,-2.8207,-2.8167,0.0,0.0,0.0,0.0,0.0,0.0,0.0,0.0,0.0,0.0,0.0,-2.8379,-2.8594,0.0,-3.2617,-3.3047,-3.5469,-3.7441,-3.7871,-3.8301,-3.7728,-3.5484,-3.3672,-3.2332,-3.1605,-2.9774,-2.9289,-3.0725,-3.0379,-3.1062,-3.3356,-3.4684,-3.6368,-3.8312,-3.9165,-3.9531,-3.9531,-4.0685,-4.0685,-3.9531,-4.0685,-4.1289,-4.1504,-4.1914,-4.2226,-4.2441,-4.2871,-4.3183,-4.3359,-4.293,-4.25,-4.2129,-4.2363,-4.2441,-4.2242,-4.0948,-4.1193,-4.1771,-3.9608,-3.8987,-3.8976,-3.8272,-3.8197,-3.8133,-3.7125,-3.7604,-3.8118,-3.5707,-3.5114,-3.4697,-3.2815,-3.1553,-3.0609,-3.0113,-2.9184,-2.8377,-2.8364,-2.8136,-2.7936,-2.7936,-2.7816,-2.7749,-2.7896,-2.8043,-2.8203,-2.835,-2.8631,-2.8925,-2.9219,-2.9259,-2.9379,-2.9673,-2.9566,-2.9366,-2.9072,-2.8764,-2.8404,-2.7949,-2.7789,-2.7696,-2.7696,-2.7696,-2.7696,-2.7696,-2.7696,-2.7629,-2.7482,-2.7629,-2.7792,-2.7792,-2.7856,-2.7923,0.0,0.0,0.0,0.0,0.0,0.0,0.0,-2.8496,-2.9199,-3.0605,-3.0957,-3.1113,-3.1445,-3.2988,-3.4336,-3.4766,-3.6562,-3.7988,-3.8144,-3.8769,-3.9101,-3.8867,-3.6978,-3.5187,-3.393,-3.192,-3.1219,-3.2529,-3.2711,-3.3719,-3.5954,-3.7836,-3.8897,-3.8992,-4.0407,-4.0353,-3.8548,-4.0353,-4.0275,-3.8548,-4.0353,-4.1211,-4.1308,-4.1992,-4.2402,-4.2598,-4.3281,-4.3535,-4.3418,-4.3008,-4.2383,-4.168,-4.168,-4.1894,-4.2148,-4.1894,-4.1797,-4.1816,-4.1894,-4.0891,-3.9713,-4.0024,-4.0492,-4.0487,-3.8611,-3.9427,-4.0511,-3.8118,-3.7569,-3.7296,-3.6273,-3.4397,-3.2689,-3.2259,-3.0724,-2.9322,-2.9092,-2.9136,-2.9104,-2.869,-2.8457,-2.8422,-2.8475,-2.8657,-2.8818,-2.8711,-2.8938,-2.9232,-2.9526,-2.9566,-2.9526,-2.9406,-2.9179,-2.8898,-2.8551,-2.807,-2.7789,-2.7789,-2.7562,-2.7522,-2.7696,-2.7468,-2.7428,-2.7615,-2.7388,-2.7148,-2.6907,-2.7201,-2.7375,-2.7442,-2.7736,-2.7843,-3.01,-2.9555,-2.8819,-2.7309,-2.8398,-2.9863,0.0,-3.0273,-3.0644,-3.0859,-3.1191,-3.1465,-3.1504,-3.3223,-3.4785,-3.5234,-3.6777,-3.8184,-3.8945,-3.9141,-3.9336,-3.9707,-3.6249,-3.4742,-3.6749,-3.3678,-3.3201,-3.7407,-3.6171,-3.6324,-3.8669,-3.8545,-3.927,-4.1303,-4.1308,-4.1094,-4.0841,-4.1094,-4.1094,-4.0841,-4.1094,-4.1367,-4.1738,-4.1836,-4.2285,-4.3008,-4.3105,-4.293,-4.2539,-4.2109,-4.166,-4.125,-4.125,-4.1269,-4.1348,-4.168,-4.1797,-4.1855,-4.2226,-4.2222,-4.202,-4.2059,-4.2369,-4.2717,-4.2471,-4.2804,-4.2844,-4.0511,-4.0171,-3.9922,-3.7501,-3.5383,-3.3796,-3.3466,-3.2905,-3.1787,-2.9507,-3.0382,-3.0974,-2.9019,-2.8791,-2.9018,-2.9285,-2.9579,-2.9593,-2.9072,-2.9245,-2.9539,-2.9833,-2.9873,-2.9673,-2.9152,-2.9058,-2.8804,-2.8328,-2.8221,-2.8181,-2.8181,-2.814,-2.7936,-2.7709,-2.7669,-2.7549,-2.7321,-2.7281,-2.7255,-2.7215,-2.7509,-2.7789,-2.814,-2.8364,-2.8364,-3.3442,-3.1834,-3.0281,-3.0083,-3.0684,-3.1465,-3.1953,-3.2422,-3.3027,-3.4043,-3.459,-3.4961,-3.5195,-3.5976,-3.6719,-3.7168,-3.8047,-3.8789,-3.9141,-3.9648,-4.0039,-4.0234,-3.7828,-3.643,-3.7319,-3.6327,-3.6504,-3.8716,-3.697,-3.7387,-4.0833,-3.9355,-3.9363,-4.1367,-4.1269,-4.1172,-4.1172,-4.1172,-4.1172,-4.1172,-4.1172,-4.1269,-4.1445,-4.1953,-4.2637,-4.3418,-4.291,-4.2598,-4.2383,-4.1699,-4.1328,-4.1172,-4.1172,-4.1172,-4.1191,-4.1367,-4.1426,-4.1465,-4.1641,-4.1855,-4.207,-4.207,-4.2344,-4.2695,-4.2695,-4.3164,-4.3526,-4.2576,-4.2734,-4.298,-4.1615,-3.97,-3.8059,-3.7602,-3.6371,-3.4933,-3.3772,-3.3203,-3.2925,-3.3269,-3.1263,-3.0022,-3.1532,-3.0698,-2.9833,-2.9593,-2.9659,-2.978,-2.99,-2.9913,-2.9686,-2.9098,-2.8885,-2.8617,-2.8261,-2.8221,-2.8221,-2.8221,-2.8221,-2.8167,-2.7963,-2.7963,-2.7896,-2.7859,-2.7859,-2.7696,-2.7522,-2.7816,-2.8016,-2.8234,-2.8457,-2.8631,-3.4491,-3.3148,-3.2156,-3.2315,-3.2695,-3.3242,-3.3965,-3.4473,-3.5176,-3.6562,-3.7187,-3.7559,-3.7871,-3.8027,-3.8242,-3.8672,-3.9004,-3.9277,-3.9531,-4.0117,-4.0566,-4.0684,-3.9691,-3.884,-3.8564,-3.8657,-3.9086,-3.9966,-3.8558,-3.9014,-4.2086,-4.0348,-3.9832,-4.1172,-4.1172,-4.1172,-4.1172,-4.1172,-4.1172,-4.1172,-4.1172,-4.1172,-4.1211,-4.2051,-4.2637,-4.2988,-4.2598,-4.2285,-4.2031,-4.1426,-4.1172,-4.1172,-4.1172,-4.1172,-4.1172,-4.1172,-4.1172,-4.1172,-4.1172,-4.1367,-4.1621,-4.1621,-4.1914,-4.2266,-4.2402,-4.3027,-4.373,-4.3867,-4.4531,-4.5137,-4.4824,-4.3055,-4.1211,-4.0818,-3.9371,-3.7842,-3.7065,-3.6031,-3.562,-3.6572,-3.4067,-3.2337,-3.4082,-3.2955,-3.1568,-3.0959,-3.087,-3.0616,-3.0003,-2.978,-2.9513,-2.9085,-2.8698,-2.839,-2.8248,-2.8221,-2.8221,-2.8221,-2.8221,-2.8221,-2.8221,-2.8221,-2.8221,-2.8221,-2.8796,-2.8687,-2.7816,-2.8687,-2.8878,-2.839,-2.8617,-2.8925,-3.0803,-3.1998,-3.3643,-3.2994,-3.4043,-3.541,-3.584,-3.6269,-3.6719,-3.7187,-3.7617,-3.791,-3.793,-3.8262,-3.8691,-3.9121,-3.9199,-3.9492,-4.0351,-4.0508,-4.0684,-4.1094,-4.1445,-4.1698,-4.1679,-4.0148,-4.0066,-4.2181,-4.2261,-4.2086,-4.1836,-4.1328,-4.1094,-4.1172,-4.1172,-4.1172,-4.1172,-4.1172,-4.1172,-4.1172,-4.1172,-4.1172,-4.1211,-4.2051,-4.1992,-4.1289,-4.209,-4.1973,-4.1211,-4.1191,-4.1172,-4.1172,-4.1172,-4.1172,-4.1172,-4.1172,-4.1172,-4.1172,-4.1172,-4.1172,-4.1191,-4.1191,-4.1484,-4.1894,-4.2305,-4.3027,-4.3789,-4.4258,-4.5,-4.5644,-4.5644,-4.3834,-4.2008,-4.1902,-4.1239,-3.9978,-3.7795,-3.8718,-3.9395,-3.7261,-3.6658,-3.6572,-3.6658,-3.6658,-3.5793,-3.3644,-3.3307,-3.2425,-3.0182,-2.9419,-2.9058,-2.9045,-2.8511,-2.8234,-2.8221,-2.8221,-2.8221,-2.8221,-2.8221,-2.8221,-2.8221,-2.8221,-2.8221,-2.8221,-3.026,-3.026,-2.8207,-3.026,-3.0492,-2.9005,-2.9018,-2.9339,-3.2577,-3.2874,-3.3458,-3.4609,-3.5371,-3.5996,-3.6699,-3.7187,-3.7539,-3.7676,-3.7148,-3.6758,-3.7031,-3.6973,-3.7109,-3.7812,-3.8906,-3.9863,-4.0449,-4.0781,-4.1113,-4.1543,-4.1719,-4.2031,-4.2598,-4.1837,-4.1579,-4.2342,-4.083,-4.0363,-4.1718,-3.9994,-3.9688,-4.1172,-4.1172,-4.1308,-4.1582,-4.1582,-4.1738,-4.2012,-4.2012,-4.2168,-4.2441,-4.2734,-4.2539,-4.2012,-4.2012,-4.1699,-4.1152,-4.0859,-4.0918,-4.1172,-4.1172,-4.1172,-4.1172,-4.1172,-4.1172,-4.1172,-4.1172,-4.1172,-4.1211,-4.1504,-4.168,-4.1875,-4.2305,-4.3242,-4.4199,-4.4355,-4.5215,-4.6094,-4.6094,-4.5444,-4.4679,-4.4109,-4.3766,-4.315,-4.1891,-4.0873,-4.0511,-4.1202,-3.8885,-3.7261,-3.8885,-3.7861,-3.6053,-3.3731,-3.2086,-3.0781,-3.0003,-2.9406,-2.9045,-2.9045,-2.8497,-2.8221,-2.8221,-2.8221,-2.8221,-2.8221,-2.8221,-2.8221,-2.8221,-2.8221,-2.888,-3.026,-3.0993,-3.1805,-3.2546,-3.3423,-3.2936,-3.121,-3.1354,-3.0909,-3.4276,-3.4258,-3.4302,-3.6073,-3.6484,-3.666,-3.7363,-3.7734,-3.7969,-3.8125,-3.7012,-3.6152,-3.6582,-3.5937,-3.5605,-3.6484,-3.7559,-3.8652,-3.9687,-4.0195,-4.0801,-4.1699,-4.207,-4.2402,0.0,-4.2598,-4.2422,-4.2422,-4.0697,-4.0235,-4.1503,-3.9997,-3.9764,-4.1387,-4.1387,-4.1601,-4.2031,-4.2031,-4.2148,-4.2422,-4.2422,-4.2656,-4.3066,-4.291,-4.2617,-4.2187,-4.1758,-4.1328,-4.0918,-4.0644,-4.0781,-4.1172,-4.1172,-4.1172,-4.1172,-4.1172,-4.1172,-4.1172,-4.1172,-4.1269,-4.1445,-4.1719,-4.1894,-4.2109,-4.2539,-4.3476,-4.4433,-4.457,-4.543,-4.6308,-4.6308,-4.6191,-4.5898,-4.5195,-4.4902,-4.4609,-4.3867,-4.2576,-4.1974,-4.3443,-4.1286,-3.9752,-4.1286,-3.9564,-3.7518,-3.6053,-3.3892,-3.1731,-3.0093,-2.9406,-2.9045,-2.9045,-2.8497,-2.8221,-2.8221,-2.8221,-2.8221,-2.8221,-2.8221,-2.8558,-2.9286,-2.937,-3.0343,-3.2546,-3.3349,-3.3676,-3.3512,-3.4474,-3.3604,-3.1138,-3.1267,-3.0821,-3.5549,-3.5911,-3.6228,-3.7075,-3.7324,-3.7441,-3.7851,-3.7969,-3.8047,-3.8379,-3.709,-3.5996,0.0,0.0,-3.4394,-3.5293,-3.5586,-3.6445,-3.8496,-3.9121,-3.998,0.0,0.0,0.0,0.0,0.0,-4.2422,-4.2402,-4.2012,-4.1601,-4.1191,-4.1191,-4.1387,-4.1797,-4.1816,-4.2031,-4.2461,-4.248,-4.25,-4.25,-4.25,-4.2715,-4.3086,-4.2656,-4.2207,-4.1777,-4.1406,-4.0976,-4.0566,-4.0586,-4.084,-4.1211,-4.1172,-4.1172,-4.1172,-4.1191,-4.1211,-4.1211,-4.123,-4.1484,-4.1816,-4.1855,-4.2129,-4.2539,-4.2969,-4.373,-4.4512,-4.4902,-4.5644,-4.6308,-4.6308,-4.6016,-4.5586,-4.5137,-4.4726,-4.4297,-4.3808,-4.3711,-4.3711,-4.3711,-4.3711,-4.3711,-4.3711,-4.189,-4.0427,-4.0343,-3.8374,-3.5273,-3.0691,-2.967,-2.9306,-2.9206,-2.8852,-2.8487,-2.8389,-2.8389,-2.8389,-2.8389,-2.8389,-2.937,-3.1475,-3.1557,-3.2628,-3.4813,-3.6842,-3.5863,-3.1722,-3.3855,-3.2902,-2.9092,-2.9132,-2.944,-3.6143,-3.6451,-3.7075,-3.761,-3.7773,-3.7871,-3.8301,-3.8418,-3.8086,-3.6914,-3.5293,-3.3828,-3.2988,-3.3769,-3.4824,-3.5723,-3.8281,0.0,-4.1328,-4.1543,0.0,-4.2656,0.0,-4.3027,-4.293,-4.2617,0.0,-4.1992,-4.1562,-4.1289,-4.1172,-4.1465,-4.1699,-4.1797,-4.2109,-4.248,-4.291,-4.3223,-4.3379,-4.3379,-4.3379,-4.3437,-4.3535,-4.3105,-4.25,-4.1816,-4.2012,-4.1699,-4.1035,-4.1348,-4.1543,-4.1601,-4.1289,-4.1172,-4.1211,-4.1523,-4.1641,-4.168,-4.1992,-4.1973,-4.1914,-4.2539,-4.2832,-4.2988,-4.3418,-4.416,-4.4883,-4.5,-4.5644,-4.6308,-4.6308,-4.623,-4.5957,-4.5195,-4.4941,-4.4648,-4.3867,-4.3711,-4.3711,-4.3711,-4.3711,-4.3711,-4.3711,-4.3195,-4.2243,-4.0596,-3.9818,-3.7759,-3.3131,-3.3716,-3.3777,-3.1653,-3.2678,-3.2726,-3.0773,-3.0578,-3.0578,-3.0578,-3.0578,-3.1557,-3.3757,-3.3839,-3.4894,-3.7002,-3.7657,-3.7321,-3.6264,-3.7042,-3.5229,-3.1104,-3.1512,-3.0986,-3.7094,-3.7173,-3.7676,-3.8105,-3.8203,-3.8086,-3.7578,-3.7461,-3.6953,-3.5234,-3.3516,-3.2148,-3.1621,-3.2656,-3.3867,0.0,0.0,0.0,-4.1152,-4.1465,-4.1973,0.0,-4.3086,0.0,-4.2812,-4.2402,-4.1973,-4.1562,-4.1308,-4.125,-4.1445,-4.168,-4.1973,-4.2344,-4.2598,-4.293,-4.3359,-4.3594,-4.3711,-4.3711,-4.3711,-4.3808,-4.3984,-4.3164,-4.2637,-4.2324,-4.1816,-4.1543,-4.1445,-4.1504,-4.1738,-4.2051,-4.1816,-4.1719,-4.1758,-4.1992,-4.207,-4.2129,-4.2558,-4.2558,-4.2441,-4.293,-4.3203,-4.3398,-4.3633,-4.4316,-4.5019,-4.5019,-4.5644,-4.6308,-4.6308,-4.6308,-4.6133,-4.5469,-4.5312,-4.5078,-4.4199,-4.4004,-4.3945,-4.375,-4.3711,-4.3711,-4.3711,-4.3711,-4.3278,-4.1974,-4.1807,-4.0511,-3.69,-3.6198,-3.5534,-3.3992,-3.4518,-3.4458,-3.2956,-3.2858,-3.2858,-3.2858,-3.2858,-3.3839,-3.6023,-3.6121,-3.7099,-3.9295,-3.839,-3.7419,-3.6522,-3.5831,-3.3786,-3.0539,-3.105,-3.0747,-3.8107,-3.7969,-3.8105,-3.8476,-3.8574,-3.8125,-3.6406,-3.6016,-3.5469,-3.3496,-3.1914,-3.0937,-3.1055,-3.168,-3.25,-3.3516,0.0,-3.7754,-3.9922,-4.0547,-4.1328,-4.2812,-4.2988,-4.2812,-4.2383,-4.2012,-4.1621,-4.1211,-4.123,-4.1426,-4.1777,-4.1914,-4.2324,-4.3125,-4.3164,-4.334,-4.3691,-4.3711,-4.3711,-4.3711,-4.3711,-4.3926,-4.4258,-4.3008,-4.2637,-4.291,-4.1426,-4.1191,-4.1855,-4.1543,-4.1855,-4.25,-4.2441,-4.2422,-4.2441,-4.25,-4.2519,-4.2578,-4.3008,-4.3164,-4.3164,-4.3164,-4.3418,-4.3711,-4.3711,-4.4316,-4.5019,-4.5019,-4.5644,-4.6308,-4.6308,-4.6308,-4.6191,-4.5781,-4.5683,-4.5449,-4.4648,-4.4433,-4.4277,-4.3867,-4.375,-4.3711,-4.3711,-4.3711,-4.3711,-4.3711,-4.3711,-4.301,-4.1034,-3.846,-3.6576,-3.6142,-3.5902,-3.5578,-3.5154,-3.5137,-3.5137,-3.5137,-3.5137,-3.6138,-3.8304,-3.8329,-3.9235,-4.125,-3.937,-3.725,-3.4734,-3.3146,-3.1235,-2.9045,-2.9379,-2.9659,-3.8748,-3.8184,-3.8476,-3.8555,-3.8574,-3.8125,-3.6406,-3.6016,0.0,0.0,-3.1094,-3.0469,-2.9101,-3.0664,-3.2793,-3.4726,-3.7148,-3.9512,-4.168,-4.2051,-4.2207,0.0,-4.2539,-4.2383,-4.1953,-4.1836,0.0,-4.1211,-4.1484,-4.1719,-4.1797,-4.248,-4.3086,-4.3574,-4.3594,-4.3633,-4.3711,-4.3711,-4.3711,-4.3711,-4.3711,-4.375,-4.3789,-4.2851,-4.2461,-4.2519,-4.2226,-4.2187,-4.2344,-4.2637,-4.2832,-4.293,-4.2558,-4.2422,-4.2461,-4.2832,-4.2969,-4.3027,-4.3437,-4.3594,-4.3594,-4.3594,-4.3652,-4.3711,-4.3711,-4.4316,-4.5019,-4.5019,-4.5644,-4.6308,-4.6308,-4.6308,-4.6191,-4.5781,-4.5683,-4.5527,-4.5019,-4.4648,-4.4375,-4.4297,-4.3965,-4.3711,-4.3711,-4.3711,-4.3711,-4.3711,-4.3711,-4.3526,-4.3176,-4.2627,-4.132,-3.873,-4.0036,-4.0005,-3.7552,-3.7321,-3.7321,-3.7321,-3.7321,-3.8456,-4.101,-4.078,-4.0918,-4.168,-4.1364,-3.9123,-3.5015,-3.5339,-3.3188,-2.8971,-2.9593,-2.974,-4.0053,-3.9174,-3.8574,-3.8574,-3.8574,-3.7891,-3.5273,0.0,0.0,-3.0254,-2.9531,-2.9277,-2.8437,-3.0234,0.0,-3.3516,-3.6797,-3.957,-4.0605,-4.1914,-4.2676,-4.2461,-4.2226,-4.2031,-4.1816,-4.1601,-4.1387,-4.1191,-4.1758,-4.2129,-4.2129,-4.293,-4.3496,-4.3691,-4.3711,-4.3711,-4.3711,-4.3711,-4.3711,-4.3711,-4.3711,-4.3594,-4.3359,-4.2715,-4.2422,-4.2422,-4.2187,-4.2344,-4.2773,-4.2988,-4.3203,-4.3379,-4.3164,-4.3086,-4.3125,-4.332,-4.3398,-4.3437,-4.3633,-4.3711,-4.3711,-4.3711,-4.3711,-4.3711,-4.3711,-4.4316,-4.5019,-4.5019,-4.5644,-4.6308,-4.6308,-4.6308,-4.625,-4.6055,-4.584,-4.5625,-4.541,-4.4863,-4.4394,-4.4394,-4.4023,-4.3711,-4.3711,-4.3711,-4.3711,-4.3711,-4.3711,-4.3711,-4.3711,-4.3711,-4.3026,-4.1311,-4.1894,-4.1846,-4.0348,-4.025,-4.025,-4.025,-4.025,-4.0728,-4.1797,-4.1601,-4.1601,-4.1797,-4.0629,-3.9164,-3.721,-3.661,-3.4501,-3.1064,-3.1518,-3.0965,-4.1207,-3.9962,-3.8574,-3.8574,-3.8574,-3.7676,-3.4199,-3.3418,0.0,-2.9004,-2.8301,-2.8301,-2.8301,-2.9687,-3.1094,0.0,-3.5215,-3.8008,-3.8945,-4.0898,-4.2266,0.0,-4.1992,0.0,-4.168,-4.1367,0.0,-4.1172,-4.1953,-4.25,-4.2695,-4.334,-4.3711,-4.3711,-4.3711,-4.3711,-4.3711,-4.3711,-4.3711,-4.3711,-4.3711,-4.3476,-4.3066,-4.2715,-4.2519,-4.2422,-4.2168,-4.2461,-4.3086,-4.3183,-4.3398,-4.3711,-4.3711,-4.3711,-4.3711,-4.3711,-4.3711,-4.3711,-4.3711,-4.3711,-4.3711,-4.3711,-4.3711,-4.3711,-4.3711,-4.4316,-4.5019,-4.5019,-4.5644,-4.6308,-4.6308,-4.6308,-4.6308,-4.6308,-4.6055,-4.582,-4.582,-4.5215,-4.4668,-4.4668,-4.4238,-4.3848,-4.3848,-4.3769,-4.3711,-4.3711,-4.3711,-4.3711,-4.3711,-4.3711,-4.3574,-4.3242,-4.2832,-4.2519,-4.2441,-4.2422,-4.2422,-4.2422,-4.2422,-4.2324,-4.209,-4.1992,-4.1973,-4.207,-4.0395,-3.9394,-3.9277,-3.7923,-3.5804,-3.3006,-3.326,-3.2174,-4.1213,-3.9962,-3.8574,-3.8574,-3.8574,-3.7676,-3.4199,0.0,-3.2441,-2.9004,-2.8301,-2.8301,-2.8301,-2.8457,-2.9238,0.0,-3.2266,-3.418,-3.8086,-3.916,-4.0137,-4.168,0.0,0.0,-4.1269,-4.1191,-4.1172,-4.1172,-4.1953,-4.2773,-4.3555,-4.3672,-4.3711,-4.3711,-4.3711,-4.3711,-4.3711,-4.3711,-4.3711,-4.3711,-4.3711,-4.3476,-4.3086,-4.3047,-4.2793,-4.2441,-4.2812,-4.3008,-4.3105,-4.3496,-4.3672,-4.3711,-4.3711,-4.3711,-4.3711,-4.3711,-4.3711,-4.3711,-4.3711,-4.3711,-4.3711,-4.3711,-4.3711,-4.3711,-4.3711,-4.4316,-4.5019,-4.5019,-4.5644,-4.6308,-4.6308,-4.6308,-4.6308,-4.6308,-4.6269,-4.625,-4.625,-4.5879,-4.5566,-4.5566,-4.4902,-4.4336,-4.4336,-4.3984,-4.3711,-4.3711,-4.3711,-4.3711,-4.3711,-4.3711,-4.3691,-4.3652,-4.3262,-4.2851,-4.2461,-4.2422,-4.2422,-4.2422,-4.2422,-4.2578,-4.2949,-4.2578,-4.2558,-4.2949,-4.2787,-4.1606,-3.9591,-3.9838,-3.7622,-3.3335,-3.338,-3.2174,-4.3601,-4.25,-4.0228,-4.0228,-3.9482,-3.776,-3.4221,0.0,-3.1211,-2.8789,-2.8301,-2.8301,-2.8301,-2.8301,-2.8574,-2.9434,-3.1035,-3.2835,-3.4473,-3.6211,-3.793,-3.9648,-3.9863,0.0,0.0,0.0,-4.1387,-4.1894,-4.248,-4.3086,-4.3672,-4.3711,-4.3711,-4.3711,-4.3711,-4.3711,-4.3711,-4.3711,-4.3711,-4.3711,-4.3984,-4.3613,-4.2695,-4.3223,-4.3086,-4.2461,-4.2891,-4.3223,-4.3457,-4.3633,-4.3711,-4.3711,-4.3711,-4.3711,-4.3711,-4.3711,-4.3711,-4.3711,-4.3711,-4.3711,-4.3711,-4.3711,-4.3711,-4.3711,-4.3711,-4.4316,-4.5019,-4.5019,-4.5644,-4.6308,-4.6308,-4.6308,-4.6308,-4.6308,-4.6308,-4.6308,-4.6308,-4.5976,-4.5683,-4.5683,-4.5195,-4.4687,-4.4433,-4.4238,-4.4023,-4.375,-4.3711,-4.3711,-4.3711,-4.3711,-4.3711,-4.3711,-4.3555,-4.3379,-4.3203,-4.3183,-4.3183,-4.3183,-4.3183,-4.3164,-4.3086,-4.291,-4.2891,-4.3066,-4.3086,-4.2775,-4.208,-4.0859,-3.863,-3.536,-3.4082,-3.2174,-4.4524,-4.403,-4.1961,-4.1467,-4.0009,-3.7832,0.0,0.0,-3.0391,-2.8652,-2.8301,-2.8301,-2.8301,-2.8301,-2.8301,-2.8301,-2.9941,-3.1484,-3.2246,-3.4023,-3.5937,-3.7793,0.0,-3.8652,-4.0254,-4.0976,-4.166,-4.2383,-4.2832,-4.3262,-4.3691,-4.3711,-4.3711,-4.3711,-4.3711,-4.3711,-4.3711,-4.3711,-4.3711,-4.3711,-4.418,-4.3769,-4.2656,-4.3516,-4.3437,-4.2637,-4.3086,-4.3437,-4.3711,-4.3711,-4.3711,-4.3711,-4.3711,-4.3711,-4.3711,-4.3711,-4.3711,-4.3711,-4.3711,-4.3711,-4.3711,-4.3711,-4.3711,-4.373,-4.3867,-4.4433,-4.5058,-4.5176,-4.5742,-4.6308,-4.6308,-4.6308,-4.6308,-4.6308,-4.6308,-4.6308,-4.6308,-4.6074,-4.5859,-4.5859,-4.5508,-4.5117,-4.4824,-4.457,-4.4297,-4.3965,-4.3789,-4.3711,-4.3711,-4.3711,-4.3711,-4.3711,-4.3711,-4.3711,-4.3711,-4.3711,-4.3711,-4.3711,-4.3711,-4.3574,-4.3281,-4.3262,-4.3262,-4.3262,-4.3262,-4.3418,-4.3711,-4.137,-3.9055,-3.6744,-3.4417,-3.2174,-4.2914,-4.3802,-4.3611,-4.1749,-4.0009,-3.7832,0.0,0.0,-3.0391,-2.8652,-2.8301,-2.8301,-2.8301,-2.8301,-2.8301,-2.8301,-2.8672,-2.9844,-3.2422,-3.3164,-3.4258,0.0,-3.668,-3.7187,-3.8476,-4.0547,-4.1973,-4.2402,-4.2832,-4.3262,-4.3691,-4.3711,-4.3711,-4.3711,-4.3711,-4.3711,-4.3711,-4.3711,-4.3711,-4.3711,-4.418,-4.3926,-4.3105,-4.3984,-4.3906,-4.3105,-4.3516,-4.3691,-4.3711,-4.3711,-4.3711,-4.3711,-4.3711,-4.3711,-4.3711,-4.3711,-4.3711,-4.3711,-4.3711,-4.3711,-4.3711,-4.3711,-4.3711,-4.3789,-4.4258,-4.4687,-4.5117,-4.5547,-4.5976,-4.6308,-4.6308,-4.6308,-4.6308,-4.6308,-4.6308,-4.6308,-4.6308,-4.6289,-4.6289,-4.6289,-4.5957,-4.5664,-4.5664,-4.4961,-4.4394,-4.4394,-4.4004,-4.3711,-4.3711,-4.3711,-4.3711,-4.3711,-4.3711,-4.3711,-4.3711,-4.3711,-4.3711,-4.3711,-4.3711,-4.3711,-4.3691,-4.3691,-4.3691,-4.3691,-4.3691,-4.3691,-4.3711,-4.137,-3.9055,-3.6744,-3.4417,-3.2174,-4.2201,-4.2305,-4.1076,-3.9582,-3.7857,-3.575,-3.2435,0.0,-2.8965,-2.8398,-2.8301,-2.8301,-2.8301,-2.8301,-2.8301,-2.8301,-2.8652,-2.9316,0.0,0.0,0.0,-3.6406,-3.875,-4.0215,-4.0332,-4.1484,-4.2285,-4.2422,-4.3105,-4.3555,-4.3691,-4.3711,-4.3711,-4.3711,-4.3711,-4.3711,-4.3711,-4.3711,-4.3867,-4.418,-4.4629,-4.4355,-4.3535,-4.4414,-4.418,-4.3105,-4.3516,-4.3711,-4.3711,-4.3711,-4.3711,-4.3711,-4.3711,-4.3711,-4.3711,-4.3711,-4.3711,-4.3711,-4.3711,-4.3711,-4.3711,-4.3711,-4.3926,-4.4258,-4.4687,-4.4922,-4.5176,-4.5898,-4.6191,-4.6308,-4.6308,-4.6308,-4.6308,-4.6308,-4.6308,-4.6308,-4.6308,-4.6308,-4.6308,-4.6308,-4.6191,-4.6016,-4.5723,-4.5449,-4.5078,-4.4492,-4.4277,-4.4062,-4.375,-4.3711,-4.3711,-4.3711,-4.3711,-4.3711,-4.3711,-4.3711,-4.3711,-4.3711,-4.3711,-4.3711,-4.3711,-4.3711,-4.3711,-4.3711,-4.3711,-4.3711,-4.3711,-4.137,-3.8272,-3.4417,-3.3731,-3.2174,-4.0835,-4.1533,-4.0765,-3.8698,-3.6894,-3.477,-3.1594,-2.9551,-2.8301,-2.8301,-2.8301,-2.8301,-2.8301,-2.8301,-2.834,-2.8496,-2.875,-2.9414,-3.082,0.0,0.0,-3.6406,-3.9121,-4.0644,-4.0234,-4.1543,-4.2422,-4.2422,-4.3223,-4.3711,-4.3711,-4.3711,-4.3711,-4.3711,-4.3711,-4.3711,-4.3711,-4.3711,-4.3945,-4.4394,-4.4824,-4.4648,-4.3984,-4.4707,-4.4394,-4.332,-4.3594,-4.3711,0.0,-4.3711,-4.3711,-4.3711,-4.3711,-4.3711,-4.3711,-4.3711,-4.3711,-4.3711,-4.3711,-4.3711,-4.3711,-4.3711,-4.4121,-4.4707,-4.5137,-4.5391,-4.5625,-4.6152,-4.6308,-4.6308,-4.6308,-4.6308,-4.6308,-4.6308,-4.6308,-4.6308,-4.6308,-4.6308,-4.6308,-4.6308,-4.6308,-4.6211,-4.5957,-4.5781,-4.5488,-4.4961,-4.4609,-4.4297,-4.4004,-4.3808,-4.3711,-4.3711,-4.3711,-4.3711,-4.3711,-4.3711,-4.3711,-4.3711,-4.3711,-4.3711,-4.3711,-4.3711,-4.3711,-4.3711,-4.3711,-4.3711,-4.3711,-4.137,-3.8357,-3.4679,-3.4679,-3.3468,0.0,-4.0953,-4.1793,-3.8559,-3.6579,-3.4571,-3.1414,-2.9453,0.0,-2.8301,-2.8301,-2.8301,-2.8301,-2.832,-2.8457,-2.8848,-2.8965,-3.0039,-3.3008,-3.3711,-3.4726,-3.6875,-3.8496,-3.9258,-3.8848,-4.0996,-4.2422,-4.2422,-4.3223,-4.3711,-4.3711,-4.3711,-4.3711,-4.3711,-4.3711,-4.3711,-4.3711,-4.3711,-4.3945,-4.4453,-4.4844,-4.4824,-4.4453,-4.4844,-4.4551,-4.3711,-4.3711,-4.3711,-4.3711,-4.3711,-4.3711,-4.3711,-4.3711,-4.3711,-4.3711,-4.3711,-4.3711,-4.3711,-4.3711,-4.3711,-4.3711,-4.3769,-4.4355,-4.5117,-4.5586,-4.5996,-4.6308,-4.6308,-4.6308,-4.6308,-4.6308,-4.6308,-4.6308,-4.6308,-4.6308,-4.6308,-4.6308,-4.6308,-4.6308,-4.6308,-4.6308,-4.6308,-4.6308,-4.5976,-4.5703,-4.5683,-4.5,-4.4473,-4.4453,-4.4043,-4.375,-4.375,-4.373,-4.3711,-4.3711,-4.3711,-4.3711,-4.3711,-4.3711,-4.3711,-4.3711,-4.3711,-4.3711,-4.3711,-4.3711,-4.3711,-4.3711,-4.1537,-3.931,-3.7003,-3.6917,-3.562,-3.7059,0.0,-3.727,-3.4399,-3.3361,-3.2353,0.0,-2.8594,-2.8301,-2.8301,-2.8301,-2.8301,-2.8301,-2.8555,-2.8809,-2.8906,-2.9473,-3.0723,-3.3086,-3.6562,-3.9531,-4.1348,-4.1641,-4.1504,-4.1094,-4.1875,-4.2422,-4.2422,-4.3223,-4.3711,-4.3711,-4.3711,-4.3711,-4.3711,-4.3711,-4.3711,-4.3711,-4.3711,-4.4101,-4.4883,-4.498,-4.498,-4.4883,-4.498,-4.4551,-4.3711,-4.3711,-4.3711,-4.3711,-4.3711,-4.3711,-4.3711,-4.3711,-4.3711,-4.3711,-4.3711,-4.3711,-4.3711,-4.3711,-4.3711,-4.3808,-4.4492,-4.4844,-4.5176,-4.5918,-4.623,-4.6308,-4.6308,-4.6308,-4.6308,-4.6308,-4.6308,-4.6308,-4.6308,-4.6308,-4.6308,-4.6308,-4.6308,-4.6308,-4.6308,-4.6308,-4.6308,-4.6308,-4.623,-4.6055,-4.5723,-4.5508,-4.5254,-4.4922,-4.4492,-4.4238,-4.4238,-4.3926,-4.3711,-4.3711,-4.3711,-4.3711,-4.3711,-4.3711,-4.3711,-4.3711,-4.3711,-4.3711,-4.3711,-4.3711,-4.3711,-4.3711,-4.3176,-4.1723,-3.9395,-3.7604,-3.5476,-3.6405,-3.5953,-3.4969,-3.2833,-3.1825,-3.0824,-2.8741,-2.8301,-2.8301,-2.8301,-2.8301,-2.8359,-2.8535,-2.8769,-2.9043,-2.9434,-3.0723,-3.25,0.0,0.0,-3.9609,-4.1113,-4.1094,-4.1172,-4.1738,-4.2187,-4.25,-4.2715,-4.334,-4.3711,-4.3711,-4.3711,-4.3711,-4.3711,-4.3711,-4.3711,-4.3711,-4.3926,-4.4355,-4.5019,-4.5234,-4.5215,-4.5019,-4.5019,-4.4551,-4.3711,-4.3711,-4.3711,-4.3711,-4.3711,-4.3711,-4.3711,-4.3711,-4.3711,-4.3711,-4.3711,-4.3711,-4.3711,-4.3711,-4.3848,-4.4141,-4.4805,-4.5156,-4.5449,-4.6113,-4.6308,-4.6308,-4.6308,-4.6308,-4.6308,-4.6308,-4.6308,-4.6308,-4.6308,-4.6308,-4.6308,-4.6308,-4.6308,-4.6308,-4.6308,-4.6308,-4.6308,-4.6308,-4.6308,-4.623,-4.5996,-4.5801,-4.5586,-4.5351,-4.4941,-4.4687,-4.4687,-4.4277,-4.4023,-4.4023,-4.3828,-4.3711,-4.3711,-4.3711,-4.3711,-4.3711,-4.3711,-4.3711,-4.3711,-4.3711,-4.3711,-4.3711,-4.3711,-4.2493,-4.0259,-3.8863,-3.6297,-3.6405,-3.5672,-3.4518,-3.3024,-3.1774,-3.0535,-2.8953,-2.8601,-2.8568,-2.8432,-2.8398,-2.8516,-2.8945,-2.9062,-2.9355,-3.0078,-3.2344,-3.4902,-3.7441,-3.8008,-3.8574,-3.9668,-3.9668,-4.0195,-4.1738,-4.2207,-4.2617,-4.3047,-4.3457,-4.3711,-4.3711,-4.3711,-4.3711,-4.3711,-4.3769,-4.3808,-4.3808,-4.4199,-4.4648,-4.5137,-4.5508,-4.5449,-4.5019,-4.5019,-4.4551,-4.3711,-4.3711,-4.3711,-4.3711,-4.3711,-4.3711,-4.3711,-4.3711,-4.3711,-4.3711,-4.3711,-4.3711,-4.3711,-4.3789,-4.4062,-4.4473,-4.4961,-4.5371,-4.5762,-4.6172,-4.6308,-4.6308,-4.6308,-4.6308,-4.6308,-4.6308,-4.6308,-4.6308,-4.6308,-4.6308,-4.6308,-4.6308,-4.6308,-4.6308,-4.6308,-4.625,-4.623,-4.6289,-4.625,-4.623,-4.6289,-4.5996,-4.5781,-4.5781,-4.5391,-4.5117,-4.5117,-4.4746,-4.4492,-4.4492,-4.4082,-4.3808,-4.3808,-4.375,-4.3711,-4.3711,-4.3711,-4.3711,-4.3711,-4.3633,-4.3613,-4.3613,-4.3535,-4.2468,-4.0581,-3.9634,-3.7081,-3.6405,-3.6799,-3.6701,-3.4615,-3.392,-3.3105,-3.0566,-3.0016,-2.9773,-2.8947,-2.8828,-2.8965,-2.9394,-2.9766,-3.0039,-3.0176,-3.3848,-3.748,-3.9707,-4.1269,-4.2266,-4.2461,-4.1836,-4.1641,-4.2266,-4.2383,-4.2617,-4.3047,-4.3457,-4.3711,-4.3711,-4.3711,-4.3711,-4.3711,-4.4082,-4.4297,-4.4297,-4.4355,-4.4785,-4.5566,-4.5644,-4.5449,-4.5019,-4.5019,-4.4551,-4.3711,-4.3711,-4.3711,-4.3711,-4.3711,-4.3711,-4.3711,-4.3711,-4.3711,-4.3711,-4.3711,-4.3711,-4.3769,-4.416,-4.4336,-4.4531,-4.5312,-4.5625,-4.5762,-4.6172,-4.6308,-4.6308,-4.6308,-4.6308,-4.6308,-4.6308,-4.6308,-4.6308,-4.6308,-4.6308,-4.6308,-4.6308,-4.6308,-4.6308,-4.6308,-4.6016,-4.5879,-4.623,-4.6016,-4.5898,-4.625,-4.625,-4.6211,-4.6211,-4.584,-4.5566,-4.5566,-4.5195,-4.4922,-4.4922,-4.4531,-4.4297,-4.4297,-4.3926,-4.3711,-4.3711,-4.3711,-4.3711,-4.3711,-4.3359,-4.3183,-4.3183,-4.2793,-4.2456,-4.1952,-3.8088,-3.5808,-3.6405,-3.6699,-3.7193,-3.7954,-3.7091,-3.5685,-3.4168,-3.3567,-3.2875,-3.1035,-3.0859,-3.0781,-3.0039,-3.1016,-3.2773,-3.5351,-3.6641,-3.8047,-4.0215,-4.0,-3.9961,-4.0879,-4.0644,-4.0937,-4.2285,-4.2637,-4.2949,-4.3379,-4.3594,-4.3711,-4.3711,-4.3711,-4.3828,-4.4062,-4.4297,-4.4629,-4.5078,-4.5098,-4.5293,-4.5683,-4.5898,-4.5664,-4.5019,-4.5019,-4.4551,-4.3711,-4.3711,-4.3711,-4.3711,-4.3711,-4.3711,-4.3711,-4.3711,-4.3711,-4.3711,-4.3711,-4.3711,-4.3769,-4.4238,-4.4551,-4.4844,-4.5469,-4.584,-4.6055,-4.625,-4.6308,-4.6348,-4.6582,-4.6484,-4.6308,-4.6308,-4.6308,-4.6308,-4.6308,-4.6308,-4.6308,-4.6308,-4.6308,-4.6308,-4.6308,-4.6152,-4.5996,-4.5976,-4.5801,-4.5742,-4.5937,-4.5976,-4.6055,-4.6269,-4.5937,-4.5683,-4.5683,-4.5078,-4.4687,-4.4687,-4.4277,-4.4023,-4.4023,-4.3828,-4.3594,-4.3379,-4.3359,-4.3262,-4.3027,-4.2832,-4.2734,-4.2715,-4.2519,-4.176,-4.049,-3.7098,-3.4765,-3.6405,-3.6782,-3.774,-4.0028,-3.8756,-3.7054,-3.767,-3.6714,-3.5258,-3.3559,-3.3898,-3.3893,-3.1998,-3.3397,-3.5997,-3.9651,-3.9427,-3.9314,-4.0897,-3.9336,-3.8496,-3.9805,-3.9863,-4.0586,-4.2539,-4.293,-4.334,-4.3965,-4.3926,-4.3906,-4.4004,-4.4004,-4.418,-4.4531,-4.4648,-4.5019,-4.5664,-4.5781,-4.582,-4.582,-4.6152,-4.5859,-4.5019,-4.5019,-4.4551,-4.3711,-4.3711,-4.3711,-4.3711,-4.3711,-4.3711,-4.3711,-4.3711,-4.3711,-4.3711,-4.3828,-4.3867,-4.3945,-4.4512,-4.4902,-4.5254,-4.5683,-4.6113,-4.6445,-4.6445,-4.6523,-4.666,-4.6992,-4.6777,-4.6445,-4.6445,-4.6445,-4.6426,-4.6328,-4.6308,-4.6308,-4.6308,-4.6308,-4.6308,-4.6308,-4.623,-4.6094,-4.5859,-4.5664,-4.5566,-4.5664,-4.5586,-4.5644,-4.5957,-4.5723,-4.5527,-4.5527,-4.4941,-4.4512,-4.4414,-4.4082,-4.3828,-4.3711,-4.3711,-4.3555,-4.3242,-4.3125,-4.291,-4.2578,-4.2383,-4.2285,-4.2285,-4.2187,-4.1212,-3.9465,-3.6997,-3.4653,-3.6405,-3.7864,-3.9312,-3.8683,-3.6848,-3.6177,-4.0006,-3.7797,-3.5168,-3.615,-3.7922,-3.8606,-3.6269,-3.7566,-3.9085,-3.9494,-4.1605,-4.3091,-4.2958,-4.2383,-4.2051,-4.2187,-4.1855,-4.2148,-4.3476,-4.3281,-4.3594,-4.4844,-4.457,-4.4512,-4.4902,-4.4922,-4.4941,-4.498,-4.5371,-4.5605,-4.5683,-4.6055,-4.625,-4.625,-4.6289,-4.5859,-4.5019,-4.5019,-4.4551,-4.3711,-4.3711,-4.3711,-4.3711,-4.3711,-4.3711,-4.3711,-4.3711,-4.3711,-4.375,-4.4199,-4.4355,-4.4473,-4.5293,-4.5605,-4.5703,-4.6113,-4.6543,-4.6875,-4.6875,-4.7168,-4.75,-4.7519,-4.7226,-4.6875,-4.6875,-4.6875,-4.6777,-4.6387,-4.6308,-4.6308,-4.6308,-4.6308,-4.6308,-4.6308,-4.5996,-4.584,-4.6191,-4.5605,-4.5215,-4.5625,-4.5332,-4.5078,-4.5117,-4.5098,-4.5078,-4.5078,-4.5019,-4.4824,-4.4433,-4.4375,-4.416,-4.373,-4.3711,-4.3691,-4.3652,-4.3281,-4.3066,-4.3027,-4.2246,-4.1836,-4.1836,-4.1445,-4.1191,-4.1016,-3.878,-3.6557,-3.6405,-3.8492,-4.0693,-4.0706,-3.9673,-3.9101,-4.0847,-3.9765,-3.8748,-4.031,-4.1447,-4.1826,-4.0867,-4.1431,-4.2107,-4.2366,-4.3339,-4.4079,-4.3974,-4.3516,-4.3223,-4.3223,-4.3086,-4.3281,-4.4062,-4.4219,-4.4492,-4.498,-4.4883,-4.4863,-4.5019,-4.5019,-4.5156,-4.543,-4.5586,-4.5801,-4.6055,-4.623,-4.6308,-4.6308,-4.6308,-4.5859,-4.5019,-4.5019,-4.4551,-4.3711,-4.3711,-4.3711,-4.3711,-4.3711,-4.3711,-4.3711,-4.3711,-4.3887,-4.416,-4.4336,-4.457,-4.4883,-4.5469,-4.5683,-4.5781,-4.6465,-4.6797,-4.6973,-4.7246,-4.7441,-4.7578,-4.7578,-4.7461,-4.7266,-4.6992,-4.6738,-4.6504,-4.6348,-4.6308,-4.6308,-4.6308,-4.6308,-4.6308,-4.6308,-4.6172,-4.6035,-4.5937,-4.5644,-4.5488,-4.5644,-4.5312,-4.5117,-4.5391,-4.4961,-4.4629,-4.4629,-4.4375,-4.4141,-4.3984,-4.3965,-4.3887,-4.3711,-4.3711,-4.3594,-4.332,-4.3164,-4.2832,-4.2285,-4.1973,-4.168,-4.1406,-4.125,-4.1172,-4.1172,-3.8961,-3.6762,-3.6405,-3.814,-4.027,-4.1235,-4.1169,-4.1208,-4.2682,-4.2093,-4.1936,-4.4677,-4.5418,-4.575,-4.631,-4.6036,-4.5583,-4.5273,-4.5267,-4.5297,-4.5157,-4.4738,-4.4804,-4.5657,-4.5128,-4.504,-4.578,-4.5345,-4.5137,-4.541,-4.5312,-4.5293,-4.541,-4.543,-4.5566,-4.5859,-4.5879,-4.6016,-4.6308,-4.6308,-4.6308,-4.6308,-4.6308,-4.5859,-4.5019,-4.5019,-4.4551,-4.3711,-4.3711,-4.3711,-4.3711,-4.3711,-4.3711,-4.3711,-4.3867,-4.4121,-4.4433,-4.4707,-4.498,-4.5293,-4.5723,-4.5879,-4.5976,-4.6543,-4.6914,-4.7168,-4.7324,-4.7558,-4.7754,-4.7617,-4.748,-4.7305,-4.7012,-4.6719,-4.664,-4.7248,-4.7381,-4.7141,-4.6464,-4.688,-4.7141,-4.6464,-4.6308,-4.6211,-4.5918,-4.5762,-4.5683,-4.5683,-4.5312,-4.5078,-4.5254,-4.4766,-4.4336,-4.4199,-4.3887,-4.3711,-4.3711,-4.3711,-4.3711,-4.3711,-4.3711,-4.3574,-4.3281,-4.3144,-4.2812,-4.2207,-4.1933,-4.166,-4.1367,-4.123,-4.1172,-4.1172,-3.961,-3.7419,-3.6405,-3.6857,-3.7742,-3.9592,-4.0454,-4.1945,-4.5941,-4.4706,-4.4071,-4.9,-4.9938,-5.0505,-5.2585,-5.1554,-4.973,-4.7694,-4.7426,-4.7412,-4.693,-4.6468,-4.7269,-4.9919,-4.8302,-4.7536,-4.8902,-4.6595,-4.5391,-4.623,-4.5918,-4.5859,-4.6289,-4.6308,-4.6308,-4.6308,-4.6308,-4.6308,-4.6308,-4.6308,-4.6308,-4.6308,-4.6308,-4.5859,-4.5019,-4.5019,-4.4551,-4.3711,-4.3711,-4.3711,-4.3711,-4.3711,-4.3711,-4.375,-4.4219,-4.4414,-4.4512,-4.5371,-4.5683,-4.5742,-4.6152,-4.6308,-4.6308,-4.6308,-4.6875,-4.75,-4.707,-4.7519,-4.8105,-4.7695,-4.7266,-4.6933,-4.6914,-4.6914,-4.7414,-4.9144,-4.9616,-4.9041,-4.6793,-4.8052,-4.8955,-4.6793,-4.6396,-4.6396,-4.6308,-4.6044,-4.577,-4.5683,-4.5312,-4.4883,-4.4453,-4.4394,-4.4219,-4.375,-4.3711,-4.3711,-4.3711,-4.3711,-4.3711,-4.3711,-4.3711,-4.3711,-4.3711,-4.3301,-4.3086,-4.3086,-4.2246,-4.1816,-4.1797,-4.1387,-4.1172,-4.1172,-4.1172,-3.8803,-3.6835,-4.0199,-4.335,-4.2357,-4.5448,-4.9059,-5.0245,-4.824,-4.7463,-5.2317,-5.4503,-5.5236,-5.429,-5.3717,-5.2821,-5.0942,-5.04,-5.0213,-5.0081,-4.9927,-5.0122,-5.0915,-5.085,-5.0322,-4.9512,-4.8709,-4.7682,-4.6376,-4.6191,-4.6172,-4.6289,-4.6308,-4.6308,-4.6308,-4.6308,-4.6308,-4.6308,-4.6308,-4.6308,-4.6308,-4.6308,-4.5859,-4.5019,-4.5019,-4.4551,-4.3711,-4.3711,-4.3711,-4.3711,-4.3711,-4.3887,-4.4199,-4.4355,-4.4766,-4.5332,-4.5586,-4.5859,-4.6133,-4.625,-4.6308,-4.6348,-4.6641,-4.6914,-4.7415,-4.9196,-4.884,-4.8016,-4.9115,-4.821,-4.7522,-5.04,-4.9997,-4.8949,-4.9488,-5.0778,-5.1761,-5.1114,-5.1449,-5.1761,-5.1114,-5.0946,-5.0441,-4.887,-4.851,-4.7935,-4.6374,-4.5762,-4.5215,-4.4492,-4.4394,-4.4219,-4.375,-4.3711,-4.3711,-4.3711,-4.3711,-4.3711,-4.3711,-4.3711,-4.3711,-4.3711,-4.3594,-4.3379,-4.3086,-4.2832,-4.2402,-4.1797,-4.168,-4.1465,-4.1172,-3.961,-3.7419,-3.8115,-4.153,-4.4869,-4.5723,-4.9038,-5.2503,-5.4059,-5.2815,-5.2199,-5.5339,-5.7168,-5.7801,-5.647,-5.5716,-5.4955,-5.3927,-5.2395,-5.175,-5.2833,-5.2694,-5.2894,-5.4123,-5.3873,-5.2791,-5.1071,-5.0125,-4.8719,-4.6464,-4.6308,-4.6308,-4.6308,-4.6308,-4.6308,-4.6308,-4.6308,-4.6308,-4.6308,-4.6308,-4.6308,-4.6308,-4.6133,-4.5683,-4.5019,-4.5019,-4.4551,-4.3711,-4.3711,-4.3711,-4.3711,-4.3906,-4.4141,-4.4433,-4.4766,-4.5215,-4.5703,-4.5859,-4.6094,-4.6308,-4.6308,-4.6308,-4.6503,-4.7594,-4.8056,-4.8635,-5.0995,-5.0906,-5.0123,-5.0996,-5.0272,-4.9887,-5.2265,-5.2591,-5.2238,-5.2177,-5.3251,-5.3988,-5.3086,-5.3579,-5.3988,-5.3086,-5.2921,-5.2508,-5.1114,-5.0946,-5.0209,-4.7966,-4.6524,-4.5488,-4.498,-4.4609,-4.4297,-4.4004,-4.3808,-4.3711,-4.3711,-4.3711,-4.3711,-4.3711,-4.3711,-4.3711,-4.3711,-4.3711,-4.3594,-4.334,-4.3164,-4.2812,-4.2305,-4.2129,-4.1914,-4.166,-4.0167,-3.781,-3.9898,-4.1731,-4.4174,-4.9213,-5.1498,-5.3432,-5.7072,-5.7499,-5.7298,-5.7901,-5.8453,-5.878,-5.878,-5.7555,-5.6455,-5.6463,-5.3919,-5.2798,-5.5312,-5.4884,-5.5359,-5.835,-5.696,-5.5136,-5.337,-5.1198,-4.8955,-4.6793,-4.6376,-4.6308,-4.6308,-4.6308,-4.6308,-4.6308,-4.6308,-4.6308,-4.6308,-4.6308,-4.6308,-4.6289,-4.5879,-4.5449,-4.5019,-4.498,-4.4512,-4.3711,-4.3711,-4.373,-4.3808,-4.4219,-4.4453,-4.459,-4.5371,-4.5703,-4.5781,-4.6152,-4.6308,-4.6308,-4.6308,-4.6464,-4.6967,-4.8955,-4.9974,-5.0826,-5.2642,-5.3318,-5.3504,-5.3303,-5.3086,-5.2921,-5.3168,-5.472,-5.6271,-5.6455,-5.6479,-5.5975,-5.3906,-5.5043,-5.5928,-5.3906,-5.3497,-5.3415,-5.3251,-5.3168,-5.2343,-4.9955,-4.7536,-4.5962,-4.577,-4.5,-4.4492,-4.4414,-4.4023,-4.375,-4.3711,-4.3711,-4.3711,-4.3711,-4.3711,-4.3711,-4.3711,-4.3711,-4.3711,-4.3711,-4.332,-4.3125,-4.3086,-4.2676,-4.2461,-4.2422,-4.1793,-3.935,-4.0824,-4.4819,-4.9038,-5.0695,-5.3231,-5.5767,-5.7499,-5.7801,-5.7976,-5.8956,-5.9257,-5.9332,-5.9332,-5.902,-5.8635,-5.8213,-5.7262,-5.6715,-5.7244,-5.7146,-5.7473,-5.8553,-5.8671,-5.7805,-5.5711,-5.3497,-5.126,-4.9041,-4.7295,-4.6308,-4.6308,-4.6308,-4.6308,-4.6308,-4.6308,-4.6308,-4.6308,-4.6308,-4.6308,-4.6289,-4.5879,-4.5449,-4.5019,-4.4687,-4.4238,-4.3711,-4.3711,-4.3906,-4.4258,-4.4355,-4.4785,-4.543,-4.5605,-4.5879,-4.6172,-4.6269,-4.6308,-4.6308,-4.6308,-4.7468,-4.8955,-4.9446,-5.0843,-5.2725,-5.4847,-5.4324,-5.3386,-5.4986,-5.4232,-5.3333,-5.5043,-5.5871,-5.6638,-5.8344,-5.8759,-5.8681,-5.8187,-5.8422,-5.8656,-5.8163,-5.8084,-5.7534,-5.5815,-5.5493,-5.4174,-5.0188,-4.9128,-4.8025,-4.5962,-4.5508,-4.5137,-4.4473,-4.4316,-4.4101,-4.373,-4.3711,-4.3711,-4.3711,-4.3711,-4.3711,-4.3711,-4.3711,-4.3711,-4.3711,-4.3613,-4.3418,-4.3086,-4.2988,-4.2754,-4.2342,-4.0578,-3.8192,-4.1978,-4.5623,-4.9289,-5.2779,-5.4938,-5.652,-5.765,-5.7901,-5.8202,-5.9282,-5.9483,-5.9483,-5.9483,-5.9483,-5.9332,-5.8805,-5.8478,-5.8303,-5.8303,-5.8303,-5.8504,-5.9031,-5.9332,-5.8656,-5.6455,-5.4232,-5.2011,-4.9786,-4.7554,-4.6308,-4.6308,-4.6308,-4.6308,-4.6308,-4.6308,-4.6308,-4.6308,-4.6308,-4.6308,-4.6289,-4.5664,-4.5019,-4.4394,-4.416,-4.3926,-4.3711,-4.3945,-4.418,-4.4433,-4.4844,-4.5273,-4.5703,-4.5898,-4.6113,-4.6308,-4.6308,-4.6308,-4.6464,-4.7554,-4.8613,-4.9955,-5.2094,-5.3497,-5.4905,-5.7114,-5.6956,-5.6271,-5.7431,-5.6932,-5.6375,-5.751,-5.777,-5.8109,-5.9251,-5.9483,-5.9483,-5.9483,-5.9483,-5.9483,-5.9483,-5.9483,-5.9173,-5.7952,-5.6876,-5.5067,-5.1678,-5.0273,-4.8702,-4.6343,-4.5801,-4.5508,-4.5058,-4.4648,-4.4297,-4.4062,-4.3828,-4.3711,-4.3711,-4.3711,-4.3711,-4.3711,-4.3711,-4.3711,-4.3711,-4.3711,-4.3594,-4.3379,-4.3379,-4.3262,-4.2946,-4.1656,-3.9741,-4.2534,-4.5447,-4.8485,-5.4561,-5.6143,-5.647,-5.7524,-5.7826,-5.8177,-5.9156,-5.9433,-5.9483,-5.9483,-5.9408,-5.9232,-5.878,-5.8629,-5.8604,-5.8704,-5.873,-5.8905,-5.9433,-5.9483,-5.8759,-5.6932,-5.4801,-5.2508,-5.0357,-4.8138,-4.6726,-4.6308,-4.6308,-4.6308,-4.6308,-4.6308,-4.6308,-4.6308,-4.6308,-4.6308,-4.6289,-4.543,-4.4551,-4.3711,-4.3711,-4.375,-4.3848,-4.4238,-4.4473,-4.4668,-4.5391,-4.5723,-4.582,-4.6172,-4.6308,-4.6396,-4.6726,-4.688,-4.7228,-4.9361,-5.0441,-5.1365,-5.4986,-5.6479,-5.7114,-5.8915,-5.9483,-5.9483,-5.9483,-5.9483,-5.9483,-5.9483,-5.9483,-5.9483,-5.9483,-5.9483,-5.9483,-5.9483,-5.9483,-5.9483,-5.9483,-5.9483,-5.9483,-5.9483,-5.7952,-5.6055,-5.3824,-5.1616,-4.9361,-4.7121,-4.6256,-4.5762,-4.5683,-4.5039,-4.459,-4.4512,-4.4082,-4.3828,-4.3828,-4.375,-4.3711,-4.3711,-4.3711,-4.3711,-4.3711,-4.3711,-4.3711,-4.3711,-4.3711,-4.3711,-4.3691,-4.334,-4.1941,-4.0701,-4.5372,-5.077,-5.4561,-5.5867,-5.6369,-5.6997,-5.7524,-5.8077,-5.8704,-5.9182,-5.9483,-5.9483,-5.9131,-5.8805,-5.873,-5.8328,-5.8177,-5.8654,-5.873,-5.8905,-5.9433,-5.9483,-5.9405,-5.907,-5.7035,-5.4824,-5.2591,-5.0441,-4.829,-4.6376,-4.6308,-4.6308,-4.6308,-4.6308,-4.6308,-4.6308,-4.6308,-4.6308,-4.6289,-4.543,-4.4551,-4.3711,-4.3711,-4.3926,-4.4316,-4.4375,-4.4824,-4.5508,-4.5625,-4.5898,-4.623,-4.6289,-4.6308,-4.6551,-4.8462,-4.9126,-4.9446,-5.1678,-5.3743,-5.5413,-5.5975,-5.7534,-5.9095,-5.9405,-5.9483,-5.9483,-5.9483,-5.9483,-5.9483,-5.9483,-5.9483,-5.9483,-5.9483,-5.9483,-5.9483,-5.9483,-5.9483,-5.9483,-5.9483,-5.9483,-5.9483,-5.9483,-5.9251,-5.8344,-5.6055,-5.3906,-5.1678,-4.9446,-4.7408,-4.6074,-4.5723,-4.5566,-4.5351,-4.498,-4.4551,-4.4316,-4.4316,-4.3926,-4.3711,-4.3711,-4.3711,-4.3711,-4.3711,-4.3711,-4.3711,-4.3711,-4.3711,-4.3711,-4.3711,-4.3652,-4.2207,-4.2133,-4.6552,-5.082,-5.4486,-5.5566,-5.5968,-5.6846,-5.7223,-5.7675,-5.8529,-5.8905,-5.9056,-5.9056,-5.9106,-5.8956,-5.8353,-5.8554,-5.878,-5.8704,-5.8956,-5.9232,-5.9458,-5.9483,-5.9483,-5.9483,-5.7534,-5.5815,-5.4801,-5.1511,-4.9211,-4.8204,-4.6967,-4.6308,-4.6308,-4.6308,-4.6308,-4.6308,-4.6308,-4.6055,-4.5586,-4.5195,-4.4707,-4.4082,-4.4082,-4.4199,-4.4414,-4.4648,-4.5098,-4.5703,-4.5937,-4.6133,-4.6308,-4.6308,-4.7054,-4.829,-4.9211,-5.0357,-5.1761,-5.3988,-5.5413,-5.6399,-5.7613,-5.8681,-5.9483,-5.9483,-5.9483,-5.9483,-5.9483,-5.9483,-5.9483,-5.9483,-5.9483,-5.9483,-5.9483,-5.9483,-5.9483,-5.9483,-5.9483,-5.9483,-5.9483,-5.9483,-5.9483,-5.9483,-5.9483,-5.8344,-5.4905,-5.3497,-5.1678,-4.8204,-4.688,-4.623,-4.6055,-4.582,-4.5605,-4.541,-4.5,-4.4648,-4.4414,-4.4199,-4.3984,-4.3711,-4.3711,-4.3711,-4.3711,-4.3711,-4.3711,-4.3711,-4.3711,-4.3711,-4.3711,-4.3711,-4.3079,-4.2333,-4.5623,-4.836,-5.2804,-5.4135,-5.4737,0.0,0.0,-5.7273,0.0,-5.8403,-5.8453,-5.8328,-5.8855,-5.9081,-5.8403,-5.8855,-5.9207,-5.893,-5.9232,-5.9483,-5.9483,-5.9483,-5.9483,-5.9483,-5.8031,-5.6797,-5.6271,-5.2591,-5.0188,-4.9616,-4.7468,-4.6308,-4.6308,-4.6308,-4.6308,-4.6308,-4.6308,-4.5879,-4.5019,-4.5019,-4.4805,-4.4394,-4.4394,-4.4512,-4.4746,-4.5058,-4.543,-4.5859,-4.6172,-4.6308,-4.6396,-4.688,-4.8118,-4.9701,-5.0862,-5.2343,-5.4069,-5.6295,-5.7035,-5.7297,-5.8915,-5.9483,-5.9483,-5.9483,-5.9583,-5.9684,-5.9533,-5.9709,-5.9885,-5.9734,-5.9809,-5.9935,-5.9935,-5.9809,-5.9659,-5.9533,-5.9483,-5.9483,-5.9483,-5.9483,-5.9483,-5.9483,-5.9483,-5.8344,-5.5043,-5.3579,-5.1678,-4.8376,-4.6967,-4.6308,-4.6308,-4.6016,-4.584,-4.584,-4.543,-4.5058,-4.4746,-4.4609,-4.4355,-4.3906,-4.3887,-4.3828,-4.3711,-4.3711,-4.3711,-4.3711,-4.3711,-4.3711,-4.3711,-4.3711,-4.3711,-3.9044,-4.0475,0.0,-4.841,-5.0695,-5.2201,0.0,0.0,-5.7047,-5.7123,-5.7549,-5.7775,-5.7223,-5.8027,-5.8905,-5.9332,-5.9056,-5.893,-5.9382,-5.9483,-5.9483,-5.9483,-5.9483,-5.9483,-5.9483,-5.9405,-5.8447,-5.6399,-5.4069,-5.1844,-4.9701,-4.7468,-4.6308,-4.6308,-4.6308,-4.6308,-4.6308,-4.6308,-4.5879,-4.5019,-4.5019,-4.4805,-4.4394,-4.4394,-4.4844,-4.5605,-4.5625,-4.5879,-4.6269,-4.6289,-4.6308,-4.6551,-4.8634,-4.9531,-5.0125,-5.4337,-5.5895,-5.6295,-5.8603,-5.9328,-5.9328,-5.9483,-5.9483,-5.9483,-5.9483,-5.9859,-6.0161,-5.9633,-6.0261,-6.0964,-6.0412,-6.0688,-6.109,-6.109,-6.0663,-6.0136,-5.9608,-5.9483,-5.9483,-5.9483,-5.9483,-5.9483,-5.9483,-5.9483,-5.9405,-5.9173,-5.555,-5.2839,-5.2591,-4.887,-4.6308,-4.6308,-4.6289,-4.6269,-4.6269,-4.5879,-4.5625,-4.5605,-4.5215,-4.4805,-4.4375,-4.4355,-4.416,-4.3711,-4.3711,-4.3711,-4.3711,-4.3711,-4.3711,-4.3711,-4.3711,-4.3711,0.0,0.0,0.0,-4.5799,-4.8862,-5.1172,-5.2879,-5.5214,-5.7148,-5.7499,-5.775,-5.7826,-5.7625,-5.8202,-5.8654,-5.8504,-5.8905,-5.9282,-5.9458,-5.9483,-5.9483,-5.9483,-5.9483,-5.9483,-5.9483,-5.9483,-5.9173,-5.8344,-5.6295,-5.4069,-5.1844,-4.9616,-4.7794,-4.6308,-4.6308,-4.6308,-4.6308,-4.6308,-4.5879,-4.5019,-4.5019,-4.4941,-4.4805,-4.4805,-4.5273,-4.6074,-4.6074,-4.6172,-4.6308,-4.6308,-4.6308,-4.6551,-4.8699,-5.0441,-5.2094,-5.5067,-5.7138,-5.8422,-5.9251,-5.9483,-5.9483,-5.9483,-5.9483,-5.9558,-5.991,-6.0161,-6.0362,-6.0537,-6.0864,-6.114,-6.0914,-6.104,-6.119,-6.119,-6.1014,-6.0713,-6.0161,-5.9734,-5.9483,-5.9483,-5.9483,-5.9483,-5.9483,-5.9483,-5.85,-5.5711,-5.3906,-5.1844,-4.9041,-4.7295,-4.6308,-4.6308,-4.6308,-4.6308,-4.6308,-4.6172,-4.5957,-4.5703,-4.5527,-4.5254,-4.4824,-4.4551,-4.4316,-4.416,-4.3848,-4.3711,-4.3711,-4.3711,-4.3711,-4.3711,-4.3711,-4.2927,-3.6985,0.0,0.0,0.0,0.0,-4.8109,-5.0896,0.0,-5.5742,-5.7072,-5.7474,-5.7549,-5.7374,-5.7775,-5.8102,-5.7926,-5.8504,-5.8956,-5.8956,-5.9131,-5.9232,-5.9232,-5.9382,-5.9483,-5.9483,-5.9483,-5.9483,-5.9483,-5.7431,0.0,-5.4069,-5.1176,-4.8634,-4.6376,-4.6308,-4.6308,-4.6308,-4.6308,-4.5937,-4.5234,-4.5234,-4.5234,-4.5234,-4.5234,-4.5625,-4.6308,-4.6308,-4.6308,-4.6308,-4.6308,-4.6706,-4.7621,-4.9871,-5.2094,-5.4255,-5.6455,-5.8266,-5.9483,-5.9483,-5.9483,-5.9483,-5.9483,-5.9483,-5.9608,-6.0161,-6.0462,-6.0688,-6.1065,-6.1441,-6.1692,-6.1517,-6.1592,-6.1692,-6.1492,-6.1466,-6.1291,-6.0738,-6.0161,-5.9709,-5.9533,-5.9483,-5.9483,-5.9483,-5.9483,-5.85,-5.555,-5.3824,-5.1844,-4.887,-4.7208,-4.6308,-4.6308,-4.6308,-4.6308,-4.6308,-4.6308,-4.6191,-4.5898,-4.5879,-4.5703,-4.5254,-4.498,-4.4766,-4.4609,-4.416,-4.3926,-4.3926,-4.3789,-4.3711,-4.3711,-4.3711,-4.2057,0.0,0.0,0.0,0.0,0.0,0.0,-4.8786,0.0,-5.2729,-5.5491,-5.6495,-5.6721,-5.6269,-5.662,-5.7173,-5.775,-5.7876,-5.7901,-5.7901,-5.8353,-5.8704,-5.8704,-5.9156,-5.9483,-5.9483,-5.9483,-5.9483,-5.9483,-5.751,-5.6271,-5.6191,-5.1989,-4.8634,-4.6376,-4.6308,-4.6308,-4.6308,-4.6308,-4.6094,-4.5683,-4.5683,-4.5683,-4.5683,-4.5683,-4.5898,-4.6308,-4.6308,-4.6308,-4.6376,-4.6376,-4.7621,-4.9871,-5.2094,-5.4337,-5.6479,-5.8681,-5.9483,-5.9483,-5.9483,-5.9483,-5.9483,-5.9508,-5.9508,-5.9633,-6.0186,-6.0763,-6.1215,-6.1215,-6.1994,-6.2697,-6.2169,-6.2421,-6.2697,-6.2144,-6.2019,-6.1893,-6.1316,-6.0763,-6.0211,-5.9659,-5.9533,-5.9508,-5.9508,-5.9508,-5.9508,-5.9405,-5.5711,-5.2839,-5.2839,-4.9041,-4.6308,-4.6308,-4.6308,-4.6308,-4.6308,-4.6308,-4.6308,-4.6308,-4.6308,-4.6113,-4.5703,-4.5683,-4.5469,-4.5058,-4.4629,-4.4414,-4.4394,-4.3926,-4.3711,-4.3711,-4.3609,-4.1118,-3.3746,0.0,0.0,0.0,0.0,0.0,0.0,0.0,-4.9289,-5.2076,-5.2754,-5.3432,-5.5265,-5.5742,-5.6018,-5.6595,-5.7374,-5.7901,-5.7901,-5.8027,-5.8127,-5.8127,-5.8604,-5.893,-5.893,-5.9282,-5.9483,0.0,-5.8915,-5.7927,-5.6295,-5.2011,-4.8634,-4.6376,-4.6308,-4.6308,-4.6308,-4.6308,-4.6094,-4.5683,-4.5683,-4.5683,-4.5683,-4.5683,-4.5898,-4.6308,-4.6308,-4.7228,-4.8719,-4.8719,-4.9041,-4.9955,-5.3824,-5.5631,-5.6431,-5.8681,-5.9483,-5.9483,-5.9483,-5.9483,-5.9558,-5.996,-6.0085,-6.0261,-6.124,-6.1642,-6.1868,-6.227,-6.2596,-6.2797,-6.2647,-6.2722,-6.2797,-6.2647,-6.2596,-6.2446,-6.1893,-6.1642,-6.1366,-6.0814,-6.0387,-6.0085,-6.0085,-5.9759,-5.894,-5.7376,-5.4743,-5.2343,-5.0694,-4.8052,-4.6308,-4.6308,-4.6308,-4.6308,-4.6308,-4.6308,-4.6308,-4.6308,-4.6308,-4.625,-4.6133,-4.584,-4.5625,-4.5508,-4.5078,-4.4707,-4.4394,-4.3926,-4.3711,-4.3628,-4.1974,-3.9667,0.0,0.0,0.0,0.0,0.0,0.0,-4.1952,-4.4644,0.0,0.0,-5.2829,-5.3406,-5.4787,-5.5039,-5.5214,-5.5767,-5.642,-5.6947,-5.7173,-5.7399,-5.7524,-5.7524,-5.8027,-5.8378,-5.8378,-5.8855,-5.9182,-5.9182,-5.9382,-5.8109,-5.4986,-5.2343,-4.9531,-4.6376,-4.6308,-4.6308,-4.6308,-4.6308,-4.6172,-4.5937,-4.5937,-4.5937,-4.5937,-4.5937,-4.6556,-4.7707,-4.7707,-4.8955,-5.103,-5.1927,-5.2343,-5.2591,-5.5147,-5.6797,-5.7746,-5.8993,-5.9483,-5.9483,-5.9483,-5.9633,-5.9885,-6.0211,-6.0487,-6.0839,-6.1743,-6.1994,-6.2119,-6.2672,-6.2822,-6.2822,-6.2822,-6.2822,-6.2822,-6.2822,-6.2822,-6.2747,-6.2421,-6.2345,-6.2119,-6.1341,-6.0914,-6.0688,-6.0688,-6.0211,-5.942,-5.8112,-5.5044,-5.2425,-5.1114,-4.8204,-4.6308,-4.6308,-4.6308,-4.6308,-4.6308,-4.6308,-4.6308,-4.6308,-4.6308,-4.6308,-4.6308,-4.6074,-4.5937,-4.5937,-4.5508,-4.5,-4.4394,-4.4121,-4.3887,-4.3628,-4.137,-3.9055,0.0,0.0,0.0,0.0,0.0,0.0,-4.2082,-4.389,-4.5924,0.0,-5.3256,-5.3607,-5.3482,-5.3507,-5.3733,-5.4285,-5.4637,-5.5164,-5.6068,-5.662,-5.6947,-5.6947,-5.7449,-5.7801,-5.7801,-5.8303,-5.8654,-5.8704,-5.9207,-5.7692,-5.3497,-5.3004,-5.0946,-4.6793,-4.6464,-4.6308,-4.6308,-4.6308,-4.6308,-4.6308,-4.6308,-4.6308,-4.6308,-4.6551,-4.7707,-4.9616,-4.9871,-5.1198,-5.3415,-5.5413,-5.6239,-5.6215,-5.6479,-5.777,-5.9483,-5.9483,-5.9483,-5.9483,-5.9483,-5.9859,-6.0337,-6.0387,-6.0788,-6.1391,-6.1943,-6.2094,-6.2195,-6.2697,-6.2822,-6.2822,-6.2822,-6.2822,-6.2822,-6.2822,-6.2822,-6.2822,-6.2822,-6.2822,-6.2546,-6.1542,-6.1316,-6.1266,-6.1266,-6.0788,-6.0387,-6.0337,-5.6088,-5.2988,-5.2921,-4.9041,-4.6308,-4.6308,-4.6308,-4.6308,-4.6308,-4.6308,-4.6308,-4.6308,-4.6308,-4.6308,-4.6308,-4.6308,-4.6308,-4.6308,-4.5898,-4.5273,-4.4473,-4.4414,-4.416,-4.3628,-4.137,-3.9055,0.0,0.0,0.0,0.0,0.0,0.0,-3.5705,-3.6433,-3.7789,0.0,-4.2359,-4.3539,-4.61,-4.6954,-4.7431,-4.7983,-4.9941,-5.2528,-5.5767,-5.6294,0.0,0.0,0.0,0.0,-5.7198,-5.7725,-5.8252,-5.8679,-5.9207,-5.8344,-5.5687,-5.3906,-5.1678,-4.9041,-4.7208,-4.6308,-4.6308,-4.6308,-4.6308,-4.6308,-4.6308,-4.6308,-4.6396,-4.8118,-4.9211,-4.9701,-5.1511,-5.3497,-5.5574,-5.6055,-5.6215,-5.6351,-5.8163,-5.9095,-5.9483,-5.9483,-5.9483,-5.9483,-5.9483,-5.9859,-6.0387,-6.0864,-6.1391,-6.1943,-6.2496,-6.2672,-6.2697,-6.2797,-6.2822,-6.2822,-6.2822,-6.2822,-6.2822,-6.2822,-6.2822,-6.2822,-6.2822,-6.2822,-6.2772,-6.2546,-6.2144,-6.1843,-6.1843,-6.1391,-6.0864,-6.0387,-5.6452,-5.343,-5.2966,-4.9041,-4.6308,-4.6308,-4.6308,-4.6308,-4.6308,-4.6308,-4.6308,-4.6308,-4.6308,-4.6308,-4.6308,-4.6308,-4.6308,-4.6308,-4.5898,-4.543,-4.4902,-4.457,-4.416,-4.3628,-4.137,-3.9055,0.0,0.0,0.0,-3.3111,0.0,0.0,0.0,0.0,-3.7236,-4.03,-4.1128,-4.1831,-4.3489,-4.4267,-4.4819,-4.5372,-4.8033,-5.0318,0.0,0.0,0.0,0.0,0.0,0.0,-5.662,-5.7148,-5.7826,-5.8654,-5.8956,-5.8229,-5.6327,-5.4069,-5.1844,-4.9701,-4.7468,-4.6308,-4.6308,-4.6308,-4.6308,-4.6308,-4.6308,-4.688,-4.7966,-4.9126,-5.0778,-5.2921,-5.4069,-5.5815,-5.7849,-5.7849,-5.7849,-5.7927,-5.907,-5.9483,-5.9483,-5.9483,-5.9483,-5.9483,-5.9483,-6.0035,-6.0788,-6.109,-6.1743,-6.2471,-6.2747,-6.2822,-6.2822,-6.2822,-6.2822,-6.2822,-6.2822,-6.2822,-6.2822,-6.2822,-6.2822,-6.2822,-6.2822,-6.2822,-6.2822,-6.2822,-6.2596,-6.2421,-6.2421,-6.1943,-6.1066,-5.9649,-5.6348,-5.342,-5.1757,-4.8617,-4.6543,-4.6328,-4.6308,-4.6308,-4.6308,-4.6308,-4.6308,-4.6308,-4.6308,-4.6308,-4.6308,-4.6308,-4.6308,-4.6308,-4.6094,-4.5781,-4.5351,-4.4922,-4.4355,-4.3628,-4.137,-3.9055,0.0,0.0,0.0,0.0,0.0,-3.3771,0.0,0.0,0.0,0.0,0.0,0.0,0.0,0.0,0.0,0.0,0.0,0.0,0.0,0.0,0.0,0.0,0.0,0.0,-5.5315,-5.5867,-5.6846,-5.8278,-5.8102,-5.7517,-5.6739,-5.4673,-5.2508,-5.0273,-4.8138,-4.6726,-4.6308,-4.6726,-4.6726,-4.6308,-4.7141,-4.829,-4.9616,-5.0526,-5.2839,-5.6215,-5.6638,-5.7849,-5.9483,-5.9483,-5.9483,-5.9483,-5.9483,-5.9483,-5.9483,-5.9483,-5.9483,-5.9483,-5.9483,-6.0236,-6.119,-6.119,-6.1943,-6.2822,-6.2822,-6.2822,-6.2822,-6.2822,-6.2822,-6.2822,-6.2822,-6.2822,-6.2822,-6.2822,-6.2822,-6.2822,-6.2822,-6.2822,-6.2822,-6.2822,-6.2822,-6.2822,-6.2822,-6.2446,-6.1527,-5.9505,-5.6582,-5.3676,-5.1317,-4.8588,-4.6797,-4.6465,-4.6348,-4.6308,-4.6308,-4.6308,-4.6308,-4.6308,-4.6308,-4.6308,-4.6308,-4.6308,-4.6308,-4.6308,-4.6308,-4.6094,-4.5683,-4.5234,-4.4609,-4.3745,-4.0903,-3.863,0.0,0.0,0.0,0.0,-3.3111,0.0,0.0,0.0,-3.3746,-3.4167,0.0,0.0,0.0,0.0,0.0,0.0,0.0,0.0,0.0,0.0,0.0,0.0,0.0,0.0,0.0,-5.2779,-5.4461,-5.7022,-5.5867,-5.607,-5.8272,-5.6794,-5.4824,-5.2591,-5.0357,-4.829,-4.6308,-4.8204,-4.8204,-4.6396,-5.0273,-5.1282,-4.9701,-5.3638,-5.5711,-5.6319,-5.8266,-5.9251,-5.9483,-5.9483,-5.9483,-5.9483,-5.9483,-5.9483,-5.9483,-5.9483,-5.9483,-5.9483,-5.9483,-6.0236,-6.119,-6.119,-6.1943,-6.2822,-6.2822,-6.2822,-6.2822,-6.2822,-6.2822,-6.2822,-6.2822,-6.2822,-6.2822,-6.2822,-6.2822,-6.2822,-6.2822,-6.2822,-6.2822,-6.2822,-6.2822,-6.2822,-6.2822,-6.2772,-6.249,-6.1721,-5.7891,-5.4848,-5.4038,-4.98,-4.6914,-4.6855,-4.6523,-4.6308,-4.6308,-4.6308,-4.6308,-4.6308,-4.6308,-4.6308,-4.6308,-4.6308,-4.6308,-4.6308,-4.6308,-4.6094,-4.5683,-4.5234,-4.4785,-4.4233,-3.9401,-3.7089,0.0,0.0,0.0,0.0,0.0,0.0,-3.352,0.0,-3.3111,0.0,0.0,0.0,0.0,0.0,0.0,0.0,0.0,0.0,0.0,0.0,0.0,0.0,0.0,0.0,0.0,0.0,0.0,0.0,-5.5189,-5.5415,-5.8554,-5.7109,-5.5815,-5.4882,-5.2674,-5.1114,-5.0104,-5.103,-5.103,-5.0125,-5.2011,-5.3086,-5.3497,-5.5389,-5.6876,-5.8187,-5.9095,-5.9483,-5.9483,-5.9483,-5.9483,-5.9483,-5.9483,-5.9483,-5.9483,-5.9483,-5.9483,-5.9533,-5.9859,-6.0512,-6.1291,-6.1943,-6.2446,-6.2822,-6.2822,-6.2822,-6.2822,-6.2822,-6.2822,-6.2822,-6.2822,-6.2822,-6.2822,-6.2822,-6.2822,-6.2822,-6.2822,-6.2822,-6.2822,-6.2822,-6.2822,-6.2822,-6.2822,-6.2822,-6.2231,-6.0676,-5.7708,-5.4931,-5.3083,-4.9753,-4.7578,-4.7324,-4.6914,-4.666,-4.666,-4.6445,-4.6308,-4.6308,-4.6308,-4.6308,-4.6308,-4.6308,-4.6308,-4.6308,-4.6308,-4.6211,-4.6035,-4.5351,-4.4941,-4.4661,-3.9267,-3.683,-3.7638,0.0,0.0,0.0,0.0,0.0,0.0,0.0,0.0,0.0,0.0,0.0,0.0,0.0,0.0,0.0,0.0,0.0,0.0,0.0,0.0,0.0,0.0,0.0,0.0,0.0,0.0,0.0,0.0,-5.416,-5.8278,-5.7462,-5.6653,-5.6191,-5.4639,-5.3497,-5.2921,-5.3497,-5.3497,-5.2921,-5.4288,-5.5368,-5.6239,-5.6941,-5.8074,-5.9483,-5.9483,-5.9483,-5.9483,-5.9483,-5.9483,-5.9483,-5.9483,-5.9483,-5.9483,-5.9483,-5.9583,-5.9784,-6.0186,-6.0788,-6.1567,-6.2521,-6.2822,-6.2822,-6.2822,-6.2822,-6.2822,-6.2822,-6.2822,-6.2822,-6.2822,-6.2822,-6.2873,-6.3023,-6.3073,-6.3099,-6.3249,-6.3274,-6.3274,-6.3274,-6.3274,-6.3274,-6.3274,-6.3023,-6.2224,-6.0553,-5.829,-5.5831,-5.3208,-5.071,-4.8791,-4.7864,-4.7363,-4.7051,-4.6933,-4.6641,-4.6426,-4.6308,-4.6308,-4.6308,-4.6308,-4.6308,-4.6308,-4.6308,-4.6308,-4.6308,-4.6308,-4.5449,-4.5019,-4.4915,-4.004,-3.7432,0.0,0.0,0.0,-3.4726,0.0,0.0,0.0,0.0,-3.3111,0.0,0.0,0.0,0.0,0.0,0.0,0.0,0.0,0.0,0.0,0.0,0.0,0.0,0.0,0.0,0.0,0.0,0.0,0.0,0.0,0.0,-5.76,-5.8377,-5.7851,-5.6215,-5.6111,-5.5043,-5.2921,-5.5043,-5.5043,-5.2921,-5.7805,-5.8704,-5.6319,-5.8965,-5.9907,-5.9483,-5.9483,-5.9483,-5.9483,-5.9483,-5.9483,-5.9483,-5.9483,-5.9483,-5.9483,-5.9483,-5.9834,-6.0286,-6.0311,-6.104,-6.2069,-6.2647,-6.2822,-6.2822,-6.2822,-6.2822,-6.2822,-6.2822,-6.2822,-6.2822,-6.2822,-6.2822,-6.2973,-6.3525,-6.3676,-6.3802,-6.4304,-6.4404,-6.4404,-6.4404,-6.4404,-6.4404,-6.4404,-6.3525,-6.2741,-6.2741,-6.0719,-5.8351,-5.6008,-5.3251,-5.0717,-4.8456,-4.7812,-4.7383,-4.6973,-4.6914,-4.6738,-4.6328,-4.6308,-4.6308,-4.6308,-4.6308,-4.6308,-4.6308,-4.6308,-4.6308,-4.6308,-4.5449,-4.5019,-4.4915,-4.1674,-3.897,0.0,0.0,-4.4644,-3.912,0.0,0.0,0.0,0.0,0.0,0.0,0.0,0.0,0.0,0.0,0.0,0.0,0.0,0.0,0.0,0.0,0.0,0.0,0.0,0.0,0.0,0.0,0.0,0.0,0.0,0.0,0.0,-5.8428,-5.8623,-5.8422,-5.8422,-5.8006,-5.7273,-5.8006,-5.8006,-5.7273,-5.9305,-5.9619,-5.8447,-5.9722,-6.001,-5.9483,-5.9483,-5.9483,-5.9483,-5.9483,-5.9483,-5.9483,-5.9483,-5.9483,-5.9483,-5.9483,-5.9834,-6.0437,-6.1165,-6.1918,-6.2571,-6.2772,-6.2822,-6.2822,-6.2822,-6.2822,-6.2822,-6.2822,-6.2822,-6.2923,-6.3299,-6.34,-6.3525,-6.4078,-6.4203,-6.4254,-6.4429,-6.4454,-6.4454,-6.4454,-6.4454,-6.4454,-6.4454,-6.4153,-6.3927,-6.3927,-6.1666,-5.9061,-5.6677,-5.3902,-5.126,-4.8908,-4.8242,-4.793,-4.7793,-4.7246,-4.6758,-4.6328,-4.6308,-4.6308,-4.6308,-4.6308,-4.6308,-4.6308,-4.6308,-4.6308,-4.6308,-4.5742,-4.5312,-4.5,-4.3637,-4.0784,-4.7707,-4.8385,0.0,-4.3062,-4.3087,0.0,-3.7713,0.0,0.0,0.0,0.0,0.0,0.0,0.0,0.0,0.0,0.0,0.0,0.0,0.0,0.0,0.0,0.0,0.0,0.0,0.0,0.0,0.0,0.0,0.0,0.0,0.0,-5.8679,-5.9207,-5.9408,-5.9483,-5.9483,-5.9483,-5.9483,-5.9508,-6.0261,-6.0236,-5.9533,-6.0286,-6.0211,-5.9483,-5.9483,-5.9483,-5.9483,-5.9483,-5.9483,-5.9483,-5.9483,-5.9483,-5.9483,-5.9483,-5.9985,-6.0788,-6.1918,-6.2521,-6.2822,-6.2822,-6.2822,-6.2822,-6.2822,-6.2822,-6.2797,-6.2596,-6.2822,-6.3174,-6.335,-6.3676,-6.4103,-6.463,-6.4756,-6.4806,-6.5007,-6.5057,-6.5057,-6.5057,-6.5057,-6.5057,-6.5057,-6.5057,-6.4931,-6.453,-6.2929,-6.0572,-5.7284,-5.518,-5.2708,-4.9452,-4.8711,-4.8379,-4.8223,-4.7422,-4.6816,-4.6543,-4.6387,-4.6308,-4.6308,-4.6308,-4.623,-4.6074,-4.623,-4.623,-4.6074,-4.5801,-4.5449,-4.5019,-4.459,-4.1711]}]]